[[{"header":{"parameterUnit":"m.s-1","parameterCategory":1,"la1":30.6,"la2":28.766,"lo1":-90.7593,"lo2":-88.6598,"dy":0.0162,"dx":0.0183,"nx":116,"ny":114,"refTime":"2023-08-26T00:00:00:Z","depth":0,"parameterNumber":2,"parameterNumberName":"U-component_of_WINDS"},"data":[0.0,0.0,0.0,0.0,0.0,0.0,0.0,0.0,0.0,0.0,0.0,0.0,0.0,0.0,0.0,0.0,0.0,0.0,0.0,0.0,0.0,0.0,0.0,0.0,0.0,0.0,0.0,0.0,0.0,0.0,0.0,0.0,0.0,0.0,0.0,0.0,0.0,0.0,0.0,0.0,0.0,0.0,0.0,0.0,0.0,0.0,0.0,0.0,0.0,0.0,0.0,0.0,0.0,0.0,0.0,0.0,0.0,0.0,0.0,0.0,0.0,0.0,0.0,0.0,0.0,0.0,0.0,0.0,0.0,0.0,0.0,0.0,0.0,0.0,0.0,0.0,0.0,0.0,0.0,0.0,0.0,0.0,0.0,0.0,0.0,0.0,0.0,0.0,0.0,0.0,0.0,0.0,0.0,0.0,0.0,0.0,0.0,0.0,0.0,0.0,0.0,0.0,0.0,0.0,0.0,0.0,0.0,0.0,0.0,0.0,0.0,0.0,0.0,0.0,0.0,0.0,0.0,0.0,0.0,0.0,0.0,0.0,0.0,0.0,0.0,0.0,0.0,0.0,0.0,0.0,0.0,0.0,0.0,0.0,0.0,0.0,0.0,0.0,0.0,0.0,0.0,0.0,0.0,0.0,0.0,0.0,0.0,0.0,0.0,0.0,0.0,0.0,0.0,0.0,0.0,0.0,0.0,0.0,0.0,0.0,0.0,0.0,0.0,0.0,0.0,0.0,0.0,0.0,0.0,0.0,0.0,0.0,0.0,0.0,0.0,0.0,0.0,0.0,0.0,0.0,0.0,0.0,0.0,0.0,0.0,0.0,0.0,0.0,0.0,0.0,0.0,0.0,0.0,0.0,0.0,0.0,0.0,0.0,0.0,0.0,0.0,0.0,0.0,0.0,0.0,0.0,0.0,0.0,0.0,0.0,0.0,0.0,0.0,0.0,0.0,0.0,0.0,0.0,0.0,0.0,0.0,0.0,0.0,0.0,0.0,0.0,0.0,0.0,0.0,0.0,0.0,0.0,0.0,0.0,0.0,0.0,0.0,0.0,0.0,0.0,0.0,0.0,0.0,0.0,0.0,0.0,0.0,0.0,0.0,0.0,0.0,0.0,0.0,0.0,0.0,0.0,0.0,0.0,0.0,0.0,0.0,0.0,0.0,0.0,0.0,0.0,0.0,0.0,0.0,0.0,0.0,0.0,0.0,0.0,0.0,0.0,0.0,0.0,0.0,0.0,0.0,0.0,0.0,0.0,0.0,0.0,0.0,0.0,0.0,0.0,0.0,0.0,0.0,0.0,0.0,0.0,0.0,0.0,0.0,0.0,0.0,0.0,0.0,0.0,0.0,0.0,0.0,0.0,0.0,0.0,0.0,0.0,0.0,0.0,0.0,0.0,0.0,0.0,0.0,0.0,0.0,0.0,0.0,0.0,0.0,0.0,0.0,0.0,0.0,0.0,0.0,0.0,0.0,0.0,0.0,0.0,0.0,0.0,0.0,0.0,0.0,0.0,0.0,0.0,0.0,0.0,0.0,0.0,0.0,0.0,0.0,0.0,0.0,0.0,0.0,0.0,0.0,0.0,0.0,0.0,0.0,0.0,0.0,0.0,0.0,0.0,0.0,0.0,0.0,0.0,0.0,0.0,0.0,0.0,0.0,0.0,0.0,0.0,0.0,0.0,0.0,0.0,0.0,0.0,0.0,0.0,0.0,0.0,0.0,0.0,0.0,0.0,0.0,0.0,0.0,0.0,0.0,0.0,0.0,0.0,0.0,0.0,0.0,0.0,0.0,0.0,0.0,0.0,0.0,0.0,0.0,0.0,0.0,0.0,0.0,0.0,0.0,0.0,0.0,0.0,0.0,0.0,0.0,0.0,0.0,0.0,0.0,0.0,0.0,0.0,0.0,0.0,0.0,0.0,0.0,0.0,0.0,0.0,0.0,0.0,0.0,0.0,0.0,0.0,0.0,0.0,0.0,0.0,0.0,0.0,0.0,0.0,0.0,0.0,0.0,0.0,0.0,0.0,0.0,0.0,0.0,0.0,0.0,0.0,0.0,0.0,0.0,0.0,0.0,0.0,0.0,0.0,0.0,0.0,0.0,0.0,0.0,0.0,0.0,0.0,0.0,0.0,0.0,0.0,0.0,0.0,0.0,0.0,0.0,0.0,0.0,0.0,0.0,0.0,0.0,0.0,0.0,0.0,0.0,0.0,0.0,0.0,0.0,0.0,0.0,0.0,0.0,0.0,0.0,0.0,0.0,0.0,0.0,0.0,0.0,0.0,0.0,0.0,0.0,0.0,0.0,0.0,0.0,0.0,0.0,0.0,0.0,0.0,0.0,0.0,0.0,0.0,0.0,0.0,0.0,0.0,0.0,0.0,0.0,0.0,0.0,0.0,0.0,0.0,0.0,0.0,0.0,0.0,0.0,0.0,0.0,0.0,0.0,0.0,0.0,0.0,0.0,0.0,0.0,0.0,0.0,0.0,0.0,0.0,0.0,0.0,0.0,0.0,0.0,0.0,0.0,0.0,0.0,0.0,0.0,0.0,0.0,0.0,0.0,0.0,0.0,0.0,0.0,0.0,0.0,0.0,0.0,0.0,0.0,0.0,0.0,0.0,0.0,0.0,0.0,0.0,0.0,0.0,0.0,0.0,0.0,0.0,0.0,0.0,0.0,0.0,0.0,0.0,0.0,0.0,0.0,0.0,0.0,0.0,0.0,0.0,0.0,0.0,0.0,0.0,0.0,0.0,0.0,0.0,0.0,0.0,0.0,0.0,0.0,0.0,0.0,0.0,0.0,0.0,0.0,0.0,0.0,0.0,0.0,0.0,0.0,0.0,0.0,0.0,0.0,0.0,0.0,0.0,0.0,0.0,0.0,0.0,0.0,0.0,0.0,0.0,0.0,0.0,0.0,0.0,0.0,0.0,0.0,0.0,0.0,0.0,0.0,0.0,0.0,0.0,0.0,0.0,0.0,0.0,0.0,0.0,0.0,0.0,0.0,0.0,0.0,0.0,0.0,0.0,0.0,0.0,0.0,0.0,0.0,0.0,0.0,0.0,0.0,0.0,0.0,0.0,0.0,0.0,0.0,0.0,0.0,0.0,0.0,0.0,0.0,0.0,0.0,0.0,0.0,0.0,0.0,0.0,0.0,0.0,0.0,0.0,0.0,0.0,0.0,0.0,0.0,0.0,0.0,0.0,0.0,0.0,0.0,0.0,0.0,0.0,0.0,0.0,0.0,0.0,0.0,0.0,0.0,0.0,0.0,0.0,0.0,0.0,0.0,0.0,0.0,0.0,0.0,0.0,0.0,0.0,0.0,0.0,0.0,0.0,0.0,0.0,0.0,0.0,0.0,0.0,0.0,0.0,0.0,0.0,0.0,0.0,0.0,0.0,0.0,0.0,0.0,0.0,0.0,0.0,0.0,0.0,0.0,0.0,0.0,0.0,0.0,0.0,0.0,0.0,0.0,0.0,0.0,0.0,0.0,0.0,0.0,0.0,0.0,0.0,0.0,0.0,0.0,0.0,0.0,0.0,0.0,0.0,0.0,0.0,0.0,0.0,0.0,0.0,0.0,0.0,0.0,0.0,0.0,0.0,0.0,0.0,0.0,0.0,0.0,0.0,0.0,0.0,0.0,0.0,0.0,0.0,0.0,0.0,0.0,0.0,0.0,0.0,0.0,0.0,0.0,0.0,0.0,0.0,0.0,0.0,0.0,0.0,0.0,0.0,0.0,0.0,0.0,0.0,0.0,0.0,0.0,0.0,0.0,0.0,0.0,0.0,0.0,0.0,0.0,0.0,0.0,0.0,0.0,0.0,0.0,0.0,0.0,0.0,0.0,0.0,0.0,0.0,0.0,0.0,0.0,0.0,0.0,0.0,0.0,0.0,0.0,0.0,0.0,0.0,0.0,0.0,0.0,0.0,0.0,0.0,0.0,0.0,0.0,0.0,0.0,0.0,0.0,0.0,0.0,0.0,0.0,0.0,0.0,0.0,0.0,0.0,0.0,0.0,0.0,0.0,0.0,0.0,0.0,0.0,0.0,0.0,0.0,0.0,0.0,0.0,0.0,0.0,0.0,0.0,0.0,0.0,0.0,0.0,0.0,0.0,0.0,0.0,0.0,0.0,0.0,0.0,0.0,0.0,0.0,0.0,0.0,0.0,0.0,0.0,0.0,0.0,0.0,0.0,0.0,0.0,0.0,0.0,0.0,0.0,0.0,0.0,0.0,0.0,0.0,0.0,0.0,0.0,0.0,0.0,0.0,0.0,0.0,0.0,0.0,0.0,0.0,0.0,0.0,0.0,0.0,0.0,0.0,0.0,0.0,0.0,0.0,0.0,0.0,0.0,0.0,0.0,0.0,0.0,0.0,0.0,0.0,0.0,0.0,0.0,0.0,0.0,0.0,0.0,0.0,0.0,0.0,0.0,0.0,0.0,0.0,0.0,0.0,0.0,0.0,0.0,0.0,0.0,0.0,0.0,0.0,0.0,0.0,0.0,0.0,0.0,0.0,0.0,0.0,0.0,0.0,0.0,0.0,0.0,0.0,0.0,0.0,0.0,0.0,0.0,0.0,0.0,0.0,0.0,0.0,0.0,0.0,0.0,0.0,0.0,0.0,0.0,0.0,0.0,0.0,0.0,0.0,0.0,0.0,0.0,0.0,0.0,0.0,0.0,0.0,0.0,0.0,0.0,0.0,0.0,0.0,0.0,0.0,0.0,0.0,0.0,0.0,0.0,0.0,0.0,0.0,0.0,0.0,0.0,0.0,0.0,0.0,0.0,0.0,0.0,0.0,0.0,0.0,0.0,0.0,0.0,0.0,0.0,0.0,0.0,0.0,0.0,0.0,0.0,0.0,0.0,0.0,0.0,0.0,0.0,0.0,0.0,0.0,0.0,0.0,0.0,0.0,0.0,0.0,0.0,0.0,0.0,0.0,0.0,0.0,0.0,0.0,0.0,0.0,0.0,0.0,0.0,0.0,0.0,0.0,0.0,0.0,0.0,0.0,0.0,0.0,0.0,0.0,0.0,0.0,0.0,0.0,0.0,0.0,0.0,0.0,0.0,0.0,0.0,0.0,0.0,0.0,0.0,0.0,0.0,0.0,0.0,0.0,0.0,0.0,0.0,0.0,0.0,0.0,0.0,0.0,0.0,0.0,0.0,0.0,0.0,0.0,0.0,0.0,0.0,0.0,0.0,0.0,0.0,0.0,0.0,0.0,0.0,0.0,0.0,0.0,0.0,0.0,0.0,0.0,0.0,0.0,0.0,0.0,0.0,0.0,0.0,0.0,0.0,0.0,0.0,0.0,0.0,0.0,0.0,0.0,0.0,0.0,0.0,0.0,0.0,0.0,0.0,0.0,0.0,0.0,0.0,0.0,0.0,0.0,0.0,0.0,0.0,0.0,0.0,0.0,0.0,0.0,0.0,0.0,0.0,0.0,0.0,0.0,0.0,0.0,0.0,0.0,0.0,0.0,0.0,0.0,0.0,0.0,0.0,0.0,0.0,0.0,0.0,0.0,0.0,0.0,0.0,0.0,0.0,0.0,0.0,0.0,0.0,0.0,0.0,0.0,0.0,0.0,0.0,0.0,0.0,0.0,0.0,0.0,0.0,0.0,0.0,0.0,0.0,0.0,0.0,0.0,0.0,0.0,0.0,0.0,0.0,0.0,0.0,0.0,0.0,0.0,0.0,0.0,0.0,0.0,0.0,0.0,0.0,0.0,0.0,0.0,0.0,0.0,0.0,0.0,0.0,0.0,0.0,0.0,0.0,0.0,0.0,0.0,0.0,0.0,0.0,0.0,0.0,0.0,0.0,0.0,0.0,0.0,0.0,0.0,0.0,0.0,0.0,0.0,0.0,0.0,0.0,0.0,0.0,0.0,0.0,0.0,0.0,0.0,0.0,0.0,0.0,0.0,0.0,0.0,0.0,0.0,0.0,0.0,0.0,0.0,0.0,0.0,0.0,0.0,0.0,0.0,0.0,0.0,0.0,0.0,0.0,0.0,0.0,0.0,0.0,0.0,0.0,0.0,0.0,0.0,0.0,0.0,0.0,0.0,0.0,0.0,0.0,0.0,0.0,0.0,0.0,0.0,0.0,-3.3437,0.0,0.0,0.0,0.0,0.0,0.0,0.0,0.0,0.0,0.0,0.0,0.0,0.0,0.0,0.0,0.0,0.0,0.0,0.0,0.0,0.0,0.0,0.0,0.0,0.0,0.0,0.0,0.0,0.0,0.0,0.0,0.0,0.0,0.0,0.0,0.0,0.0,0.0,-0.2331,-0.9198,-1.4313,-1.7461,-1.1302,-0.6368,-0.2496,0.0,0.0,0.0,0.0,0.0,0.0,0.0,0.0,0.0,0.0,0.0,0.0,0.0,0.0,0.0,0.0,0.0,0.0,0.0,0.0,0.0,0.0,0.0,0.0,0.0,0.0,0.0,0.0,0.0,0.0,0.0,0.0,0.0,0.0,0.0,0.0,0.0,0.0,0.0,0.0,0.0,0.0,0.0,0.0,0.0,0.0,0.0,0.0,0.0,0.0,0.0,0.0,0.0,0.0,0.0,0.0,0.0,0.0,0.0,0.0,0.0,0.0,0.0,0.0,0.0,0.0,0.0,0.0,0.0,0.0,0.0,-3.4868,0.0,0.0,0.0,0.0,0.0,0.0,0.0,0.0,0.0,0.0,0.0,0.0,0.0,0.0,0.0,0.0,0.0,0.0,0.0,0.0,0.0,0.0,0.0,0.0,2.9343,2.5448,2.3241,2.0934,0.0,0.0,0.0,0.0,0.0,0.0,0.0,-0.5237,-0.9047,-1.1205,-1.9419,-2.3327,-2.3198,-2.2339,-1.8674,-1.2359,-0.3612,0.0,0.0,0.0,0.0,0.0,0.0,0.0,0.0,0.0,0.0,0.0,0.0,0.0,0.0,0.0,0.0,0.0,0.0,0.0,0.0,0.0,0.0,0.0,0.0,0.0,0.0,0.0,0.0,0.0,0.0,0.0,0.0,0.0,0.0,0.0,0.0,0.0,0.0,0.0,0.0,0.0,0.0,0.0,0.0,0.0,0.0,0.0,0.0,0.0,0.0,0.0,0.0,0.0,0.0,0.0,0.0,0.0,0.0,0.0,0.0,0.0,0.0,0.0,0.0,-3.9093,-3.9574,-3.899,-3.911,-3.9604,-3.7349,-3.6568,-3.6893,0.0,0.0,0.0,0.0,0.0,0.0,0.0,0.0,0.0,0.0,0.0,0.0,0.0,0.0,0.0,0.0,0.0,0.0,0.0,0.0,0.0,0.0,3.45,3.2001,2.7585,2.4678,2.1753,0.0,0.0,0.0,0.0,0.0,0.0,-0.3859,-0.9541,-1.4024,-1.7284,-2.1343,-2.3954,-2.5187,-2.2366,-1.9756,-1.7024,-0.8497,-0.2917,0.0262,0.0,0.0,0.0,0.0,0.0,0.0,0.0,0.0,0.0,0.0,0.0,0.0,0.0,0.0,0.0,0.0,0.0,0.0,0.0,0.0,0.0,0.0,0.0,0.0,0.0,0.0,0.0,0.0,0.0,0.0,0.0,0.0,0.0,0.0,0.0,0.0,0.0,0.0,0.0,0.0,0.0,-3.9862,-4.3038,0.0,0.0,0.0,0.0,0.0,0.0,0.0,0.0,0.0,0.0,0.0,0.0,0.0,0.0,-4.4541,-4.2659,-4.1659,-4.1518,-4.06,-4.0156,-4.0277,-4.0172,-4.0487,-4.107,-4.0199,0.0,-3.8159,-3.8309,0.0,0.0,0.0,0.0,0.0,0.0,0.0,0.0,0.0,0.0,0.0,0.0,0.0,0.0,0.0,0.0,0.0,0.0,0.0,0.0,0.0,3.6434,3.4117,2.9551,2.6707,2.3506,1.9695,1.6419,0.0,0.0,0.0,-0.0542,-0.5969,-1.176,-1.7125,-2.2097,-2.3243,-2.4392,-2.5549,-2.3186,-2.0948,-1.8758,-1.42,-0.9981,-0.6189,-0.3513,0.0,0.0,0.0,0.0,0.0,0.0,0.0,0.0,0.0,0.0,0.0,0.0,0.0,0.0,0.0,0.0,0.0,0.0,0.0,0.0,0.0,0.0,0.0,0.0,0.0,0.0,0.0,0.0,0.0,0.0,0.0,0.0,0.0,0.0,0.0,0.0,0.0,0.0,0.0,-3.6721,-4.3137,-4.2208,-4.2385,-4.183,0.0,0.0,0.0,0.0,0.0,0.0,0.0,0.0,0.0,-4.3519,-4.3477,-4.3705,-4.4125,-4.3518,-4.2849,-4.2238,-4.18,-4.1698,-4.2058,-4.2058,-4.2207,-4.2462,-4.2177,-4.1294,-4.0109,-4.0379,-3.9843,-3.8905,0.0,0.0,0.0,0.0,0.0,-3.7318,0.0,0.0,0.0,0.0,0.0,0.0,0.0,0.0,0.0,0.0,0.0,0.0,3.867,3.8043,3.5941,3.1456,2.8242,2.49,2.1156,1.7478,0.0,0.0,0.518,-0.0237,-0.5907,-1.2751,-1.9111,-2.479,-2.4217,-2.4399,-2.5238,-2.3652,-2.178,-1.969,-1.8718,-1.5756,-1.1283,-0.9547,-0.7716,-0.5924,0.0,0.0,0.0,0.0,0.0,0.0,0.0,0.0,0.0,0.0,0.0,0.0,0.0,0.0,0.0,0.0,0.0,0.0,0.0,0.0,0.0,0.0,0.0,0.0,0.0,0.0,0.0,0.0,0.0,0.0,0.0,0.0,0.0,0.0,0.0,0.0,0.0,-4.2243,-4.3976,-4.1632,-4.2758,-4.2625,0.0,0.0,0.0,0.0,0.0,0.0,-4.2788,-4.2541,-4.3117,-4.4816,-4.5048,-4.4842,-4.4266,-4.451,-4.4085,-4.306,-4.2803,-4.2865,-4.3329,-4.3329,-4.3329,-4.3329,-4.3329,-4.2776,-4.1911,-4.2071,-4.1326,-4.0123,-4.0249,-3.9634,-3.8504,-3.7785,-3.7422,-3.7329,0.0,0.0,0.0,0.0,0.0,0.0,0.0,0.0,0.0,0.0,0.0,4.077,3.9494,3.9277,3.7465,3.3123,2.8611,2.5117,2.2913,1.7533,1.3682,1.222,0.788,0.2757,-0.3096,-1.265,-1.9816,-2.4238,-2.3654,-2.3675,-2.428,-2.3092,-2.1816,-2.0665,-2.0917,-1.8323,-1.3584,-1.2557,-1.1185,-0.9632,-1.1035,0.0,0.0,0.0,0.0,0.0,0.0,0.0,0.0,0.0,0.0,0.0,0.0,0.0,0.0,0.0,0.0,0.0,0.0,0.0,0.0,0.0,0.0,0.0,0.0,0.0,0.0,0.0,0.0,0.0,0.0,0.0,0.0,0.0,0.0,0.0,0.0,0.0,0.0,-4.3167,-4.4222,0.0,0.0,0.0,0.0,-4.1864,-4.2091,-4.2562,-4.3305,-4.3356,-4.4389,-4.6607,-4.665,-4.6887,-4.7358,-4.6532,-4.5595,-4.4703,-4.3711,-4.3299,-4.3329,-4.3329,-4.3329,-4.3329,-4.3329,-4.3299,-4.3139,-4.2879,-4.2028,-4.0846,-4.0932,-4.0893,-4.0746,-3.9935,-3.9649,-3.9524,0.0,0.0,0.0,0.0,0.0,0.0,0.0,0.0,3.5392,3.7524,3.961,4.0585,3.9734,3.9864,3.8687,3.5437,3.0507,2.7152,2.6079,2.0758,1.6933,1.5226,1.1196,0.3376,-0.8893,-1.4088,-1.9448,-2.5076,-2.3258,-2.3205,-2.4708,-2.2899,-2.1839,-2.1503,-2.1912,-2.0624,-1.8026,-1.5507,-1.3404,-1.1866,-1.221,-1.2525,0.0,0.0,0.0,0.0,0.0,0.0,0.0,0.0,0.0,0.0,0.0,0.0,0.0,0.0,0.0,0.0,0.0,0.0,0.0,0.0,0.0,0.0,0.0,0.0,0.0,0.0,0.0,0.0,0.0,0.0,0.0,0.0,0.0,0.0,0.0,0.0,0.0,-4.4688,-4.5488,0.0,-4.4113,-4.3801,-4.3613,-4.3387,-4.4933,-4.5959,-4.6038,-4.6673,-4.7394,-4.8189,-4.8223,-4.7708,-4.673,-4.6384,-4.54,-4.3849,-4.3472,-4.3329,-4.3329,-4.3329,-4.3329,-4.3329,-4.3329,-4.309,-4.2689,-4.2716,-4.2504,-4.1977,-4.1213,-4.0635,-4.0056,-3.9329,-3.8939,-3.8775,0.0,0.0,0.0,0.0,0.0,0.0,0.0,0.0,3.4083,3.6626,3.9268,4.0698,4.0037,4.0254,3.9153,3.5913,3.1041,2.7841,2.7048,2.201,1.869,1.7774,1.0359,-0.024,-1.4276,-1.63,-1.967,-2.4516,-2.2804,-2.2584,-2.3711,-2.1977,-2.1221,-2.125,-2.1826,-2.1381,-2.0157,-1.8073,-1.6417,-1.5055,-1.4859,-1.4953,-1.5124,0.0,0.0,0.0,0.0,0.0,0.0,0.0,0.0,0.0,0.0,0.0,0.0,0.0,0.0,0.0,0.0,0.0,0.0,0.0,0.0,0.0,0.0,0.0,0.0,0.0,0.0,0.0,0.0,0.0,0.0,0.0,0.0,0.0,0.0,0.0,-4.5988,-4.5425,-4.634,-4.652,-4.5312,-4.5346,-4.5487,-4.5633,-4.7182,-4.8236,-4.8364,-4.9009,-4.9255,-4.9018,-4.9238,-4.8329,-4.6244,-4.6173,-4.5253,-4.3329,-4.3329,-4.3329,-4.3329,-4.3329,-4.3329,-4.3329,-4.3329,-4.297,-4.2389,-4.2286,-4.2153,-4.1858,-4.1115,-4.0538,-3.9962,-3.9143,-3.8819,-3.8556,0.0,0.0,0.0,0.0,0.0,0.0,0.0,2.865,3.2943,3.647,3.9465,4.1014,4.0313,4.0341,3.8733,3.4467,2.9945,2.6891,2.5801,2.0796,1.8251,1.9062,0.4825,-0.8049,-1.862,-1.9201,-2.0343,-2.2543,-2.214,-2.168,-2.1157,-2.0322,-1.9893,-1.9932,-2.0801,-2.0529,-1.9488,-2.0346,-2.0158,-1.9238,-1.9358,-1.9246,-1.8961,0.0,0.0,0.0,0.0,0.0,0.0,0.0,0.0,0.0,0.0,0.0,0.0,0.0,0.0,0.0,0.0,0.0,0.0,0.0,0.0,0.0,0.0,0.0,0.0,0.0,0.0,0.0,0.0,0.0,0.0,0.0,0.0,0.0,-4.176,-4.3789,-4.5319,-4.5405,-4.6642,-4.7259,-4.6553,-4.6813,-4.7461,-4.8521,-4.8658,-4.9078,-5.0054,-5.0118,-4.9779,-4.9018,-4.9678,-4.8844,-4.626,-4.6173,-4.5253,-4.3329,-4.3329,-4.3329,-4.3329,-4.3329,-4.3329,-4.3329,-4.3329,-4.297,-4.2342,-4.1654,-4.101,-4.0426,-4.0585,-4.069,-4.0569,-3.9737,-3.9394,-3.917,0.0,0.0,0.0,0.0,0.0,0.0,0.0,2.821,3.1055,3.4417,3.7297,3.8899,3.84,3.869,3.7497,3.4045,2.9345,2.6436,2.627,1.913,1.2081,0.5661,-0.4408,-1.3938,-2.2788,-2.0977,-2.0928,-2.2922,-2.1596,-2.1083,-2.1177,-2.0001,-1.9453,-1.9482,-2.0029,-2.0285,-2.028,-2.0843,-2.1078,-2.1072,-2.0141,-1.9641,-1.9273,0.0,0.0,0.0,0.0,0.0,0.0,0.0,0.0,0.0,0.0,0.0,0.0,0.0,0.0,0.0,0.0,0.0,0.0,0.0,0.0,0.0,0.0,0.0,0.0,0.0,0.0,0.0,0.0,0.0,0.0,0.0,0.0,-4.2223,-4.336,-4.4474,-4.579,-4.7475,-4.7449,-4.758,-4.8401,-4.8134,-4.8279,-4.9013,-4.9856,-5.0132,-4.9857,-5.0473,-5.0321,-4.9035,-4.9204,-4.8279,-4.6244,-4.6173,-4.5253,-4.3329,-4.3329,-4.3329,-4.3329,-4.3329,-4.3329,-4.3329,-4.3329,-4.324,-4.2985,-4.1848,-4.1265,-4.107,-4.0118,-3.9737,-3.9737,-3.9481,-3.8796,-3.7838,0.0,0.0,0.0,0.0,0.0,0.0,0.0,2.9875,3.1498,3.351,3.6355,3.7914,3.7106,3.6754,3.5297,3.2154,2.7619,2.4745,2.4259,1.2494,0.2321,-0.4797,-1.2831,-1.889,-2.2561,-2.1151,-2.0796,-2.1694,-2.0454,-1.9828,-1.9824,-1.8745,-1.8311,-1.8506,-1.8485,-1.8748,-1.9175,-1.9381,-1.9851,-2.0406,-1.9633,-1.9697,-2.013,-1.9928,-1.9756,-1.9457,-1.8748,-1.8461,-1.8386,-1.789,0.0,0.0,0.0,0.0,0.0,0.0,0.0,0.0,0.0,0.0,0.0,0.0,0.0,0.0,0.0,0.0,0.0,0.0,0.0,0.0,0.0,0.0,0.0,0.0,-3.9795,-4.2116,-4.3889,-4.505,-4.6262,-4.7887,-4.7428,-4.7454,-4.8543,-4.7919,-4.8121,-4.9649,-4.9475,-4.9653,-5.0275,-5.0555,-5.0202,-4.9035,-4.9306,-4.8379,-4.6244,-4.6173,-4.5253,-4.3329,-4.3329,-4.3195,-4.2925,-4.2925,-4.2776,0.0,-4.2506,-4.2357,-4.2043,-4.128,-4.0816,0.0,0.0,0.0,0.0,0.0,-3.7913,-3.6971,0.0,0.0,0.0,0.0,0.0,0.0,0.0,3.2254,3.2899,3.3295,3.585,3.7178,3.5945,3.4639,3.259,2.9453,2.5564,2.2038,1.9145,0.3614,-0.7807,-1.2977,-1.9895,-2.2557,-2.032,-2.0469,-2.0268,-1.9643,-1.9003,-1.8436,-1.7838,-1.6974,-1.6805,-1.7193,-1.6633,-1.6607,-1.7018,-1.7004,-1.7476,-1.829,-1.8366,-1.9472,-2.0996,-2.0156,-1.9844,-1.9805,-1.9473,-1.9282,-1.9199,-1.9151,0.0,0.0,0.0,0.0,0.0,0.0,0.0,0.0,0.0,0.0,0.0,0.0,0.0,0.0,0.0,0.0,0.0,0.0,0.0,0.0,0.0,0.0,0.0,0.0,-3.9761,-4.1789,-4.3815,-4.5386,-4.6529,-4.7085,-4.6669,-4.6713,-4.7472,-4.6735,-4.7359,-4.9955,-4.8439,-4.8458,-5.0919,0.0,0.0,0.0,0.0,-4.8794,-4.6244,-4.6173,-4.5253,-4.3329,-4.3329,-4.2985,-4.2357,-4.2357,-4.1998,-4.1384,-4.1384,-4.1055,-4.0502,-4.0352,-3.9903,-3.9305,-3.9305,-3.8931,-3.8302,-3.7569,-3.6956,0.0,0.0,0.0,0.0,0.0,0.0,0.0,0.0,3.1385,3.1115,3.2781,3.3769,3.4099,3.3507,3.2484,3.067,2.766,2.5198,1.8632,0.635,-0.021,-0.8326,-1.8929,-2.2194,-2.3393,-2.2578,-2.1163,-1.9969,-1.9069,-1.8452,-1.769,-1.6764,-1.6028,-1.5762,-1.5854,-1.5314,-1.535,-1.5794,-1.5945,-1.6371,-1.6868,-1.765,-1.8873,-2.0117,-1.96,-1.9404,-1.9443,-1.9697,-1.925,-1.8428,-1.8267,-1.7596,-1.674,-1.5858,-1.5627,0.0,0.0,0.0,0.0,0.0,0.0,0.0,0.0,0.0,0.0,0.0,0.0,0.0,0.0,0.0,0.0,0.0,0.0,0.0,-3.8909,-4.1119,-4.2849,-4.3644,-4.4601,-4.5321,-4.5968,-4.5306,-4.5062,-4.5725,-4.5822,-4.6594,-4.8563,-4.8524,-4.8961,-5.0223,-5.0168,0.0,-4.9018,-4.9137,-4.8229,-4.6244,-4.6173,-4.5253,-4.3329,0.0,0.0,-4.2357,-4.2357,-4.1998,-4.1384,-4.1384,-4.1309,-4.1115,-4.0053,-3.9215,-3.8586,-3.8586,-3.8497,-3.8242,-3.709,-3.6596,-3.6417,0.0,0.0,0.0,0.0,0.0,0.0,0.0,3.2047,3.1458,3.171,3.2658,3.2807,3.1532,3.0396,2.891,2.6792,2.4388,1.668,0.1726,-0.1758,-0.8864,-2.1443,-2.2886,-2.2789,-2.1516,-1.9408,-1.7882,-1.704,-1.6234,-1.5429,-1.4821,-1.4421,-1.4292,-1.431,-1.3713,-1.3771,-1.4347,-1.4022,-1.4283,-1.5094,-1.5437,-1.6275,-1.7423,-1.8812,-1.8985,-1.8637,-1.8844,-1.8206,-1.7327,-1.7212,-1.6182,-1.4869,-1.4216,-1.3733,-1.3135,0.0,0.0,0.0,0.0,0.0,0.0,0.0,0.0,0.0,0.0,0.0,0.0,0.0,0.0,-3.4535,0.0,0.0,-3.7187,-3.9159,-4.0483,-4.1487,-4.245,-4.2574,-4.3061,-4.4386,-4.4398,-4.4451,-4.4766,-4.5382,-4.6419,-4.8163,-4.8176,-4.8712,-5.0004,-4.9746,-4.9373,-4.9018,-4.8513,-4.7589,-4.6244,-4.569,-4.4781,-4.3329,-4.3329,-4.2821,-4.1878,-4.1878,-4.1324,-4.0397,-4.0397,-4.0397,-4.0322,-3.932,-3.8497,-3.7868,-3.7554,-3.7629,-3.7749,-3.6462,-3.5998,-3.5953,0.0,0.0,0.0,0.0,0.0,0.0,0.0,3.2609,3.1941,3.0884,3.1753,3.1772,2.9952,2.8528,2.7198,2.5888,2.3338,1.5671,0.1228,-0.1966,-0.8932,-2.1595,-2.2431,-2.1517,-1.9277,-1.6991,-1.544,-1.4718,-1.3737,-1.3135,-1.2761,-1.2546,-1.2453,-1.2538,-1.1809,-1.1812,-1.2297,-1.1744,-1.2152,-1.3114,-1.3223,-1.3778,-1.4739,-1.7215,-1.7788,-1.7286,-1.7367,-1.665,-1.56,-1.5591,-1.4214,-1.2569,-1.2375,-1.1715,-1.0773,-0.9752,-1.0497,0.0,0.0,0.0,0.0,0.0,0.0,0.0,0.0,0.0,-3.472,-3.5087,-3.5057,-3.5109,-3.5431,-3.6009,-3.701,-3.8971,-3.9297,-3.9787,-4.1205,-4.092,-4.113,-4.2596,-4.3449,-4.3928,-4.3928,-4.5064,-4.6379,-4.7764,-4.7893,-4.8475,-4.983,-4.9323,-4.8984,-4.9012,-4.8275,-4.7355,-4.6196,-4.517,-4.4113,-4.3026,-4.3,-4.2342,-4.119,-4.119,-4.0546,-3.9409,-3.9275,-3.9155,-3.899,-3.8437,-3.7823,-3.718,-3.6701,-3.6821,-3.7105,-3.5938,-3.5504,-3.5439,0.0,0.0,0.0,0.0,0.0,0.0,0.0,0.0,3.0813,3.1243,3.0449,2.9609,2.9006,2.7173,2.5418,2.401,2.2245,1.5845,0.3189,-0.0977,-0.7884,-1.8952,-2.0517,-1.9903,-1.7268,-1.5373,-1.3942,-1.2884,-1.249,-1.2071,-1.1654,-1.0755,-1.0328,-1.0295,-0.9261,-0.8851,-0.8983,-0.9904,-1.0578,-1.1103,-1.2635,-1.3502,-1.3807,-1.3987,-1.4482,-1.5118,-1.5525,-1.4411,-1.2664,-1.2643,-1.1435,-0.9991,-1.0236,-1.0485,-1.0333,-0.8679,-0.8103,-0.8573,-1.1105,-1.7398,-2.4342,-2.9376,-3.2265,-3.4735,0.0,0.0,-3.6617,-3.7263,-3.6868,-3.629,-3.5926,-3.5898,-3.662,-3.8529,-3.8832,-3.9478,-4.1189,-4.1324,-4.113,-4.0771,-4.1818,-4.2581,-4.2581,-4.4725,-4.6246,-4.6413,-4.7968,-4.8911,-4.912,-4.9035,-4.8995,-4.9025,-4.8908,-4.8002,-4.6212,-4.4749,-4.3414,-4.2175,-4.1803,-4.122,-4.0502,-4.0502,-4.0113,-3.9394,-3.8766,-3.8167,-3.7629,-3.7554,-3.715,-3.6582,-3.6544,-3.6522,-3.6492,-3.5738,-3.5504,-3.5359,0.0,0.0,0.0,0.0,0.0,0.0,0.0,0.0,0.0,0.0,3.0306,2.9493,2.8398,2.6378,2.4832,2.4076,2.3256,1.8201,0.742,0.3826,-0.2623,-1.3242,-1.5258,-1.5382,-1.3814,-1.2712,-1.1541,-1.0319,-0.9937,-0.9569,-0.9224,-0.8767,-0.8497,-0.8389,-0.8127,-0.8184,-0.8551,-0.8927,-0.9422,-0.9876,-1.0367,-1.0669,-1.0797,-1.0661,-1.1083,-1.1818,-1.2169,-1.1308,0.0,-1.0571,-0.9717,-0.8559,-0.914,-0.7893,-0.6062,-0.5352,-0.5737,-0.7668,-1.3442,-2.0049,-2.6188,-2.9993,-3.2552,-3.4685,-3.7059,-3.6791,-3.6238,-3.6959,-3.6415,-3.5664,-3.5404,-3.5151,-3.5741,0.0,-3.8675,-3.9432,-4.0621,-4.0607,-4.0268,-4.0008,-4.0802,-4.1744,-4.2539,-4.4465,-4.6019,-4.6919,-4.8225,-4.9001,-4.9001,-4.9001,-4.9007,-4.9001,-4.7556,-4.595,-4.4157,-4.3025,-4.2152,-4.1607,-4.1489,-4.104,-4.0397,-4.0397,-4.0038,-3.9379,-3.8691,-3.8018,-3.7375,-3.7015,-3.6492,-3.5923,-3.5902,-3.5917,-3.5872,-3.5624,-3.5165,-3.4587,0.0,0.0,0.0,0.0,0.0,0.0,0.0,0.0,0.0,0.0,3.0608,2.9552,2.7711,2.6178,2.5082,2.4591,2.4166,2.0235,1.1505,0.8311,0.2851,-0.5909,-0.86,-0.9364,-0.8231,-0.8306,-0.8088,-0.7536,-0.6792,-0.6763,-0.732,-0.6654,-0.6625,-0.7091,-0.7111,-0.7279,-0.7693,-0.7723,-0.7901,-0.8259,-0.8466,-0.8712,-0.8798,-0.7851,-0.7808,-0.8394,-0.9481,-0.93,-0.8596,-0.8994,-0.7815,-0.6349,-0.7505,-0.599,-0.3593,-0.3001,-0.5099,-0.9104,-1.6193,-2.2164,-2.7158,-3.0394,-3.2919,-3.4829,-3.5825,-3.5778,-3.555,-3.5904,-3.5164,-3.4423,-3.4243,-3.4158,-3.4915,-3.7281,-3.831,-3.9324,-4.067,-4.0359,-3.9997,-4.0013,-4.0435,-4.1335,-4.2784,-4.4385,-4.5747,-4.6898,-4.8031,-4.8714,-4.8714,-4.89,-4.8984,-4.8971,-4.609,-4.3558,-4.173,-4.1142,-4.0876,-4.0875,-4.0876,-4.0591,-4.0127,-4.0127,-3.9768,-3.9095,-3.8422,-3.7749,-3.7105,-3.6477,-3.5938,-3.5504,-3.5504,-3.5504,-3.5484,-3.5175,-3.4601,-3.3937,0.0,0.0,0.0,0.0,0.0,0.0,0.0,0.0,0.0,0.0,0.0,0.0,0.0,2.666,2.6301,2.5254,2.4282,2.1052,1.4741,1.124,0.7418,0.2989,-0.0801,-0.1909,-0.0,-0.1544,-0.3083,-0.4534,-0.3101,-0.3824,-0.6564,-0.4367,-0.4515,-0.6563,-0.5841,-0.5463,-0.548,-0.5802,-0.5727,-0.5653,-0.7642,-0.8752,-0.8974,-0.5712,-0.452,-0.4956,-0.8215,-0.8982,-0.8337,-0.7772,-0.5258,-0.2726,-0.4867,-0.5432,-0.4917,-0.2835,-0.6951,-1.332,-1.8495,-2.3263,-2.7652,-3.1264,-3.4022,-3.5766,-3.547,-3.5295,-3.5029,-3.439,-3.3398,-3.2571,-3.2146,-3.2779,-3.4172,-3.6359,-3.7529,-3.9017,-4.1579,-4.1295,-4.0911,-4.0958,-4.0927,-4.1544,0.0,-4.4624,-4.5417,-4.5434,-4.6993,-4.7953,-4.7953,-4.8612,-4.9001,-4.9038,-4.4867,-4.1663,-3.9523,-3.9439,-3.9458,-3.9491,-3.9458,-3.9469,-3.9454,-3.9454,-3.9065,-3.8377,-3.7719,-3.709,-3.6462,-3.5804,-3.5519,-3.5504,-3.5504,-3.5504,-3.5391,-3.4404,-3.4012,-3.3857,0.0,0.0,0.0,0.0,0.0,0.0,0.0,0.0,0.0,0.0,0.0,0.0,0.0,0.0,0.0,0.0,2.5048,2.2759,1.9002,1.6584,1.3484,0.9481,0.6916,0.5519,0.5396,0.3781,0.2761,0.244,0.1735,0.0972,0.0166,-0.0115,-0.0597,-0.1245,-0.1533,-0.1734,-0.1824,-0.1806,-0.1791,-0.1887,-0.2466,-0.2607,-0.2233,-0.1081,-0.007,0.0472,0.0,-0.2065,-0.3047,-0.3724,-0.3206,-0.2505,-0.4243,-0.4793,-0.5274,-0.7541,-1.329,-1.9504,-2.2346,-2.5367,-2.853,-3.1835,-3.282,-3.2801,-3.2122,-3.2291,-3.2214,-3.0856,-2.9605,-2.8651,-2.8331,-2.9737,-3.1639,-3.3918,-3.7717,-4.0833,-4.2295,-4.2819,-4.3068,-4.2997,-4.268,0.0,0.0,0.0,0.0,-4.691,-4.7568,-4.8122,-4.8612,-4.8883,-4.8362,-4.6914,-4.4766,-4.2291,-3.9394,-3.9409,-3.9397,-3.9414,-3.9397,-3.9424,-3.9424,-3.9424,-3.902,-3.8357,-3.7674,-3.706,-3.6432,-3.5774,-3.5133,-3.4543,-3.5213,-3.4718,-3.3587,-3.3916,-3.3212,-3.2098,0.0,0.0,0.0,0.0,0.0,0.0,0.0,0.0,0.0,0.0,0.0,0.0,0.0,0.0,0.0,0.0,0.0,2.4136,2.1905,2.0668,1.8895,1.6298,1.4332,1.2891,1.195,0.9967,0.881,0.8496,0.7392,0.7039,0.739,0.54,0.4555,0.4663,0.4433,0.4259,0.4191,0.4341,0.3788,0.2729,0.3609,0.4227,0.4586,0.4987,0.562,0.0,0.5599,0.4413,0.2897,0.0892,-0.2111,-0.5104,-0.6109,-0.743,-0.95,-1.4014,-1.8361,-2.2281,-2.497,-2.7023,-2.8991,-3.1454,-3.1351,-3.0365,-2.9375,-2.9271,-2.893,-2.7588,-2.6235,-2.5296,-2.5363,-2.7629,-3.015,-3.2206,-3.7008,-4.0917,-4.2255,-4.28,-4.3366,-4.4296,-4.3906,-4.4094,0.0,0.0,0.0,-4.7352,-4.7767,-4.796,-4.8196,-4.8433,-4.7885,-4.6285,-4.4927,-4.2799,-3.9905,-3.9755,-3.9649,-3.9424,-3.9424,-3.9424,-3.9409,-3.8779,-3.8204,-3.7479,-3.6788,-3.5947,-3.5059,-3.489,-3.4283,-3.3533,-3.4185,-3.3696,-3.2644,-3.2901,-3.2236,-3.1164,0.0,0.0,0.0,0.0,0.0,0.0,0.0,0.0,0.0,0.0,0.0,0.0,0.0,0.0,0.0,0.0,0.0,0.0,2.3542,2.3397,2.3302,2.3103,2.113,1.9865,1.9447,1.6868,1.4883,1.3568,1.3616,1.3941,1.4414,1.1773,1.058,1.0771,1.1561,1.1941,1.1877,1.2169,1.0573,0.8046,1.0107,1.1024,1.1089,1.1971,1.2138,1.192,1.1031,1.028,0.9167,0.5782,-0.1919,-1.0078,-1.0332,-1.319,-1.7236,-2.1394,-2.1858,-2.2014,-2.6422,-2.8191,-2.9093,-3.0215,-2.9658,-2.8518,-2.7326,-2.6279,-2.5332,-2.4532,-2.3203,-2.243,0.0,0.0,-2.9682,-3.1422,-3.5744,-3.9628,-4.1859,-4.1579,-4.2195,0.0,0.0,0.0,0.0,0.0,0.0,-4.6735,0.0,-4.7537,-4.6861,-4.746,-4.7584,-4.6957,-4.5021,-4.2872,-4.0665,-4.0457,-4.0038,-3.9424,-3.9367,-3.9294,-3.9235,-3.7667,-3.6533,-3.5827,-3.5123,-3.3988,-3.2636,-3.3308,-3.3184,-3.255,-3.2632,-3.2602,-3.2346,-3.154,-3.1151,-3.1126,0.0,0.0,0.0,0.0,0.0,0.0,0.0,0.0,0.0,0.0,0.0,0.0,0.0,0.0,0.0,0.0,0.0,0.0,2.5134,2.4773,2.4499,2.4351,2.3761,2.325,2.2782,2.088,1.9467,1.8656,1.7311,1.6798,1.6942,1.5689,1.5118,1.5112,1.5249,1.5046,1.4542,1.4613,1.3994,1.3,1.3116,1.3496,1.4005,1.4248,1.4588,1.5019,1.5077,1.4966,1.3957,0.8495,-0.1649,-1.261,-1.6323,-1.901,-2.1007,-2.2123,-2.3404,-2.5152,-2.8351,-2.9134,-2.9045,-2.917,-2.7896,-2.6066,-2.3999,-2.2723,-2.1452,-1.9386,-1.7883,-1.7525,-1.9714,0.0,0.0,-3.2715,-3.8905,0.0,-4.4269,-4.4731,0.0,-4.6512,0.0,-4.5527,-4.6917,-4.6227,0.0,0.0,-4.6946,-4.7217,-4.7588,-4.7161,-4.6302,-4.4959,-4.33,-4.1503,-3.9755,-3.9651,-3.9589,-3.9424,-3.8626,-3.7973,-3.7572,-3.6354,-3.5258,-3.4234,-3.4024,-3.3451,-3.2695,-3.3528,-3.2933,-3.1675,-3.3093,-3.2368,-3.0594,-3.1048,-3.0739,-3.0175,0.0,0.0,0.0,0.0,0.0,0.0,0.0,0.0,0.0,0.0,0.0,0.0,0.0,0.0,0.0,0.0,0.0,0.0,0.0,2.5183,2.5116,2.5145,2.5274,2.527,2.511,2.365,2.2678,2.2214,2.1044,2.0406,2.0217,1.9456,1.9004,1.8784,1.8505,1.8345,1.8324,1.8436,1.8069,0.0,0.0,1.7375,1.7044,1.7527,1.7961,1.8328,1.8674,1.6238,1.1916,0.5198,-0.4431,-1.4726,-2.1404,-2.3538,-2.3755,-2.4644,-2.5708,-2.694,-2.859,-2.8745,-2.8165,-2.7255,-2.5211,-2.2938,-2.1129,-1.914,-1.7318,-1.594,-1.4559,-1.4557,-1.7517,-2.2996,-2.8209,0.0,0.0,0.0,-4.4425,-4.4524,-4.5195,0.0,-4.6323,0.0,-4.6997,-4.6499,-4.601,0.0,-4.6726,-4.7175,-4.6962,-4.6753,-4.5774,-4.3747,-4.2821,-4.1542,-3.9858,-3.9574,-3.9424,-3.9424,-3.8472,-3.7713,-3.6973,-3.5322,-3.4019,-3.2969,0.0,-3.1709,-3.1368,-3.1962,-3.1527,-3.0706,-3.1717,-3.1148,-2.9894,-3.0431,-3.0213,-2.9754,0.0,0.0,0.0,0.0,0.0,0.0,0.0,0.0,0.0,0.0,0.0,0.0,0.0,0.0,0.0,0.0,0.0,0.0,0.0,0.0,2.5153,2.5385,2.5828,2.6145,2.6325,2.5331,2.4707,2.4503,2.4217,2.3842,2.3406,2.2888,2.2478,2.2183,2.1697,2.1854,2.2523,2.2626,2.2085,2.1326,2.2193,2.1583,2.0299,0.0,2.165,2.1712,2.198,1.6332,0.7612,0.0198,-0.7945,-1.6467,-2.506,-2.664,-2.5685,-2.7523,-2.7835,-2.762,-2.7915,-2.7655,-2.6918,-2.5118,-2.2524,-2.0073,-1.8732,-1.5886,-1.346,-1.3347,-1.2389,-1.2573,-1.601,-2.1721,-2.7022,-3.0393,0.0,-4.1104,-4.3764,-4.3185,-4.381,-4.7303,-4.6667,-4.604,-4.6247,-4.6164,-4.561,-4.4372,-4.6261,-4.6954,-4.5773,-4.6195,-4.5293,-4.2789,-4.2489,-4.1641,-4.0127,-3.9442,-3.9113,-3.9113,-3.8273,-3.7447,-3.647,-3.4251,-3.2752,-3.1767,0.0,0.0,-3.0024,-2.9982,-2.9984,-2.9985,-2.9998,-2.9934,-2.9792,-2.9792,-2.9792,-2.9704,0.0,0.0,0.0,0.0,0.0,0.0,0.0,0.0,0.0,0.0,3.1687,3.0112,0.0,0.0,0.0,0.0,0.0,0.0,0.0,0.0,0.0,2.4355,2.4966,2.5321,2.5421,2.5371,2.5252,2.5053,2.4995,2.4848,2.4617,2.5204,2.5633,2.5871,2.5743,2.5667,2.5665,2.4867,2.4554,2.4529,2.4048,2.4072,2.4381,2.4558,0.0,0.0,2.5527,1.9858,1.0873,0.2984,-0.7107,-1.7652,-2.5188,-2.703,-2.6621,-2.7634,-2.7431,-2.693,-2.7275,-2.6898,-2.5959,-2.4066,-2.1983,-1.9726,-1.7168,-1.4145,-1.1567,-1.0397,-0.9721,-1.0506,-1.4528,-1.9783,-2.5742,-3.2601,-3.7364,-4.1513,-4.5328,-4.5464,-4.5792,0.0,-4.6211,-4.5258,-4.5478,-4.4467,0.0,0.0,0.0,0.0,-4.5696,-4.5123,-4.3651,-4.1205,-3.9833,-3.9058,-3.8736,-3.8102,-3.7723,-3.7723,-3.5966,-3.4771,-3.4126,-3.2042,-3.0802,-3.0214,0.0,0.0,-3.0961,-3.0987,-3.0974,-3.0961,-3.093,-3.0482,-2.9792,-2.9792,-2.9792,-2.9779,0.0,0.0,0.0,0.0,0.0,0.0,0.0,3.1167,3.0442,3.1648,3.0494,2.933,2.8671,2.8178,2.7754,0.0,0.0,0.0,0.0,0.0,0.0,0.0,0.0,0.0,2.5569,2.5391,2.5302,2.5369,0.0,2.5933,2.5842,2.623,2.6539,2.6726,2.6131,2.6066,2.6367,2.5801,2.5734,2.602,2.6108,2.6249,2.6433,0.0,0.0,0.0,2.7389,2.1749,1.3418,0.8254,0.0019,-1.0273,-2.3025,-2.6898,-2.6927,-2.7766,-2.7415,-2.6722,-2.6651,-2.5995,-2.4741,-2.2274,-1.956,-1.6842,-1.4296,-1.1455,-0.9071,-0.8136,-0.7937,-0.9314,-1.3784,-1.897,-2.454,-3.0479,-3.5552,-4.0111,-4.4078,-4.509,-4.6088,-4.783,-4.6706,-4.5472,0.0,-4.4067,0.0,0.0,0.0,0.0,-4.3927,-4.2723,-4.1496,-4.0323,-3.8742,-3.7859,-3.7893,-3.7565,-3.7416,-3.7401,-3.5554,-3.4297,-3.3581,-3.1714,-3.0535,-2.9792,0.0,0.0,-3.048,-3.0469,-3.0443,-3.048,-3.0469,-3.0024,-2.9377,-2.9679,-2.9603,-2.9302,0.0,0.0,0.0,0.0,0.0,0.0,0.0,3.0387,2.9597,3.0099,2.9725,2.9061,2.8151,2.7926,2.77,0.0,0.0,0.0,0.0,0.0,0.0,0.0,0.0,0.0,0.0,0.0,0.0,2.6054,2.6685,0.0,0.0,0.0,0.0,0.0,2.5991,2.5907,2.6631,2.611,2.6138,0.0,0.0,2.7526,0.0,0.0,0.0,0.0,0.0,2.3532,1.673,1.3474,0.7669,-0.0839,-1.5852,-2.0919,-2.1762,-2.4117,-2.43,-2.4014,-2.5386,-2.4794,-2.3151,-2.0473,-1.7093,-1.3927,-1.192,-0.9291,-0.709,-0.6308,-0.6754,-0.867,-1.314,-1.8101,-2.3119,-2.8077,-3.2938,-3.7728,-4.2434,-4.4633,-4.6302,-4.7851,-4.6922,0.0,-4.4214,-4.3767,0.0,0.0,0.0,0.0,-4.2286,-4.0778,-3.9822,-3.9633,-3.8004,-3.7216,-3.7243,-3.7082,-3.7,-3.7,-3.5299,-3.407,-3.3349,-3.1686,-3.0482,-2.9792,0.0,0.0,0.0,-2.9856,-2.9934,-3.0075,-2.9869,-2.9515,-2.9164,-2.9628,-2.9428,-2.8863,0.0,0.0,0.0,0.0,0.0,0.0,0.0,3.0829,3.0058,2.8935,3.0475,3.0307,2.6638,2.7177,2.7485,0.0,0.0,0.0,0.0,0.0,0.0,0.0,0.0,0.0,0.0,0.0,0.0,2.7865,2.7937,0.0,0.0,0.0,0.0,0.0,0.0,2.7084,2.7733,2.5957,0.0,0.0,0.0,0.0,0.0,0.0,0.0,0.0,0.0,2.6322,2.2281,1.6799,1.1821,0.6848,0.0808,-0.2222,-0.4953,-1.2043,-1.3924,-1.5327,-2.2662,-2.3102,-2.1025,-1.9075,-1.588,-1.2909,-1.171,-0.9278,-0.681,-0.4976,-0.6037,-0.8454,-1.2178,-1.6159,-2.1164,-2.8258,-3.0809,-3.4494,-4.2033,-4.5822,-4.7632,-4.7181,0.0,0.0,-4.3978,0.0,0.0,0.0,0.0,0.0,0.0,-4.0778,-3.9492,-3.8631,-3.7311,-3.6582,-3.6596,-3.5983,-3.5684,-3.5684,-3.3716,-3.2775,-3.2602,-3.0748,-2.9856,-2.9792,0.0,0.0,0.0,-3.0139,-3.0279,-3.097,-3.0139,-2.9767,-2.9716,-2.9779,-2.9428,-2.8925,0.0,0.0,0.0,0.0,0.0,0.0,3.1622,3.0303,2.9101,2.8591,2.9661,2.9671,2.7727,2.7777,2.758,2.6585,0.0,0.0,0.0,0.0,0.0,0.0,0.0,0.0,0.0,0.0,2.7268,2.8033,2.8483,0.0,0.0,0.0,0.0,0.0,0.0,0.0,2.7981,2.6722,0.0,0.0,0.0,0.0,0.0,0.0,0.0,0.0,0.0,0.0,2.4653,2.1261,1.9342,1.795,1.5416,1.4545,1.1379,-0.4257,-0.9681,-1.2053,-1.8776,-1.9294,-1.7792,-1.7078,-1.435,-1.1345,-0.9392,-0.7198,-0.5567,-0.5291,-0.8236,-1.1611,-1.3994,-1.7375,-2.1401,-2.619,-2.8829,-3.221,-3.7803,-4.1447,-4.3847,-4.4669,-4.4785,0.0,0.0,0.0,0.0,0.0,0.0,0.0,0.0,-3.9891,-3.8762,-3.7599,-3.694,-3.6338,-3.5893,-3.5639,-3.5504,-3.5504,-3.3547,-3.2814,-3.3115,-3.0814,-2.9792,-2.9792,0.0,0.0,0.0,-2.9921,-2.9998,-3.0355,-2.9934,-2.9578,-2.9264,-2.9277,-2.8863,-2.8386,0.0,0.0,0.0,0.0,0.0,3.1218,3.1088,2.9706,2.8439,2.7826,2.9112,2.9527,2.8158,2.8304,2.7966,2.6639,2.5243,0.0,0.0,0.0,0.0,0.0,0.0,0.0,0.0,0.0,2.7951,2.8714,2.914,2.9428,0.0,0.0,0.0,0.0,0.0,0.0,0.0,0.0,0.0,0.0,0.0,0.0,0.0,0.0,0.0,0.0,0.0,0.0,0.0,0.0,0.0,2.445,2.3828,2.3987,2.1068,0.3924,-0.1965,-0.4595,-1.2101,-1.3224,-1.2484,-1.336,-1.1715,-0.9409,-0.7526,-0.574,-0.4995,-0.6765,-1.0759,-1.4454,-1.6149,-1.8997,-2.203,-2.497,-2.7608,-3.0634,-3.4523,-3.7632,-4.0443,-4.2937,0.0,0.0,0.0,0.0,0.0,0.0,0.0,0.0,0.0,-3.9315,-3.8411,-3.7265,-3.6628,-3.6006,-3.5504,-3.5504,-3.5359,-3.5052,-3.3394,-3.2684,-3.2791,-3.057,-2.9628,0.0,0.0,0.0,0.0,-2.9363,-2.9276,-2.9289,-2.9303,-2.9063,-2.8674,-2.8686,-2.8298,-2.7773,0.0,0.0,0.0,0.0,0.0,0.0,2.9175,2.9221,2.8507,2.6305,2.9286,3.0379,2.7268,2.8398,2.8623,2.6764,2.5265,0.0,0.0,0.0,0.0,0.0,0.0,0.0,0.0,0.0,2.9121,3.0379,3.0117,3.0117,3.0379,3.0117,3.0207,0.0,0.0,0.0,0.0,0.0,0.0,0.0,0.0,0.0,0.0,0.0,0.0,0.0,0.0,0.0,0.0,0.0,0.0,0.0,0.0,2.3994,2.188,1.3563,1.1629,0.9657,-0.1978,-0.4543,-0.4593,-0.7483,-0.7751,-0.7186,-0.6713,-0.5462,-0.5507,-0.9524,-1.317,-1.627,-1.8202,-2.0399,-2.2759,-2.5377,-2.7314,-2.9755,-3.3307,-3.5733,-3.8613,0.0,0.0,0.0,0.0,0.0,0.0,0.0,0.0,0.0,0.0,-3.9315,-3.858,-3.7806,-3.6305,-3.5504,-3.5504,-3.5504,-3.4986,-3.4027,-3.3031,-3.2109,-3.1189,-2.9627,0.0,0.0,0.0,0.0,0.0,-2.8375,-2.8114,-2.8097,-2.8088,-2.8138,-2.8109,-2.8109,-2.7748,-2.7276,0.0,0.0,0.0,0.0,0.0,0.0,0.0,2.9146,2.8987,2.8106,3.061,3.1517,2.8968,2.8743,2.7911,2.5766,2.4941,0.0,0.0,0.0,0.0,0.0,0.0,0.0,0.0,0.0,2.9661,3.0398,3.0136,3.0028,3.0117,3.0028,3.008,3.0188,3.0151,0.0,0.0,0.0,0.0,0.0,0.0,0.0,0.0,0.0,0.0,0.0,0.0,0.0,0.0,0.0,0.0,0.0,0.0,0.0,0.0,1.6833,1.4762,1.2058,0.3961,0.0847,-0.0666,-0.3028,-0.5211,-0.703,-0.7858,-0.8273,-0.9743,-1.4084,-1.6459,-1.8647,-2.1547,-2.3508,-2.5659,-2.8598,-2.9525,-3.1079,0.0,0.0,0.0,-4.1089,-4.1761,0.0,0.0,0.0,0.0,0.0,0.0,0.0,0.0,0.0,-3.7971,-3.6285,-3.6213,-3.6006,-3.5504,-3.5504,-3.5359,-3.4986,-3.3394,-3.2217,-3.1496,-2.9683,0.0,0.0,0.0,0.0,0.0,-2.8197,-2.8099,-2.8084,-2.8062,-2.8126,-2.8034,-2.7716,-2.7448,-2.7155,0.0,0.0,0.0,0.0,0.0,0.0,0.0,2.8842,2.9268,2.9185,3.1426,3.2333,3.0428,2.9133,2.7709,2.5986,2.4822,0.0,0.0,0.0,0.0,0.0,0.0,0.0,2.9307,2.9568,2.9927,3.0398,3.0136,3.0214,3.0628,3.0242,3.0295,3.0713,3.0595,3.054,0.0,0.0,0.0,0.0,0.0,0.0,2.5073,0.0,0.0,0.0,0.0,0.0,0.0,0.0,0.0,0.0,0.0,0.0,0.0,0.0,1.4054,1.1808,0.8926,0.9081,0.8382,0.1332,-0.3491,-0.7069,-0.9099,-1.0502,-1.269,-1.734,-1.9295,-2.1173,-2.441,-2.5948,-2.7443,-2.9712,-3.0294,-3.159,0.0,0.0,0.0,-4.0531,0.0,0.0,0.0,0.0,0.0,0.0,0.0,0.0,0.0,0.0,-3.6381,-3.5043,-3.5444,-3.5381,-3.4741,-3.4756,-3.4392,-3.3696,-3.2483,-3.136,-3.0312,0.0,0.0,0.0,0.0,0.0,0.0,-2.7603,-2.7494,-2.7469,-2.7473,-2.7498,-2.749,-2.7145,-2.6764,-2.6299,0.0,0.0,0.0,0.0,0.0,0.0,0.0,2.8335,2.9431,2.9723,3.192,3.2939,3.1484,2.9568,2.7979,2.6977,0.0,0.0,0.0,0.0,0.0,0.0,0.0,0.0,2.9736,2.9754,3.001,3.0559,3.0303,3.0694,3.1715,3.0795,3.0918,3.1885,3.1053,3.0683,0.0,0.0,0.0,0.0,0.0,0.0,0.0,0.0,0.0,0.0,0.0,0.0,0.0,0.0,0.0,0.0,0.0,0.0,0.0,0.0,0.0,0.0,0.0,1.742,1.9184,0.4846,-0.303,-0.805,-1.1024,-1.2669,0.0,-1.9576,-2.1815,-2.3864,-2.6896,-2.7809,-2.8427,-2.9416,-3.0239,-3.1763,0.0,-3.6434,0.0,0.0,0.0,0.0,0.0,0.0,0.0,0.0,0.0,0.0,0.0,0.0,0.0,-3.3889,-3.3923,-3.3796,-3.3499,-3.3378,-3.2572,-3.0999,-3.0798,-2.9837,-2.8238,0.0,0.0,0.0,0.0,0.0,0.0,-2.6615,-2.6352,-2.6352,-2.6364,-2.6352,-2.6352,-2.6296,-2.5703,-2.4891,0.0,0.0,0.0,0.0,0.0,0.0,0.0,0.0,0.0,0.0,3.3525,3.4017,3.1033,2.984,2.8347,0.0,0.0,0.0,0.0,0.0,0.0,0.0,0.0,0.0,3.035,3.0389,3.0922,3.2004,3.1801,3.1813,3.2084,3.2038,3.2077,3.211,3.1656,3.1108,0.0,0.0,0.0,0.0,0.0,0.0,0.0,0.0,0.0,0.0,0.9769,1.1073,0.0,0.0,0.0,0.0,0.0,0.0,0.0,0.0,0.4713,0.2304,0.2149,0.0,0.7542,0.1407,-0.7952,-1.618,0.0,-1.8749,-1.9637,-2.235,-2.4692,-2.701,-2.9433,-2.9968,-3.075,-3.2901,-3.368,-3.4879,-3.7432,0.0,0.0,0.0,0.0,0.0,0.0,0.0,0.0,0.0,0.0,0.0,0.0,0.0,0.0,-3.0737,-3.1099,-3.2078,-3.3484,-3.2306,-3.2105,-3.2819,-3.0798,-2.9896,-3.0075,0.0,0.0,0.0,0.0,0.0,-2.5954,-2.5428,-2.5215,-2.5222,-2.5174,-2.5215,-2.5103,-2.4486,-2.4058,-2.3665,0.0,0.0,0.0,0.0,0.0,0.0,0.0,0.0,0.0,0.0,0.0,0.0,0.0,0.0,0.0,0.0,0.0,0.0,0.0,0.0,0.0,0.0,0.0,2.9472,3.0583,3.0956,3.1579,3.2496,3.0595,2.9945,3.0425,2.8872,2.8935,3.0367,3.1185,3.1384,0.0,0.0,0.0,0.0,2.7707,0.0,0.0,0.0,0.0,0.0,0.4232,0.5461,0.0,0.9596,1.0343,1.0392,0.0,0.0,0.0,0.0,0.0,-0.3764,-0.6375,-0.5554,-0.4113,-0.4821,-1.3219,-2.1364,-2.1524,-2.2143,-2.334,-2.5655,-2.7328,-2.8846,-3.0411,-3.1287,-3.2357,-3.416,-3.5437,0.0,0.0,0.0,0.0,0.0,0.0,0.0,0.0,0.0,0.0,0.0,0.0,0.0,0.0,0.0,-3.143,0.0,-2.9855,-3.0413,-3.1689,-3.0499,-3.0172,-3.0609,-2.877,-2.7948,-2.8,0.0,0.0,0.0,0.0,0.0,-2.519,-2.4931,-2.4793,-2.481,-2.4766,-2.4781,-2.4682,-2.379,-2.3187,-2.2616,0.0,0.0,0.0,0.0,0.0,0.0,0.0,0.0,0.0,0.0,0.0,0.0,0.0,0.0,0.0,0.0,0.0,0.0,0.0,0.0,0.0,0.0,2.9864,3.0039,3.0646,3.1228,3.1759,3.226,2.9099,2.7472,2.7275,2.3993,2.4468,2.8184,3.0521,3.163,0.0,0.0,0.0,0.0,2.8492,0.0,0.0,0.0,0.0,0.0,0.0,0.0,0.0,0.5263,0.677,0.7041,0.646,0.0,0.0,0.0,0.0,0.0,-1.2848,-1.4761,-1.5065,-1.2836,-1.879,-2.4856,-2.3454,-2.4417,-2.6255,-2.8574,-2.9389,-2.9968,-3.093,-3.2166,-3.3429,-3.4607,0.0,0.0,0.0,0.0,0.0,0.0,0.0,0.0,0.0,0.0,0.0,0.0,0.0,0.0,0.0,0.0,0.0,-2.9913,-2.9164,-2.8749,-2.8896,-2.8303,-2.7754,-2.7371,-2.6363,-2.5597,-2.5,-2.4796,0.0,0.0,0.0,0.0,-2.4671,-2.4582,-2.4507,-2.4545,-2.4557,-2.4443,-2.428,-2.34,-2.2442,-2.1481,0.0,0.0,0.0,0.0,0.0,0.0,0.0,0.0,0.0,0.0,0.0,0.0,0.0,0.0,0.0,0.0,0.0,0.0,0.0,0.0,0.0,3.1902,3.0949,3.0631,3.1017,3.0486,3.048,3.1144,3.134,2.8393,2.253,2.1101,2.3131,2.8146,3.0987,3.1989,3.1603,0.0,0.0,0.0,0.0,0.0,0.0,0.0,0.0,0.0,0.0,0.0,0.0,0.1011,0.346,0.5099,0.4879,0.0,0.0,0.0,0.0,0.0,-1.393,-1.9104,-2.3465,-2.2059,-2.4831,-2.7659,-2.6756,-2.7461,-2.8474,-2.9123,-2.9927,-3.0993,-3.2609,-3.3085,-3.3984,0.0,0.0,0.0,0.0,0.0,0.0,0.0,0.0,0.0,0.0,0.0,0.0,0.0,0.0,0.0,0.0,0.0,0.0,-2.7015,-2.7527,-2.7136,-2.5689,-2.5966,-2.6818,-2.8168,-2.6056,-2.5294,-2.5883,-2.4695,-2.4381,0.0,0.0,-2.3653,-2.4104,-2.3577,-2.3376,-2.3351,-2.3376,-2.2924,-2.2267,-2.1394,-2.0489,-1.9575,0.0,0.0,0.0,0.0,0.0,0.0,0.0,0.0,0.0,0.0,0.0,0.0,0.0,0.0,0.0,0.0,0.0,0.0,0.0,0.0,3.3925,3.3154,3.1273,2.9839,2.9007,2.7829,2.5648,2.2462,2.0904,1.8032,1.408,1.77,2.1677,2.5896,2.9811,3.2,3.2844,3.3546,3.2959,3.1388,0.0,0.0,0.0,0.0,0.0,0.0,0.0,0.0,0.0,0.0,0.1243,0.3406,0.3743,0.0,0.0,0.0,0.0,0.0,-1.4138,-1.9538,-2.4513,-2.4984,-2.8253,-3.1283,-3.0887,-3.1216,-3.1536,-3.1341,-3.1358,-3.1796,-3.3077,0.0,-3.6551,-4.0192,0.0,0.0,0.0,0.0,0.0,0.0,0.0,0.0,0.0,0.0,0.0,0.0,0.0,0.0,0.0,0.0,0.0,0.0,-2.6909,-2.6273,-2.5005,-2.4693,-2.4778,-2.5259,-2.3729,-2.3251,-2.3625,-2.2926,-2.2786,-2.2987,0.0,-2.2573,-2.305,-2.2485,-2.2598,-2.304,-2.2236,-2.1753,-2.1353,-1.9772,-1.8786,-1.8243,0.0,0.0,0.0,0.0,0.0,0.0,0.0,0.0,0.0,0.0,0.0,0.0,0.0,0.0,0.0,0.0,0.0,0.0,0.0,0.0,3.4814,3.3308,3.0487,2.8264,2.6766,2.466,2.0221,1.3388,0.977,0.8214,0.8765,1.4709,1.9665,2.374,2.8387,3.1571,3.3474,3.4204,3.3527,3.1881,0.0,0.0,0.0,0.0,0.0,0.0,0.0,0.0,0.0,0.0,0.0,0.0,0.0,0.0,0.0,-0.2684,-0.6721,-1.1155,-1.406,-1.8976,-2.3768,-2.5887,-2.965,-3.3026,-3.3731,-3.369,-3.3566,-3.3728,-3.3281,-3.3013,-3.3503,-3.5504,0.0,-4.2052,0.0,0.0,0.0,0.0,0.0,0.0,0.0,0.0,0.0,0.0,0.0,0.0,0.0,0.0,0.0,0.0,0.0,0.0,-2.5605,-2.4682,-2.3554,-2.2783,-2.2573,-2.2844,-2.1911,-2.1493,-2.1493,-2.1493,-2.1493,-2.1493,-2.1493,-2.1732,-2.2083,-2.1487,-2.1741,-2.233,-2.1105,-2.0532,-2.0257,-1.836,-1.7493,-1.7239,0.0,0.0,0.0,0.0,0.0,0.0,0.0,0.0,0.0,0.0,0.0,0.0,0.0,0.0,0.0,0.0,0.0,0.0,0.0,0.0,3.4334,3.1682,2.8051,2.5877,2.5357,2.1499,1.5678,0.7784,0.4276,0.5715,1.1787,1.2818,1.6708,2.2962,2.742,3.0395,3.2155,3.3794,3.3237,3.1203,3.0356,0.0,0.0,0.0,0.0,0.0,0.0,0.0,0.0,0.0,0.0,0.0,0.0,0.0,-0.117,-0.2837,-0.6713,-1.1136,-1.4036,-1.8682,-2.345,-2.639,-2.8536,-3.0644,-3.3523,-3.3212,-3.3028,-3.5553,-3.5736,-3.5243,-3.4616,-3.5882,-3.7386,-3.8518,0.0,0.0,0.0,0.0,0.0,0.0,0.0,0.0,0.0,0.0,0.0,0.0,0.0,0.0,0.0,0.0,0.0,0.0,0.0,-2.1107,-1.9178,-1.9092,-2.0535,-2.3485,-2.2172,-2.1493,-2.1493,-2.1493,-2.1493,-2.1493,-2.1493,-2.1506,-2.1487,-2.0803,-2.0529,-2.0543,-1.9725,-1.8939,-1.812,-1.7125,-1.6773,-1.6617,0.0,0.0,0.0,0.0,0.0,0.0,0.0,0.0,0.0,0.0,0.0,0.0,0.0,0.0,0.0,0.0,0.0,0.0,0.0,3.4948,3.3911,3.1849,2.783,2.4557,2.2343,1.5134,0.693,-0.2198,-0.1348,0.2452,0.9124,1.3858,1.8725,2.3566,2.7908,3.0942,3.2493,2.6384,2.6986,3.1942,3.1009,2.9454,0.0,0.0,0.0,0.0,0.0,0.0,0.0,0.0,-0.521,-0.2233,-0.127,-0.1615,-0.2865,-0.5255,-0.8669,-1.2163,-1.4484,-1.9446,-2.4324,-2.5836,-2.8057,-3.0818,-3.4228,-3.5165,-3.5495,-3.6153,-3.6849,-3.7091,-3.6346,0.0,-4.0014,0.0,0.0,0.0,0.0,0.0,0.0,0.0,0.0,0.0,0.0,0.0,0.0,0.0,0.0,0.0,0.0,0.0,0.0,0.0,0.0,-2.0723,-1.9512,-1.948,-1.9908,-2.0792,-1.986,-1.9447,-1.9447,-1.9447,-1.9447,-1.9472,-1.9811,-1.9862,-1.977,-1.9485,-1.9477,-1.9632,-1.8541,-1.7603,-1.6698,-1.5586,-1.5318,-1.5477,0.0,0.0,0.0,0.0,0.0,0.0,0.0,0.0,0.0,0.0,0.0,0.0,0.0,0.0,0.0,0.0,0.0,0.0,3.4537,3.4029,3.2995,3.1402,2.7422,2.3514,1.9785,1.2476,0.4139,-0.5149,-0.2625,0.2685,1.0571,1.4904,1.9214,2.3191,2.3298,2.4982,2.7095,1.6892,1.6733,2.3418,2.4188,2.4783,0.0,0.0,0.0,0.0,0.0,0.0,0.0,0.0,-0.7069,-0.4527,-0.377,-0.3604,-0.4294,-0.7605,-1.0582,-1.3191,-1.499,-1.9612,-2.4442,-2.663,-2.8514,-3.0794,-3.4511,-3.5908,-3.6685,-3.7526,-3.7577,-3.7422,-3.7264,0.0,0.0,0.0,0.0,0.0,0.0,0.0,0.0,0.0,0.0,0.0,0.0,0.0,0.0,0.0,0.0,0.0,0.0,0.0,0.0,0.0,0.0,0.0,-1.9388,-1.9364,-1.8995,-1.8278,-1.788,-1.7852,-1.8204,-1.8204,-1.8204,-1.8229,-1.8399,-1.8397,-1.8239,-1.7919,-1.7946,-1.7975,-1.6811,-1.6059,-1.5381,-1.4207,-1.4004,-1.4162,0.0,0.0,0.0,0.0,0.0,0.0,0.0,0.0,0.0,0.0,0.0,0.0,0.0,0.0,0.0,0.0,0.0,0.0,3.3407,3.2611,3.151,2.9955,2.6562,2.265,1.8196,1.4794,0.9089,0.0912,0.1358,0.7102,1.7719,1.5584,1.713,2.139,1.2628,1.106,1.4485,0.5821,0.2615,0.3784,0.8321,1.2481,1.5969,0.0,0.0,0.0,0.0,0.0,0.0,0.0,-0.922,-0.7495,-0.6744,-0.5575,-0.5307,-0.9481,-1.2143,-1.4046,-1.5536,-1.9046,-2.3651,-2.9184,-2.9901,-3.023,-3.4099,-3.4904,-3.5946,-3.9958,-3.8082,-3.6041,-3.7088,-3.5732,0.0,0.0,0.0,0.0,0.0,0.0,0.0,0.0,0.0,0.0,0.0,0.0,0.0,0.0,0.0,0.0,0.0,0.0,0.0,0.0,0.0,0.0,-1.8106,-1.8106,-1.7544,-1.6522,-1.6522,-1.7112,-1.8191,-1.8191,-1.8191,-1.8144,-1.7569,-1.7266,-1.7205,-1.6262,-1.5655,-1.5274,-1.4501,-1.4204,-1.4067,-1.3305,-1.2967,-1.2878,0.0,0.0,0.0,0.0,0.0,0.0,0.0,0.0,0.0,0.0,0.0,0.0,0.0,0.0,0.0,0.0,0.0,0.0,3.2758,3.1697,3.0659,2.9733,2.688,2.51,2.4558,2.1123,1.5966,0.9092,1.1917,1.4361,1.6357,1.8206,1.7695,1.4954,1.0316,0.4281,-0.2867,-0.8232,-0.844,-0.5306,-0.7154,-0.2526,0.5228,0.0,0.0,0.0,0.0,0.0,0.0,0.0,0.0,0.0,-0.825,-0.8677,-0.9843,-1.2184,-1.4383,-1.6279,-1.7499,-2.1057,-2.489,-2.6585,-2.9283,-3.1917,-3.3404,-3.4699,-3.6236,-3.8568,-3.7754,-3.6543,-3.6345,0.0,0.0,0.0,0.0,0.0,0.0,0.0,0.0,0.0,0.0,0.0,0.0,0.0,0.0,0.0,0.0,0.0,0.0,0.0,0.0,0.0,0.0,0.0,-1.8106,-1.8106,-1.7544,-1.6522,-1.6522,-1.6697,-1.7011,-1.7011,-1.6777,-1.6372,-1.6596,-1.6111,-1.523,-1.4799,-1.4321,-1.3784,-1.3541,-1.3305,-1.2941,-1.2124,-1.1791,-1.1699,0.0,0.0,0.0,0.0,0.0,0.0,0.0,0.0,0.0,0.0,3.0366,3.1808,0.0,0.0,0.0,0.0,0.0,0.0,0.0,2.9547,2.9004,2.9391,2.7995,2.7554,2.8353,2.5493,2.2063,1.8104,1.8251,1.7567,1.6175,1.6608,1.4492,0.9902,0.2677,-0.4495,-1.1654,-1.8452,-1.9329,-1.6345,-1.8946,-1.3649,-0.468,0.0,0.0,0.0,0.0,0.0,0.0,0.0,0.0,0.0,-1.0717,-1.1274,-1.2391,-1.4598,-1.6867,-1.8846,-1.9521,-2.2647,-2.6059,-2.7334,-3.0127,-3.2757,-3.3578,-3.4867,-3.6368,-3.7967,-3.6793,-3.5588,-3.5877,-3.5836,0.0,0.0,0.0,0.0,0.0,0.0,0.0,0.0,0.0,0.0,0.0,0.0,0.0,0.0,0.0,0.0,0.0,0.0,0.0,0.0,0.0,0.0,-1.8106,-1.7907,-1.7234,-1.6195,-1.6411,-1.6337,-1.607,-1.612,-1.5952,-1.5599,-1.5453,-1.4854,-1.3993,-1.3603,-1.3336,-1.3013,-1.2475,-1.2101,-1.1807,-1.0965,-1.0671,-1.0552,0.0,0.0,0.0,0.0,0.0,0.0,0.0,0.0,0.0,0.0,2.5786,2.8262,0.0,0.0,0.0,0.0,0.0,0.0,0.0,2.5407,2.5994,2.7902,2.9175,2.9885,2.9968,2.8118,2.7,2.6619,2.1325,1.805,1.667,1.2078,0.851,0.5345,-0.8532,-1.4471,-1.4738,-2.5242,-2.8793,-2.7358,-2.7035,-2.1578,-1.4214,-1.931,0.0,0.0,0.0,0.0,0.0,0.0,0.0,0.0,-1.37,-1.3486,-1.3672,-1.6556,-1.9212,-2.1193,-2.134,-2.3759,-2.6918,-2.9989,-3.169,-3.296,-3.4307,-3.5101,-3.5989,-3.7511,0.0,-3.3721,-3.5427,0.0,0.0,0.0,0.0,0.0,0.0,0.0,0.0,0.0,0.0,0.0,0.0,0.0,0.0,0.0,0.0,0.0,0.0,0.0,0.0,0.0,0.0,0.0,-1.8027,-1.7504,-1.6697,0.0,-1.6145,-1.6009,-1.5326,-1.5509,-1.5511,-1.5353,-1.4157,-1.3527,-1.3295,-1.2599,-1.252,-1.2668,-1.1293,-1.0797,-1.0639,-0.9843,-0.9564,-0.9451,0.0,0.0,0.0,0.0,0.0,0.0,0.0,0.0,0.0,0.0,0.0,0.0,0.0,0.0,0.0,0.0,0.0,0.0,0.0,1.4092,1.8406,1.9476,2.732,3.1034,2.9719,2.8846,2.8155,2.7587,2.3844,2.015,1.6472,0.8588,0.2213,-0.3212,-1.6935,-2.2702,-2.2479,-2.8029,-2.9799,-2.882,-2.845,-2.7216,-2.5529,-2.4822,-2.304,0.0,0.0,0.0,0.0,0.0,0.0,0.0,-1.5369,-1.5544,-1.6406,-1.7282,-1.8794,-2.0486,-2.1786,-2.3793,-2.6124,-2.876,-3.0994,-3.2916,-3.4412,-3.3812,-3.3166,-3.403,-3.367,-3.3317,0.0,0.0,0.0,0.0,0.0,0.0,0.0,0.0,0.0,0.0,0.0,0.0,0.0,0.0,0.0,0.0,0.0,0.0,0.0,0.0,0.0,0.0,0.0,-1.8458,-1.7463,-1.6943,-1.6162,0.0,-1.548,-1.5311,-1.4696,-1.5145,-1.4949,-1.4103,-1.2809,-1.2209,-1.2104,-1.1444,-1.0912,-1.0501,-1.015,-0.9828,-0.9475,-0.8782,-0.8546,-0.8403,0.0,0.0,0.0,0.0,0.0,0.0,0.0,0.0,0.0,0.0,0.0,0.0,0.0,0.0,0.0,0.0,0.0,0.0,0.0,0.0,1.0893,1.6415,2.404,2.8368,2.8918,2.8604,2.8146,2.7614,2.1649,1.7049,1.364,0.6346,-0.1266,-0.9097,-1.8515,-2.3321,-2.4564,-2.767,-2.8974,-2.8931,-2.8533,-2.8819,-2.9299,-2.7414,-2.6345,-2.5663,-2.4322,0.0,0.0,0.0,0.0,0.0,0.0,0.0,-1.8229,-1.7962,-1.828,-1.9209,-2.1549,-2.3763,-2.6147,-2.9081,-3.0871,-3.2157,-3.2939,-3.2618,-3.2166,-3.2231,-3.2096,0.0,0.0,0.0,0.0,0.0,0.0,0.0,0.0,0.0,0.0,0.0,0.0,0.0,0.0,0.0,0.0,0.0,0.0,0.0,0.0,0.0,0.0,0.0,-1.7894,-1.7372,-1.652,-1.5997,-1.5361,-1.467,-1.4173,-1.3568,-1.2914,-1.4172,-1.4046,-1.2792,-1.2076,-1.163,-1.125,-1.0586,-1.0105,-0.9739,-0.9061,-0.8678,-0.8402,-0.7706,-0.7422,-0.7325,0.0,0.0,0.0,0.0,0.0,0.0,0.0,0.0,0.0,0.0,0.0,0.0,0.0,0.0,0.0,0.0,0.0,0.0,0.0,0.0,0.0,1.5502,2.0262,2.41,2.7147,2.7426,2.6609,2.4683,1.7242,1.1225,0.665,0.2182,-0.4768,-1.3739,-1.8449,-2.2001,-2.467,-2.6824,-2.8085,-2.8625,-2.8394,-2.8886,-2.9631,-2.854,-2.7911,-2.7505,-2.6637,-2.5579,-2.4557,-2.4318,0.0,0.0,0.0,0.0,-1.9666,-1.8467,-1.7932,-1.8257,-2.0781,-2.3538,-2.6487,-2.953,-3.0695,-3.1097,-3.1109,-3.1567,-3.1826,-3.1331,0.0,0.0,0.0,0.0,0.0,0.0,0.0,0.0,0.0,0.0,0.0,0.0,0.0,0.0,0.0,0.0,0.0,0.0,0.0,0.0,0.0,0.0,-1.8252,-1.7184,-1.6713,-1.6202,-1.5559,-1.5031,-1.4537,-1.4148,-1.2691,-1.1653,-1.0969,-1.2661,-1.2741,-1.1639,-1.1373,-1.1032,-1.0487,-0.9835,-0.9585,-0.9511,-0.8215,-0.7676,-0.7587,-0.6712,-0.6435,-0.6303,0.0,0.0,0.0,0.0,0.0,0.0,0.0,0.0,0.0,0.0,-2.5238,-2.6714,0.0,0.0,0.0,0.0,0.0,0.0,-2.3285,0.0,0.0,1.3661,1.7029,2.0039,2.3183,2.4898,2.1925,1.4139,1.2362,0.4318,-0.9467,-0.9479,-1.254,-1.8208,-2.2646,-2.5213,-2.642,-2.8858,-2.9499,-2.8901,-2.9303,-2.9674,-2.9888,-2.9201,-2.8767,-2.8541,-2.8755,-2.8181,-2.7337,-2.7198,-2.6818,0.0,0.0,0.0,-2.0939,-1.854,-1.8344,-1.8988,-1.9492,-2.29,-2.6643,-2.8174,-2.9455,-3.0353,-3.035,0.0,-3.1052,0.0,0.0,0.0,0.0,0.0,0.0,0.0,0.0,0.0,0.0,0.0,0.0,0.0,0.0,0.0,0.0,0.0,0.0,0.0,0.0,0.0,0.0,-1.8458,-1.7712,-1.6663,-1.6519,-1.6023,-1.5031,-1.4475,-1.3989,-1.3489,-1.1506,-1.0445,-1.0255,-1.0498,-1.0737,-1.0874,-0.9758,-0.938,-0.9539,-0.8871,-0.8718,-0.885,-0.8051,-0.7683,-0.7516,-0.617,-0.5661,-0.555,0.0,0.0,0.0,0.0,0.0,0.0,0.0,0.0,0.0,0.0,0.0,-2.9583,0.0,0.0,0.0,-3.1299,-2.9941,-2.7316,-2.3094,-1.5277,-0.6292,0.3937,0.867,1.3295,1.8204,2.153,1.9497,1.188,0.7144,-0.144,-1.3551,-1.866,-2.1268,-2.1736,-2.4099,-2.5564,-2.6295,-2.7803,-2.8543,-2.8713,-2.9139,-2.9638,-3.0066,-2.9641,-2.9548,-2.9625,-2.979,-2.9591,-2.9236,-2.9254,-2.9052,-2.8387,-2.6097,0.0,0.0,0.0,-1.8748,-1.8733,-2.0386,-2.2843,-2.5377,-2.7158,-2.8338,-2.9057,-2.8935,-2.996,-3.0829,0.0,0.0,0.0,0.0,0.0,0.0,0.0,0.0,0.0,0.0,0.0,0.0,0.0,0.0,0.0,0.0,0.0,0.0,0.0,0.0,0.0,-1.7609,-1.7326,-1.6558,-1.5195,-1.5158,0.0,-1.3961,-1.3446,-1.2864,-1.2206,-1.0518,-0.9661,-0.9573,-0.908,-0.9201,-0.9681,-0.9129,-0.8749,-0.8531,-0.7893,-0.7776,-0.7877,-0.6768,-0.6416,-0.6361,-0.5305,-0.4919,-0.4916,0.0,0.0,0.0,0.0,0.0,0.0,0.0,0.0,0.0,0.0,0.0,0.0,0.0,0.0,0.0,0.0,-2.9426,-2.6042,-2.0807,-1.7076,-1.1898,-0.4854,0.0735,0.635,1.1979,1.7159,1.543,0.6336,0.1802,-0.6291,-1.7688,-2.5141,-2.737,-2.5116,-2.572,-2.5963,-2.6043,-2.7169,-2.7908,-2.8396,-2.9049,-2.9779,-3.0474,-3.0353,-3.0604,-3.0998,-3.0802,-3.0721,-3.0697,-3.0582,-3.0435,-2.9907,-2.7668,-2.6034,0.0,0.0,0.0,-1.8548,-2.0892,-2.2237,-2.3498,-2.5477,-2.6753,-2.7549,0.0,0.0,-3.0358,0.0,0.0,0.0,0.0,0.0,0.0,0.0,0.0,0.0,0.0,0.0,0.0,0.0,0.0,0.0,0.0,0.0,0.0,0.0,0.0,0.0,-1.6571,-1.6245,-1.5415,-1.3927,-1.3915,-1.3545,-1.2838,-1.2413,-1.1777,-1.0903,-0.9935,-0.9193,-0.8626,-0.8047,-0.7919,-0.8098,-0.8197,-0.799,-0.7516,-0.695,-0.6866,-0.69,-0.572,-0.5354,-0.5391,-0.4666,-0.446,-0.4519,0.0,0.0,0.0,0.0,0.0,0.0,0.0,0.0,0.0,0.0,0.0,0.0,-3.0475,-3.1707,-3.2159,-3.1462,-2.9856,-2.6777,-2.1958,-1.7426,-1.2969,-0.8658,-0.4104,0.0,0.4012,1.1489,0.7553,-0.8289,-0.3627,-1.0098,-2.6913,-2.7925,-2.85,-2.864,-2.8613,-2.77,-2.6313,-2.846,-2.8798,-2.8054,-2.9543,-3.0575,-3.1284,-3.1587,-3.2215,-3.2851,-3.2153,-3.1864,-3.1699,-3.0945,-3.0634,-3.0268,-2.8486,-2.7263,-2.5929,0.0,0.0,0.0,-1.9981,-2.0565,-2.1174,-2.2506,-2.4229,-2.59,0.0,0.0,0.0,0.0,0.0,0.0,0.0,0.0,0.0,0.0,0.0,0.0,0.0,0.0,0.0,0.0,0.0,0.0,0.0,0.0,0.0,0.0,0.0,0.0,-1.648,-1.5531,-1.4486,-1.338,-1.3331,-1.2857,-1.1884,-1.1522,-1.084,-0.9892,-1.015,-0.9134,-0.7124,-0.7396,-0.6899,-0.5882,-0.6187,-0.6465,-0.6617,-0.6027,-0.5983,-0.616,-0.5426,-0.5194,-0.5225,-0.4498,-0.4346,-0.4519,0.0,0.0,0.0,0.0,0.0,0.0,0.0,0.0,0.0,0.0,0.0,0.0,0.0,-3.0951,-3.1028,-2.9906,-2.6901,-2.3673,-2.0336,-1.7272,-1.4086,-1.0741,-0.7667,-0.4958,-0.2656,0.2329,-0.0143,-1.0306,-0.9019,-1.3832,-2.4316,-2.6571,-2.7529,-2.7424,-2.8458,-2.8322,-2.7359,-2.8606,-2.9169,-2.9333,-3.0276,-3.1238,-3.2179,-3.2471,-3.2839,-3.3183,-3.2879,0.0,-3.2729,-3.2318,-3.1821,-3.1158,-2.9977,-2.8603,-2.6833,-2.3732,-2.2351,-2.1801,-2.1653,-2.1933,-2.2536,-2.3416,-2.4198,-2.5053,-2.6256,-2.7381,0.0,0.0,0.0,0.0,0.0,0.0,0.0,0.0,0.0,0.0,0.0,0.0,0.0,0.0,0.0,0.0,0.0,0.0,0.0,0.0,0.0,0.0,-1.4511,-1.3801,-1.3103,-1.2341,-1.2361,-1.1867,-1.0925,-1.0236,-0.9586,-0.9031,-0.8168,-0.7017,-0.5723,-0.5786,-0.5613,-0.5162,-0.5009,-0.5261,-0.573,-0.5096,-0.5084,-0.5363,-0.4614,-0.4385,-0.444,-0.4385,-0.3799,-0.3026,0.0,0.0,0.0,0.0,0.0,0.0,0.0,0.0,0.0,-2.7745,0.0,0.0,0.0,0.0,-3.0586,-2.8529,-2.4791,-2.1723,-1.9771,-1.7366,-1.5016,-1.2946,-1.1149,-0.9871,-0.9264,-0.564,-0.706,-1.3829,-1.3418,-1.6516,-2.2921,-2.5298,-2.6313,-2.6213,-2.7218,-2.7548,-2.7377,-2.8019,-2.884,-2.9751,-3.0262,-3.1604,-3.3345,-3.3724,-3.4148,-3.4496,0.0,0.0,-3.3629,-3.3055,-3.2323,-3.146,-3.0494,-2.8848,-2.6812,-2.4294,-2.3605,-2.3469,-2.2685,-2.2728,-2.3069,-2.351,-2.3816,-2.4291,-2.5279,0.0,0.0,0.0,0.0,0.0,0.0,0.0,0.0,0.0,0.0,0.0,0.0,0.0,0.0,0.0,0.0,0.0,0.0,0.0,0.0,0.0,0.0,0.0,-1.3366,-1.2679,-1.2002,-1.1358,-1.1025,-1.0493,-0.9741,-0.9015,-0.8392,-0.7876,-0.6785,-0.5737,-0.4859,-0.4578,-0.4453,-0.4461,-0.417,-0.4423,-0.4957,-0.4372,-0.428,-0.4451,-0.3556,-0.32,-0.3323,-0.3955,-0.369,-0.2815,0.0,0.0,0.0,0.0,0.0,0.0,0.0,0.0,-3.0319,-2.7985,0.0,0.0,0.0,0.0,0.0,-2.7534,-2.3844,-2.1397,-2.0666,-1.7688,-1.5785,-1.5414,-1.4716,-1.4743,-1.5722,-1.1959,-1.3263,-1.9915,-1.6795,-1.8213,-2.3803,-2.4457,-2.4985,-2.5402,-2.5083,-2.5379,-2.6177,-2.6801,-2.7857,-2.914,-2.9491,-3.1688,-3.4813,-3.54,-3.6211,0.0,-3.6025,-3.5203,0.0,-3.3091,0.0,0.0,0.0,-2.802,-2.5945,-2.4885,-2.4213,-2.3659,0.0,0.0,0.0,-2.2541,0.0,0.0,-2.402,0.0,0.0,0.0,0.0,0.0,0.0,0.0,0.0,0.0,0.0,0.0,0.0,0.0,0.0,0.0,0.0,0.0,0.0,0.0,0.0,0.0,0.0,-1.3792,-1.3243,-1.2256,-1.1286,-1.0358,-0.9454,-0.8758,-0.8366,-0.7921,-0.731,-0.6446,-0.6152,-0.5498,-0.4532,-0.3805,-0.3524,-0.3592,-0.3716,-0.3983,-0.4313,-0.3762,-0.3588,-0.3468,-0.2326,-0.1789,-0.1903,-0.306,-0.389,-0.3955,0.0,0.0,0.0,0.0,0.0,-3.2258,-3.1621,-3.0607,-2.9832,0.0,0.0,0.0,-3.0117,-2.9649,-2.8469,-2.6448,-2.3916,-2.2325,-2.1993,-1.9082,-1.7551,-1.7955,-1.7342,-1.7838,-1.9527,-1.9312,-2.0218,-2.247,-2.2246,-2.2592,-2.3438,-2.3879,-2.3919,-2.3638,-2.3793,-2.4096,-2.4633,-2.5915,-2.7617,-2.9546,-3.0405,-3.2805,-3.5907,-3.6363,0.0,0.0,0.0,-3.5936,-3.5234,0.0,-3.4266,-3.3258,0.0,-2.8548,-2.727,-2.6636,-2.6449,-2.6247,-2.5317,0.0,0.0,0.0,0.0,0.0,0.0,0.0,0.0,0.0,0.0,0.0,0.0,0.0,0.0,0.0,0.0,0.0,0.0,0.0,0.0,0.0,0.0,0.0,0.0,0.0,0.0,0.0,-1.3645,-1.2395,-1.1131,-1.0088,-0.931,-0.8809,-0.8278,-0.7823,-0.7483,-0.6433,-0.5791,-0.5561,-0.4564,-0.393,-0.3649,-0.3134,-0.2948,-0.2937,-0.2997,-0.307,-0.3112,-0.2547,-0.2813,-0.3556,-0.324,-0.202,-0.054,-0.0877,-0.1113,-0.0841,0.0,0.0,0.0,0.0,0.0,-3.263,-3.232,-3.1167,-3.0353,0.0,0.0,0.0,-3.0721,-2.9395,-2.7927,-2.6426,-2.4089,-2.2831,-2.3013,-2.0381,-1.9386,-2.058,-2.0152,-2.0923,-2.3118,-2.3943,-2.4567,-2.5081,-2.583,-2.5654,-2.4623,-2.462,-2.427,-2.3678,-2.3271,-2.3147,-2.335,-2.504,-2.7419,-3.0129,-3.0812,-3.3389,0.0,-3.7222,-3.7595,0.0,0.0,0.0,-3.6033,-3.5377,-3.4356,0.0,0.0,0.0,-2.768,-2.6859,-2.6681,-2.655,-2.5659,-2.571,-2.5761,-2.4798,0.0,0.0,-2.4062,-2.3583,0.0,0.0,0.0,0.0,0.0,0.0,0.0,0.0,0.0,0.0,0.0,0.0,0.0,0.0,0.0,0.0,0.0,0.0,0.0,0.0,-1.2383,-1.0977,-0.9284,-0.8626,-0.8008,-0.7363,-0.7097,-0.666,-0.6058,-0.5332,-0.4852,-0.4696,-0.3793,-0.3397,-0.3372,-0.2922,-0.2493,-0.2091,-0.1721,-0.1502,-0.1361,-0.0624,-0.1027,-0.2099,-0.2119,-0.0628,0.1486,0.1512,0.1258,0.1193,0.0,0.0,-2.9152,-3.1759,-3.2816,-3.3151,-3.279,-3.2136,-3.1501,0.0,-3.0783,-3.0807,-3.1213,-2.9936,-2.8498,-2.7182,-2.463,-2.3325,-2.3977,-2.1873,-2.1399,-2.323,-2.3005,-2.3882,-2.6179,-2.6602,-2.7046,-2.7513,-2.7881,-2.7615,-2.6715,-2.6085,-2.5463,-2.4843,-2.3477,-2.2765,-2.2688,-2.4479,-2.7334,-3.0709,-3.0894,-3.3611,0.0,0.0,-3.8389,-3.8987,-3.8161,-3.7379,-3.6523,-3.5078,-3.3299,0.0,0.0,0.0,0.0,0.0,-2.5911,-2.5667,-2.4926,-2.5266,-2.5678,-2.4963,0.0,0.0,-2.3957,-2.3088,-2.2439,0.0,0.0,0.0,0.0,0.0,0.0,0.0,0.0,0.0,0.0,0.0,0.0,0.0,0.0,0.0,0.0,0.0,-1.3042,-1.2189,-1.0938,-0.9458,-0.7746,-0.7563,-0.7027,-0.6005,-0.5979,-0.557,-0.4625,-0.4549,-0.435,-0.3999,-0.3597,-0.3372,-0.3249,-0.2656,-0.1947,-0.1108,-0.018,0.0367,0.0725,0.1612,0.1218,-0.0,-0.0,0.1481,0.3584,0.3622,0.3086,0.2417,0.0,-2.8465,-2.9139,-3.1215,-3.2193,-3.2979,-3.395,-3.3151,-3.253,-3.2868,-3.1741,-3.0908,-3.0884,-2.9532,-2.8501,-2.8221,-2.6401,-2.5283,-2.5335,-2.4191,-2.4049,-2.5339,-2.5388,-2.5862,-2.6869,-2.8246,-2.8939,-2.8977,-2.8647,-2.8389,-2.8164,-2.6856,-2.6025,-2.5559,-2.4532,-2.4182,-2.4462,-2.549,-2.7695,-3.0602,-3.1316,-3.3726,-3.6887,-3.7057,-3.716,-3.7203,-3.7021,-3.6435,-3.5592,-3.4379,-3.3701,-3.305,0.0,0.0,0.0,-2.7677,0.0,0.0,0.0,0.0,0.0,0.0,0.0,0.0,-2.4321,-2.3794,-2.3333,0.0,0.0,0.0,0.0,0.0,0.0,0.0,0.0,0.0,0.0,0.0,0.0,0.0,0.0,0.0,0.0,0.0,-1.1045,-1.0492,-0.8436,-0.6975,-0.6609,-0.6076,-0.5591,-0.5148,-0.5341,-0.5224,-0.4675,-0.4315,-0.4067,-0.4001,-0.3216,-0.2474,-0.1705,-0.0901,-0.0434,-0.0201,0.096,0.1744,0.2316,0.2994,0.1969,-0.0,-0.0,0.1474,0.3605,0.3587,0.3642,0.3649,-2.6856,-2.7771,-2.8872,-3.016,-3.1283,-3.2403,-3.3829,-3.2912,-3.253,-3.3841,-3.2879,-3.1579,-3.0232,-2.9713,-2.921,-2.8569,-2.7485,-2.7113,-2.7968,-2.6625,-2.6537,-2.8088,-2.7485,-2.7586,-2.8592,-2.8631,-2.8921,-2.9435,-2.8604,-2.8375,-2.8683,-2.7779,-2.714,-2.6709,-2.6043,-2.5625,-2.5518,-2.6595,-2.847,-3.079,-3.1651,0.0,-3.6699,-3.6775,-3.7018,-3.7262,-3.6711,-3.5794,-3.4766,-3.4274,-3.3417,0.0,0.0,-3.1323,-2.9475,0.0,-2.708,-2.6483,0.0,0.0,0.0,-2.445,0.0,0.0,0.0,-2.3608,-2.2825,-2.2518,0.0,0.0,0.0,0.0,0.0,0.0,0.0,0.0,0.0,0.0,0.0,0.0,0.0,0.0,0.0,0.0,-0.6635,-0.5923,-0.5175,-0.4592,-0.4184,-0.4892,-0.499,-0.428,-0.4382,-0.3987,-0.3004,-0.3213,-0.3094,-0.2646,-0.1769,-0.1101,-0.0637,0.0234,0.0904,0.1375,0.2075,0.2627,0.3042,0.3663,0.3266,0.2321,0.1943,0.2546,0.3588,0.3595,0.377,0.4025,-2.5206,-2.6648,-2.8164,-2.9095,-3.0116,-3.1434,-3.3135,-3.2337,-3.2082,-3.3693,-3.3253,-3.1982,-2.9839,-3.0019,-3.0066,-2.9437,-2.8608,-2.8921,-3.0815,-2.92,-2.8842,-3.0448,-2.954,-2.9393,-3.0311,-2.9121,-2.883,-2.9488,-2.8464,-2.819,-2.8609,-2.8419,-2.8155,-2.7816,-2.7442,-2.7064,-2.6741,-2.7866,0.0,-3.1301,0.0,-3.4047,-3.6454,-3.6407,-3.6834,-3.7302,-3.6344,-3.5128,-3.3957,-3.3873,-3.2847,-3.1813,-3.2856,-3.136,0.0,0.0,0.0,0.0,0.0,0.0,0.0,0.0,0.0,-2.4746,0.0,0.0,0.0,-2.1656,0.0,0.0,0.0,0.0,0.0,0.0,0.0,0.0,0.0,0.0,0.0,0.0,0.0,0.0,0.0,0.0,-0.1629,-0.1133,-0.1748,-0.2016,-0.1693,-0.3324,-0.384,-0.2947,-0.2906,-0.2299,-0.1046,-0.1566,-0.1483,-0.0781,-0.0101,0.0368,0.0639,0.1375,0.2147,0.2933,0.32,0.3384,0.3569,0.4161,0.4541,0.4699,0.4049,0.3891,0.4064,0.4031,0.4172,0.439,-2.4297,-2.5213,-2.6343,-2.8269,-2.8748,-2.9728,-3.2302,-3.2092,-3.1558,-3.1479,-3.1603,-3.1317,-3.0312,-2.9998,-3.0547,-3.2337,-3.0748,-3.0646,-3.2977,-3.1758,-3.1024,-3.1275,-3.1638,-3.1596,-3.1089,-3.1046,-3.0504,-2.9488,-2.8836,-2.8325,-2.802,-2.8262,-2.8366,-2.8296,-2.8077,-2.8372,-2.9051,-2.9446,-3.0677,0.0,-3.3032,-3.4213,0.0,-3.5372,-3.5329,-3.5373,-3.5011,-3.4132,-3.298,0.0,-3.2052,-3.2284,0.0,-3.0546,-2.9525,-2.6765,0.0,0.0,0.0,0.0,0.0,0.0,-2.349,0.0,0.0,0.0,-2.2891,-2.2167,0.0,0.0,0.0,0.0,0.0,0.0,0.0,0.0,0.0,0.0,0.0,0.0,0.0,0.0,0.0,0.0,0.0,0.109,0.1403,0.1022,-0.0431,-0.0457,-0.0399,-0.0396,-0.0425,-0.0332,-0.0164,0.053,0.0903,0.1005,0.1099,0.172,0.275,0.3105,0.3392,0.37,0.4187,0.4352,0.432,0.4939,0.5126,0.5025,0.4692,0.5,0.5647,0.5652,0.5715,0.5771,-2.2159,-2.4043,-2.5619,-2.6385,-2.7164,-2.8492,-3.0913,-3.2724,-3.3123,-3.1053,-3.1917,-3.2177,-3.0599,-3.056,-3.1148,-3.2556,0.0,-3.2601,0.0,0.0,-3.3639,-3.4488,-3.3905,-3.3236,-3.2493,-3.1712,-3.083,-2.9841,-2.8697,-2.8148,-2.8163,-2.79,-2.7992,-2.8404,-2.848,-2.9109,-3.0133,0.0,-3.1683,0.0,0.0,0.0,0.0,-3.4963,-3.4471,-3.3783,-3.2954,-3.2418,-3.1967,0.0,-3.0903,0.0,0.0,0.0,0.0,0.0,0.0,0.0,0.0,0.0,0.0,0.0,0.0,0.0,-2.2407,0.0,-2.1545,0.0,0.0,0.0,0.0,0.0,0.0,0.0,0.0,0.0,0.0,0.0,0.0,0.0,0.0,0.0,0.0,0.0,0.0,0.0,0.0,0.6062,0.2675,0.3225,0.4103,0.5067,0.3795,0.309,0.3055,0.345,0.3369,0.2883,0.3257,0.3579,0.387,0.3957,0.4071,0.4157,0.4685,0.4844,0.4873,0.5533,0.5784,0.5764,0.5939,0.5819,0.5534,0.5556,0.5731,0.6016,-2.0187,-2.2724,-2.4707,-2.4879,-2.5968,-2.7485,-2.9565,-3.2214,-3.3098,-3.0774,-3.2055,-3.2546,-3.0826,-3.109,0.0,0.0,-3.3328,-3.3907,0.0,0.0,-3.5481,0.0,0.0,0.0,-3.3728,-3.2476,-3.1376,-3.0395,-2.8909,-2.8322,-2.856,-2.7915,-2.7892,-2.8413,-2.8688,-2.9535,-3.0835,0.0,-3.2507,-3.4049,-3.394,-3.4112,-3.4395,-3.4275,-3.3556,-3.2428,-3.1385,-3.0978,-3.0819,-3.0166,-2.9743,0.0,-3.0231,0.0,0.0,0.0,0.0,0.0,-2.3165,0.0,0.0,0.0,0.0,0.0,0.0,0.0,0.0,0.0,0.0,0.0,0.0,0.0,0.0,0.0,0.0,0.0,0.0,0.0,0.0,0.0,0.0,0.0,0.0,0.0,0.0,0.0,1.2089,0.0,0.7322,0.7322,0.78,0.8565,0.6876,0.5787,0.5414,0.5433,0.5074,0.4311,0.4772,0.4796,0.4449,0.4631,0.4714,0.4728,0.5439,0.5758,0.5856,0.6585,0.689,0.693,0.7314,0.6965,0.6186,0.5871,0.6068,0.6525,-1.9029,-2.107,-2.3143,-2.425,-2.5253,-2.6623,-2.8538,0.0,0.0,0.0,0.0,0.0,0.0,0.0,0.0,0.0,0.0,-3.4148,-3.5446,0.0,-3.6041,0.0,0.0,-3.6755,0.0,-3.3855,-3.2754,-3.1157,-2.9833,-2.9097,-2.896,-2.8561,-2.8384,-2.842,-2.8665,-2.9738,-3.1311,-3.1914,-3.3147,-3.4636,-3.4319,-3.3568,-3.2709,0.0,-3.24,-3.1372,-3.0827,0.0,0.0,-2.8601,-2.8658,0.0,0.0,0.0,0.0,0.0,0.0,0.0,0.0,0.0,0.0,-2.1228,0.0,0.0,0.0,0.0,-1.9489,0.0,0.0,0.0,0.0,0.0,-1.0155,-0.3123,0.283,0.0,0.0,0.0,0.0,0.0,0.0,0.0,0.0,0.0,0.0,1.876,1.6642,0.0,1.3865,1.1798,0.9869,0.8197,0.7733,0.695,0.5713,0.5806,0.559,0.5064,0.4946,0.4791,0.4618,0.5199,0.545,0.5534,0.6784,0.7386,0.7577,0.8308,0.8635,0.8635,0.8635,0.8635,0.8464,0.7349,0.7313,0.7834,-1.8788,-2.0744,-2.2637,-2.4002,-2.453,0.0,0.0,-3.0365,0.0,0.0,0.0,0.0,0.0,-3.3628,-3.4513,0.0,0.0,-3.5703,-3.6215,-3.6456,0.0,0.0,0.0,-3.7003,0.0,0.0,0.0,-3.2662,-3.1207,-3.0308,-2.9836,-2.8256,-2.7634,-2.7793,-2.7717,-2.8613,0.0,0.0,0.0,0.0,0.0,-3.2885,-3.2183,0.0,0.0,-3.0129,-2.9395,-2.8863,0.0,-2.754,-2.7232,-2.7099,-2.6543,-2.554,-2.4551,-2.4522,-2.3801,0.0,0.0,0.0,-2.1017,-2.063,0.0,0.0,0.0,0.0,0.0,0.0,0.0,0.0,0.0,0.0,-0.9598,-0.3124,0.3352,0.9433,0.0,0.0,0.0,0.0,0.0,0.0,0.0,0.0,0.0,2.1234,1.9836,1.8901,0.0,1.6191,1.4143,1.2711,1.1176,0.9939,0.9038,0.7888,0.7277,0.7139,0.7097,0.681,0.6263,0.698,0.7143,0.6929,0.7843,0.8301,0.8329,0.8616,0.8716,0.8716,0.8698,0.8715,0.8635,0.8267,0.8527,0.9175,-1.8559,-2.0366,-2.2119,0.0,0.0,0.0,0.0,0.0,0.0,0.0,-3.2937,0.0,-3.3633,0.0,-3.526,0.0,-3.5884,-3.6007,-3.5763,-3.6291,0.0,-3.6626,-3.718,0.0,0.0,0.0,0.0,0.0,-3.2446,-3.1256,-2.9922,-2.8256,-2.745,-2.7339,-2.701,-2.7749,-2.928,-3.068,-3.1542,0.0,0.0,-3.1948,0.0,0.0,-3.0178,-2.9431,0.0,-2.761,-2.7168,-2.6423,-2.5924,-2.5545,-2.5279,-2.4384,-2.3422,-2.3499,-2.2962,-2.2148,-2.1436,-2.0919,0.0,0.0,-1.9812,0.0,-1.8993,0.0,0.0,0.0,0.0,0.0,0.0,0.0,-0.9176,-0.2767,0.4259,1.095,0.0,2.2025,0.0,0.0,0.0,0.0,0.0,0.0,2.2981,2.2358,2.2169,2.1742,0.0,0.0,1.7168,1.5668,1.4002,1.2623,1.1523,1.0321,0.9533,0.9175,0.8825,0.8329,0.7775,0.8187,0.8185,0.7918,0.8655,0.901,0.9037,0.9187,0.9279,0.927,0.9257,0.9355,0.9441,0.9039,0.9371,1.0059,-1.846,-2.0043,0.0,0.0,-2.4438,0.0,0.0,0.0,-3.0753,0.0,-3.2782,-3.3608,-3.3169,-3.4294,-3.5325,-3.587,-3.5656,-3.5206,-3.4309,-3.5702,0.0,0.0,-3.6006,-3.6453,-3.5594,0.0,0.0,0.0,0.0,-3.1909,-2.9296,-2.8527,-2.7762,-2.7069,-2.6672,-2.7212,-2.8511,-2.9708,-3.0676,-3.1402,-3.1402,-3.0893,-3.0097,-2.9384,0.0,-2.9188,-2.7415,-2.6497,-2.6056,-2.5288,-2.4751,-2.4408,-2.4374,-2.3853,-2.319,-2.2758,-2.2432,-2.1979,-2.087,-2.0553,-2.035,-1.9797,0.0,0.0,0.0,0.0,-1.7206,0.0,0.0,0.0,0.0,0.0,0.0,-0.2228,0.548,1.3097,2.0124,0.0,0.0,0.0,0.0,0.0,0.0,2.5796,2.423,2.2535,2.3693,2.3413,0.0,0.0,0.0,1.7062,1.6218,1.4988,1.3238,1.2935,1.2213,1.1115,1.0075,0.9415,0.9112,0.8933,0.8725,0.8558,0.9294,0.9638,0.9687,1.0146,1.0322,1.0322,1.0322,1.0626,1.0896,0.9838,0.9897,1.0624,-2.0017,-2.1287,-2.2393,0.0,-2.5239,-2.6907,0.0,0.0,0.0,0.0,-3.1737,-3.2718,-3.3608,-3.4949,-3.553,-3.4796,-3.564,0.0,0.0,0.0,0.0,-3.5288,-3.6134,-3.6291,-3.5533,-3.5649,0.0,-3.3528,0.0,-3.0986,-2.9366,-2.801,-2.7229,-2.6923,-2.6637,-2.6922,-2.7698,-2.9479,-3.0786,-3.1655,-3.1347,-3.0627,0.0,0.0,-2.8207,-2.7005,-2.6522,-2.6105,-2.5547,-2.4283,-2.354,-2.3069,-2.2507,-2.2026,-2.1582,-2.1488,-2.1247,-2.0952,-2.0686,-1.9859,-1.909,-1.8927,-1.8285,-1.7706,0.0,0.0,0.0,0.0,0.0,0.0,0.0,0.0,0.0,-0.4118,0.4792,1.2614,0.0,0.0,0.0,2.3687,0.0,0.0,2.5683,2.5372,2.4759,2.3909,2.4731,0.0,0.0,0.0,0.0,1.9746,1.9031,1.7808,1.6136,1.5763,1.4633,1.28,1.2522,1.1778,1.0705,1.0925,1.0777,1.043,1.0972,1.0993,1.0664,1.0788,1.0829,1.0829,1.0829,1.1538,1.2535,1.1728,1.1564,1.1893,-2.0756,0.0,0.0,-2.3134,0.0,0.0,-2.6644,0.0,0.0,-3.06,-3.1306,0.0,-3.3419,-3.4646,-3.5071,-3.4538,-3.5441,0.0,-3.5534,0.0,0.0,-3.5504,-3.5368,-3.518,-3.508,-3.4914,0.0,-3.3547,0.0,-3.0931,-2.9302,-2.782,-2.6883,-2.65,-2.6362,-2.6556,-2.7154,-2.8932,-3.0075,-3.0624,-3.0085,0.0,0.0,-2.8,-2.6859,-2.5618,-2.5312,-2.4816,-2.4191,-2.3248,-2.2477,-2.1873,-2.1339,-2.1085,-2.0959,-2.0764,-2.0644,-2.0469,-1.9859,-1.9163,-1.8532,-1.8222,-1.7732,-1.7216,-1.6954,-1.6232,-1.5513,0.0,0.0,0.0,0.0,0.0,0.0,-0.3247,0.4676,0.0,0.0,0.0,0.0,0.0,2.0981,0.0,2.2779,2.4171,2.486,2.4461,0.0,0.0,0.0,0.0,0.0,2.1384,2.0783,1.9844,1.8523,1.7746,1.6638,1.5074,1.4152,1.3163,1.2137,1.2095,1.181,1.1406,1.1703,1.1645,1.1356,1.1328,1.1507,1.1741,1.2164,1.2883,1.3585,1.3363,1.33,1.3367,-2.1025,0.0,0.0,0.0,0.0,0.0,0.0,-2.7327,0.0,-2.9973,0.0,-3.1496,-3.2424,-3.3554,-3.4311,-3.4545,0.0,-3.5504,-3.5504,-3.5415,-3.5355,-3.537,-3.4173,-3.38,-3.4373,-3.3732,-3.3334,0.0,0.0,-3.0986,-2.9,-2.7783,-2.6796,-2.6085,-2.6085,-2.6347,0.0,-2.8294,-2.897,-2.9042,-2.8474,-2.8122,-2.7853,-2.6447,-2.5431,-2.4659,-2.3951,-2.3243,-2.2683,-2.2266,-2.1629,-2.0958,-2.0655,-2.067,-2.0764,-2.0348,-2.0289,-2.0131,-1.8912,-1.8508,-1.8264,-1.7622,-1.7248,-1.6925,-1.6434,-1.5784,-1.5165,-1.4467,-1.4003,0.0,0.0,0.0,0.0,-0.1673,0.0,0.0,0.0,0.0,0.0,0.0,0.0,0.0,0.0,2.2651,2.467,0.0,0.0,0.0,0.0,0.0,0.0,0.0,2.1933,0.0,2.0457,0.0,1.8413,1.7577,1.5565,1.423,1.3578,1.2881,1.2413,1.209,1.2022,1.2008,1.2011,1.2006,1.2327,1.289,1.3906,1.4313,1.4373,1.4789,1.4958,1.4947,-2.1369,0.0,0.0,0.0,0.0,-2.3299,-2.3625,-2.6174,-2.7441,-2.601,-2.7974,-2.9518,-2.9463,-3.1952,-3.3633,-3.3816,-3.4835,0.0,0.0,0.0,0.0,-3.4651,-3.3903,-3.3544,-3.3649,-3.248,-3.163,0.0,0.0,0.0,-2.757,-2.7649,-2.7262,-2.659,-2.659,-2.6753,-2.7081,-2.7904,0.0,-2.8517,-2.8404,-2.8001,-2.7299,-2.5938,-2.4583,-2.3339,-2.2649,-2.2621,-2.2687,-2.1585,-2.1134,-2.0931,-2.0496,-2.0177,-1.9925,-1.9854,-1.9515,-1.9103,-1.8726,-1.8087,-1.7383,-1.6818,-1.6283,-1.5884,-1.5752,-1.4903,-1.4071,-1.3921,-1.3471,-1.2627,-1.1209,0.0,0.0,0.0,0.0,0.0,0.0,0.0,0.0,0.0,0.0,0.0,0.0,0.0,0.0,0.0,0.0,0.0,0.0,0.0,0.0,0.0,0.0,0.0,0.0,0.0,0.0,1.9272,1.7787,1.6586,1.563,1.4266,1.3609,1.3522,1.3113,1.2986,1.3038,1.304,1.3335,1.3947,1.5008,1.5399,1.5467,1.5991,1.6188,1.61,0.0,0.0,0.0,0.0,0.0,0.0,0.0,-2.3908,0.0,-2.5608,-2.7093,-2.8402,-2.9161,-3.1033,-3.2508,-3.3042,-3.4066,-3.4559,-3.4252,-3.4431,-3.4205,-3.3484,-3.2826,0.0,-3.2482,-3.1195,-3.0674,-3.1097,0.0,0.0,-2.8339,-2.7761,-2.725,-2.6795,-2.6464,-2.6445,0.0,0.0,0.0,-2.7359,-2.7403,-2.6993,-2.6152,-2.4831,-2.3664,-2.2634,-2.2027,-2.1544,-2.1205,-2.0901,-2.0571,-2.0288,-2.0045,-1.9839,-1.9639,-1.9369,-1.9095,-1.8765,-1.8115,-1.7626,-1.712,-1.6236,-1.5811,-1.5454,-1.4812,-1.4226,-1.3732,-1.342,-1.3104,-1.2461,-1.1074,-0.9026,0.0,0.0,0.0,0.0,0.0,0.0,0.0,0.0,0.0,0.0,0.0,0.0,0.0,0.0,0.0,0.0,0.0,0.0,0.0,0.0,0.0,0.0,0.0,0.0,0.0,2.1017,1.9295,1.7846,1.664,1.5524,1.4727,1.4195,1.4062,1.4149,1.4456,1.4802,1.4937,1.4995,1.5802,1.626,1.6533,1.6503,1.6676,1.6811,0.0,-2.2364,0.0,0.0,-2.1979,0.0,-1.9974,-2.1628,-2.3813,-2.5845,-2.656,-2.7506,-2.8946,-3.0147,-3.1176,-3.1877,-3.2779,-3.3164,-3.276,-3.326,-3.3121,-3.2138,-3.142,-3.1076,-3.112,-2.9963,-2.991,0.0,0.0,0.0,0.0,-2.7933,0.0,0.0,0.0,0.0,0.0,0.0,-2.6757,-2.6243,-2.6118,-2.5749,-2.5075,-2.3594,-2.2755,-2.2269,-2.1295,-2.0298,-1.9536,-1.9919,-1.9884,-1.9675,-1.9536,-1.9449,-1.9376,-1.8878,-1.865,-1.838,-1.7544,-1.7133,-1.6701,-1.5796,-1.541,-1.4949,-1.4003,-1.3684,-1.3457,-1.3017,-1.2666,-1.2058,-1.0821,-0.902,0.0,0.0,0.0,0.0,0.0,0.0,0.0,0.0,0.0,0.0,0.0,0.0,0.0,0.0,0.0,0.0,0.0,0.0,0.0,0.0,0.0,0.0,2.3281,0.0,2.251,0.0,2.0641,1.906,1.7548,1.666,1.5719,1.485,1.487,1.5242,1.5938,1.6585,1.6599,1.6263,1.6545,1.7008,1.7396,1.6876,1.7016,1.7424,0.0,0.0,0.0,0.0,0.0,0.0,0.0,-2.017,-2.2192,-2.4746,-2.5816,-2.6526,-2.6816,-2.8482,-2.9707,-2.9817,-3.0719,-3.1298,-3.1377,-3.0953,-3.0719,-3.066,-3.0087,-2.9795,-2.9759,-2.9063,-2.8767,0.0,0.0,0.0,0.0,0.0,0.0,0.0,0.0,0.0,0.0,-2.6171,-2.6168,-2.5648,-2.5047,-2.4717,-2.4462,-2.2585,-2.2033,-2.2037,-1.9921,-1.8954,-1.8688,-1.843,-1.893,-1.9588,-1.889,-1.8711,-1.865,-1.8274,-1.7827,-1.7422,-1.7353,-1.6532,-1.5708,-1.5632,-1.4767,-1.3956,-1.3815,-1.3372,-1.2978,-1.2929,-1.19,-1.0771,-1.0012,-0.8718,-0.774,0.0,0.0,0.0,0.0,0.0,0.0,0.0,0.0,0.0,0.0,0.0,0.0,0.0,0.0,0.0,0.0,0.0,0.0,0.0,0.0,2.5587,2.5146,2.4222,0.0,2.2113,2.2024,2.1014,1.9137,1.7471,1.6453,1.592,1.5571,1.6055,1.7158,1.7708,1.793,1.7825,1.7409,1.7556,1.7963,1.7407,1.7572,1.8033,0.0,0.0,0.0,0.0,0.0,0.0,0.0,-1.9486,-2.1418,-2.5388,-2.6087,-2.6507,-2.7131,-2.8084,-2.8388,-2.7774,-2.8858,-2.9319,-2.8675,-2.8932,-2.8791,-2.804,-2.8225,-2.833,-2.8356,-2.8107,-2.8186,0.0,0.0,0.0,0.0,0.0,0.0,0.0,0.0,-2.5272,-2.4858,-2.5342,-2.5313,-2.4926,-2.4698,-2.4148,-2.3377,-2.2414,-2.1857,-2.1391,-1.9897,-1.8906,-1.8366,-1.8903,-1.8935,-1.8703,-1.8644,-1.8472,-1.8221,-1.7882,-1.7557,-1.7229,-1.6909,-1.6213,-1.5499,-1.5141,-1.4411,-1.3732,-1.3334,-1.3065,-1.2881,-1.2881,-1.1792,-1.0618,-0.9917,-0.8988,-0.8353,0.0,0.0,0.0,0.0,0.0,0.0,0.0,0.0,-0.3178,0.0,0.0,0.0,0.0,0.0,0.0,0.0,0.0,0.0,2.7854,0.0,2.5919,2.5649,2.456,2.3653,2.2935,2.2505,2.1636,2.0369,1.9252,1.8299,1.7604,1.7466,1.7555,1.7838,1.8359,1.838,1.8066,1.7867,1.8094,1.8514,1.7971,1.8131,1.8592,-1.5562,0.0,-1.7998,0.0,-1.7667,-1.7659,-1.7909,-1.8652,-2.0492,-2.4086,-2.5054,-2.5922,-2.7125,-2.721,-2.6847,-2.6102,-2.6819,-2.6974,-2.6179,-2.6573,-2.6486,-2.5647,-2.6099,0.0,-2.6651,-2.6718,-2.7095,-2.7748,-2.7245,0.0,0.0,0.0,0.0,0.0,-2.5091,-2.4671,-2.4141,-2.4418,-2.4453,-2.4232,-2.3894,-2.3221,-2.2352,-2.2076,-2.1326,-2.0357,-1.9388,-1.8436,-1.7746,-1.8506,-1.8248,-1.7666,-1.7908,-1.7935,-1.7801,-1.7391,-1.717,-1.6951,-1.6411,-1.5776,-1.5186,-1.4606,-1.3861,-1.3216,-1.2771,-1.2686,-1.2628,-1.2335,-1.1484,-1.0517,-0.9666,-0.9106,-0.8804,0.0,0.0,0.0,0.0,0.0,0.0,0.0,-0.7505,-0.6569,-0.5008,0.0,0.0,0.0,0.0,0.0,0.0,0.0,0.0,0.0,0.0,0.0,0.0,0.0,2.421,2.3692,2.293,2.2148,2.1366,2.03,1.9467,1.883,1.874,1.8657,1.8612,1.8968,1.8893,1.8535,1.8419,1.865,1.9066,1.8508,1.8662,1.9146,-1.428,-1.4838,-1.5248,-1.6493,-1.6466,-1.6172,-1.5885,-1.7576,-1.9127,-1.9866,-2.1922,-2.412,-2.6258,-2.5511,-2.4858,-2.4845,-2.4356,-2.4147,-2.43,-2.3751,-2.3527,0.0,0.0,-2.4047,-2.4722,-2.4708,-2.5014,-2.5644,0.0,0.0,-2.4722,0.0,0.0,-2.4827,-2.5714,-2.5075,-2.3441,-2.349,-2.3604,-2.3576,-2.2289,-2.171,-2.1661,-2.1262,-2.0213,-1.8809,-1.7931,-1.7151,-1.6504,-1.6519,-1.6522,-1.6514,-1.6501,-1.6868,-1.7188,-1.668,-1.6522,-1.638,-1.5764,-1.5186,-1.456,-1.3956,-1.299,-1.2236,-1.219,-1.219,-1.1959,-1.0998,-1.0813,-1.0415,-0.9061,-0.8811,-0.8804,-0.8804,0.0,0.0,0.0,0.0,0.0,0.0,-0.9188,-0.9547,-0.9493,0.0,0.0,0.0,0.0,0.0,0.0,0.0,0.0,2.7078,2.7677,0.0,2.6804,2.5787,2.4923,2.4172,2.3504,2.2813,2.2018,2.0239,1.9386,1.9353,1.8906,1.9076,1.969,1.969,1.969,1.9639,1.9095,1.9207,1.9639,1.9095,1.9244,1.9675,-1.1345,-1.2937,-1.432,-1.4716,-1.5435,-1.6143,-1.6643,-1.7474,-1.8619,-2.0341,-2.1353,-2.2488,-2.4028,-2.4569,-2.4506,0.0,-2.3514,-2.3132,0.0,-2.2227,-2.224,-2.2533,-2.2791,-2.271,-2.2141,-2.3358,-2.412,-2.4298,0.0,0.0,0.0,-2.385,-2.3838,-2.3905,-2.4028,-2.3322,-2.204,-2.1329,-2.1299,-2.1736,-2.0874,-2.0765,-2.1129,-2.1419,-2.023,-1.8045,-1.5345,-1.4232,-1.4157,-1.4979,-1.5475,-1.5648,-1.536,-1.5935,-1.6612,-1.5891,-1.5784,-1.5732,-1.5152,-1.456,-1.405,-1.3862,-1.2725,-1.1733,-1.2134,-1.1836,-1.1187,-1.0098,-1.0004,-0.9865,-0.8956,-0.8804,-0.8804,-0.8804,0.0,0.0,0.0,0.0,0.0,0.0,-1.0814,-1.1208,0.0,-0.9857,0.0,0.0,0.0,0.0,0.0,0.0,0.0,0.0,2.7467,0.0,2.7701,2.5703,2.4279,2.3509,2.2876,2.247,2.2215,2.1292,2.0904,2.0873,2.0431,2.0195,2.0089,2.0089,1.9945,1.969,1.953,1.9566,1.969,1.953,1.9566,1.969,-0.969,-1.1111,-1.2541,-1.3496,-1.4266,-1.5245,-1.6419,-1.7032,-1.808,-1.989,-2.0547,-2.1296,-2.235,-2.315,0.0,-2.2874,-2.2447,-2.192,-2.123,-2.0978,-2.0869,-2.0863,-2.13,-2.125,-2.0578,0.0,0.0,-2.2934,-2.272,-2.2692,-2.291,-2.2564,-2.2463,-2.2533,-2.2341,-2.1737,-2.0827,-2.0122,-1.9914,-2.0029,-1.9738,-1.9682,-1.9895,-2.0712,-1.975,-1.7607,-1.4631,-1.3604,-1.3703,-1.4438,-1.4778,-1.4834,-1.4721,-1.5334,-1.5881,-1.5093,-1.4936,-1.4937,-1.4492,-1.3968,-1.347,-1.3248,-1.2184,-1.1254,-1.1363,-1.1013,-1.0403,-0.9591,-0.9589,-0.9614,-0.891,-0.8804,-0.8804,-0.8804,0.0,-0.8383,-0.8605,0.0,0.0,0.0,0.0,0.0,0.0,-1.1977,0.0,0.0,0.0,0.0,0.0,0.0,0.0,2.4229,2.5931,0.0,2.6518,2.5,2.3828,2.3079,2.2658,2.2417,2.2282,2.1823,2.1582,2.1582,2.1181,2.0715,2.0314,2.0483,2.0296,1.9929,2.0104,2.007,1.9945,2.0104,1.998,1.9711,-0.9157,-0.9427,0.0,0.0,-1.3109,0.0,-1.53,-1.6398,-1.7407,-1.8549,-1.963,-2.0591,-2.1193,-2.1319,-2.1575,-2.2018,0.0,0.0,0.0,-2.0012,-1.9484,-1.9007,-1.9447,0.0,-1.9824,-2.0351,-2.0895,-2.1444,-2.0975,-2.0959,-2.1393,-2.0934,-2.0707,-2.0736,-2.0765,-2.0332,-1.9715,-1.9668,-1.9258,-1.8536,-1.8734,-1.8521,-1.8169,-1.9191,-1.8699,-1.7257,-1.528,-1.4595,-1.4595,-1.456,-1.4345,-1.413,-1.4481,-1.4891,-1.5085,-1.4323,-1.4063,-1.4039,-1.3752,-1.3355,-1.2851,-1.2315,-1.1499,-1.0692,-1.002,-0.9751,-0.953,-0.9328,-0.9509,-0.9488,-0.885,-0.8752,-0.8752,-0.8646,-0.7925,-0.7617,-0.8259,0.0,0.0,0.0,0.0,0.0,0.0,-1.3679,-1.1297,0.0,0.0,0.0,0.0,0.0,1.8964,1.9909,2.3515,2.4955,2.3858,2.3819,2.3505,2.2855,2.273,2.2537,2.2282,2.1853,2.1658,2.1628,2.1244,2.0813,2.04,2.0862,2.0748,2.0382,2.0829,2.0715,2.0416,2.0829,2.0481,1.9833,0.0,0.0,-0.9983,-1.1461,-1.2406,-1.3486,-1.5264,-1.5903,-1.6495,-1.7149,-1.8818,-1.9699,-1.9252,-1.9713,-1.9849,-1.9412,-1.9763,-1.9836,-1.9447,-1.8894,-1.8629,-1.8748,-1.8664,-1.8455,-1.8144,-1.8586,-1.8904,-1.9033,-1.9685,-1.9915,-1.9623,-2.0381,-2.0185,-1.9205,-1.922,-1.9008,-1.8596,-1.857,-1.7934,-1.6928,-1.7063,-1.7003,-1.6851,-1.7166,-1.7022,-1.6361,-1.4125,-1.3336,-1.332,-1.3331,-1.3589,-1.3831,-1.342,-1.4,-1.4689,-1.4071,-1.3993,-1.3856,-1.2872,-1.2219,-1.1769,-1.1752,-1.0999,-0.9849,-0.8139,-0.8222,-0.8558,-0.8296,-0.851,-0.8582,-0.8059,-0.8427,-0.8427,-0.7289,-0.7278,-0.7453,-0.753,0.0,0.0,0.0,-1.4601,-1.6003,-1.6118,-1.4834,-1.2387,0.0,0.0,0.0,0.0,0.0,1.5377,2.0229,2.3452,2.4593,2.3451,2.3147,2.2797,2.246,2.2402,2.236,2.231,2.218,2.2135,2.2135,2.2032,2.1735,2.129,2.143,2.1213,2.0862,2.0975,2.0926,2.0862,2.0959,2.0859,2.0733,-0.7377,-0.7869,-0.8877,-1.047,-1.1154,-1.2254,-1.4518,-1.5279,-1.5757,-1.6241,-1.7606,-1.8342,-1.7863,-1.8328,-1.8536,-1.8092,-1.8526,-1.8578,-1.8142,-1.8069,-1.7812,-1.7243,-1.7855,-1.784,-1.7048,-1.7828,-1.8204,-1.8204,-1.8781,-1.8932,-1.8668,-1.9258,-1.9033,-1.8069,-1.8069,-1.7824,-1.74,-1.74,-1.699,-1.6381,-1.6421,-1.6137,-1.5708,-1.6268,-1.6491,-1.6148,-1.3751,-1.2907,-1.2878,-1.289,-1.289,-1.2851,-1.2482,-1.2803,-1.3115,-1.2445,-1.2253,-1.2091,-1.1343,-1.0795,-1.0428,-1.0304,-0.9663,-0.8781,-0.7692,-0.7688,-0.7874,-0.7728,-0.7821,-0.7796,-0.7576,-0.7647,-0.7522,-0.6665,-0.6508,-0.6564,-0.6706,-0.8926,0.0,-1.2014,-1.4676,-1.6391,-1.6416,-1.5501,-1.3485,-1.0039,0.0,0.0,0.2019,0.947,1.4963,1.7957,2.1632,2.3344,2.2832,2.2643,2.2436,2.231,2.231,2.231,2.231,2.231,2.231,2.231,2.231,2.2032,2.1628,2.1823,2.1658,2.1306,2.1507,2.1446,2.1306,2.1524,2.1342,2.1096,-0.7082,-0.6993,-0.7562,-0.9731,-0.9932,-1.0796,-1.3894,-1.4664,-1.507,-1.567,-1.6534,-1.6938,-1.662,-1.7025,-1.7279,-1.721,-1.7191,-1.7073,-1.6894,-1.7258,-1.6869,-1.5466,-1.6954,-1.7272,-1.6173,-1.7154,-1.7706,-1.78,-1.778,-1.7782,-1.7782,-1.7869,-1.7605,-1.7013,-1.7013,-1.6674,-1.6124,-1.6124,-1.6124,-1.6028,-1.6028,-1.5389,-1.4556,-1.5576,-1.5831,-1.5384,-1.332,-1.2559,-1.2501,-1.2569,-1.2197,-1.1665,-1.1665,-1.1466,-1.1089,-1.0374,-0.9857,-0.96,-0.9781,-0.9533,-0.9097,-0.8585,-0.8152,-0.7878,-0.7787,-0.7566,-0.7408,-0.7372,-0.7284,-0.7199,-0.7013,-0.6776,-0.6474,-0.6181,-0.5761,-0.5579,-0.5729,0.0,-0.9867,-1.0956,-1.4138,-1.6293,-1.6454,-1.583,-1.4373,-1.1803,-0.7493,0.0,0.0,0.9984,1.5279,1.5588,1.9744,2.2084,2.2299,2.231,2.231,2.231,2.231,2.231,2.231,2.231,2.231,2.231,2.231,2.2061,2.1718,2.2135,2.2077,2.1764,2.2135,2.2061,2.1781,2.2269,2.2002,2.1536,-0.6932,-0.6841,-0.739,-0.9586,-0.9577,-1.0489,-1.4305,-1.4541,-1.4496,-1.5348,-1.6126,-1.6056,-1.472,-1.5519,-1.5925,-1.5273,-1.5209,-1.5558,-1.6277,-1.5928,-1.544,-1.4843,-1.5576,-1.5666,-1.4994,-1.5177,-1.5475,-1.6017,-1.5963,-1.5934,-1.5946,-1.6443,-1.6371,-1.5791,-1.5791,-1.5468,-1.498,-1.498,-1.4746,-1.4464,-1.4464,-1.393,-1.3214,-1.3391,-1.2721,-1.1637,-1.1242,-1.0931,-1.0689,-1.0998,-1.1074,-1.0965,-1.0965,-1.0458,-0.9779,-0.9267,-0.8338,-0.7769,-0.9036,-0.9115,-0.8536,-0.753,-0.7572,-0.7787,-0.7273,-0.7096,-0.6996,-0.6808,-0.6801,-0.6619,-0.5788,-0.6166,-0.6199,-0.4988,-0.521,-0.5304,0.0,0.0,-0.9305,-1.0819,-1.3718,-1.5782,-1.6348,-1.5867,-1.4383,-1.1813,-0.7621,-0.3874,-0.0735,0.5716,1.196,1.7693,2.0729,2.2238,2.2282,2.231,2.231,2.231,2.231,2.231,2.231,2.231,2.231,2.231,2.231,2.2254,2.2209,2.2282,2.2254,2.2209,2.2282,2.2254,2.2293,2.2958,2.3139,2.3184,-0.6776,-0.7022,-0.768,-0.9171,-0.9483,-1.0272,-1.2489,-1.3134,-1.3388,-1.3394,-1.4489,-1.4834,-1.387,-1.4489,-1.479,-1.4473,-1.441,-1.4493,-1.4716,-1.4775,-1.4494,-1.3763,-1.4606,-1.4971,-1.4709,-1.4698,-1.4835,-1.5107,-1.5061,-1.5092,-1.5092,-1.5328,-1.5163,-1.4562,-1.4562,-1.4264,-1.3695,-1.3321,-1.3238,-1.3466,-1.3449,-1.232,-1.0706,-1.0706,-1.0272,-0.9728,-0.9728,-0.991,-1.0269,-1.0637,-1.0568,-1.023,-1.01,-0.9517,-0.8846,-0.83,-0.7592,-0.7148,-0.7887,-0.7918,-0.7641,-0.7147,-0.7189,-0.728,-0.6689,-0.6562,-0.6422,-0.598,-0.5779,-0.5548,-0.5136,-0.5226,-0.5095,-0.4469,-0.4685,0.0,0.0,-0.7137,-0.904,-1.0165,-1.2469,-1.4076,-1.4394,-1.3779,-1.2855,-1.1598,-0.724,-0.2358,0.2871,0.9257,1.4677,1.8745,2.1119,2.2291,2.2302,2.2309,2.231,2.231,2.231,2.231,2.231,2.231,2.231,2.231,2.231,2.231,2.231,2.231,2.231,2.231,2.231,2.231,2.2344,2.2682,2.3072,2.3522,-0.6891,-0.7281,-0.7901,-0.9043,-0.9486,-1.005,-1.1023,-1.1844,-1.2212,-1.1917,-1.2941,-1.3652,-1.34,-1.37,-1.3967,-1.3967,-1.3967,-1.3836,-1.3516,-1.3831,-1.3728,-1.2939,-1.38,-1.4433,-1.4698,-1.4433,-1.434,-1.4468,-1.434,-1.4294,-1.4294,-1.4294,-1.4014,-1.36,-1.3389,-1.3064,-1.2608,-1.1882,-1.1819,-1.2277,-1.2484,-1.1082,-0.8836,-0.9133,-0.8864,-0.8319,-0.8435,-0.8964,-0.9673,-0.9974,-0.985,-0.9511,-0.9241,-0.8757,-0.8163,-0.7674,-0.7255,-0.6979,-0.6979,-0.6979,-0.6979,-0.6979,-0.6894,-0.6683,-0.6307,-0.6093,-0.583,-0.5216,-0.4902,-0.4679,-0.4642,-0.4386,-0.4204,-0.427,0.0,0.0,0.0,-0.6791,-0.8151,-0.8896,-1.064,-1.1905,-1.2329,-1.1319,-1.0425,-1.0084,-0.503,0.06,0.6608,1.3292,1.791,2.0058,2.1728,2.2535,2.2401,2.2422,2.2394,2.231,2.231,2.231,2.231,2.231,2.231,2.231,2.231,2.231,2.231,2.231,2.231,2.231,2.231,2.231,2.2327,2.2496,2.3026,2.3762,-0.7369,-0.7451,-0.7865,-0.9516,-0.9392,-0.967,-1.1469,-1.1337,-1.136,-1.2325,-1.2531,-1.2719,-1.291,-1.3271,-1.3535,-1.3535,-1.3535,-1.3525,-1.3506,-1.3194,-1.2959,-1.2881,-1.2978,-1.3573,-1.4663,-1.361,-1.3286,-1.3873,-1.3286,-1.3017,-1.3017,-1.3017,-1.3017,-1.292,-1.2227,-1.1913,-1.1814,-1.1166,-1.0679,-1.0495,-1.1302,-1.0474,-0.8961,-1.0169,-0.9026,-0.6823,-0.734,-0.7694,-0.7871,-0.7925,-0.8368,-0.8803,-0.8565,-0.8232,-0.7896,-0.7607,-0.7255,-0.6979,-0.6979,-0.6979,-0.6979,-0.6979,-0.6647,-0.6264,-0.6227,-0.5787,-0.5173,-0.4609,-0.4587,-0.4509,-0.3969,-0.4043,-0.427,-0.4446,0.0,0.0,-0.4418,-0.5222,-0.6009,-0.6747,-0.8053,-0.957,-1.1251,-0.912,-0.7144,-0.6015,0.0449,0.5353,0.7761,1.3633,1.8658,2.2502,2.3137,2.3154,2.2678,2.2782,2.2667,2.231,2.231,2.231,2.231,2.231,2.231,2.231,2.231,2.231,2.231,2.231,2.231,2.231,2.231,2.231,2.2395,2.3071,2.3799,2.4529,-0.711,-0.7617,-0.8195,-0.9203,-0.9533,-0.9786,-1.013,-1.0365,-1.0624,-1.0825,-1.1556,-1.2085,-1.2187,-1.2752,-1.2947,-1.2469,-1.2469,-1.2259,-1.1855,-1.1663,-1.1999,-1.2881,-1.2881,-1.3113,-1.3563,-1.3104,-1.2803,-1.255,-1.2325,-1.199,-1.1584,-1.1584,-1.1584,-1.1584,-1.1316,-1.1166,-1.1166,-1.0466,-1.0167,-1.0115,-0.928,-0.8883,-0.8871,-0.9344,-0.8558,-0.6961,-0.5981,-0.6215,-0.7074,-0.7563,-0.7781,-0.7909,-0.8042,-0.7652,-0.6982,-0.6301,-0.6047,-0.5956,-0.5956,-0.6234,-0.6435,-0.6039,-0.5782,-0.5524,-0.5173,-0.4913,-0.4565,-0.4008,-0.3976,-0.3967,-0.3805,-0.391,-0.3813,-0.3184,0.0,-0.2972,-0.4334,-0.4718,-0.5311,-0.646,-0.732,-0.7664,-0.7067,-0.4432,-0.2338,-0.1229,0.3613,0.8421,1.2777,1.7288,2.0659,2.266,2.33,2.362,2.3612,2.2892,2.2583,2.2667,2.2422,2.231,2.231,2.231,2.231,2.231,2.231,2.231,2.231,2.231,2.231,2.231,2.231,2.231,2.2344,2.2615,2.346,2.4543,-0.6986,-0.7637,-0.823,-0.908,-0.9554,-0.9694,-0.9268,-0.9578,-0.9817,-0.9792,-1.0618,-1.1316,-1.1765,-1.2236,-1.2344,-1.1864,-1.1814,-1.1516,-1.0864,-1.0813,-1.1225,-1.2206,-1.2255,-1.2255,-1.2255,-1.2255,-1.199,-1.1466,-1.1466,-1.1266,-1.0813,-1.0813,-1.0813,-1.0813,-1.0568,-1.0356,-1.0084,-0.9681,-0.933,-0.8942,-0.7652,-0.7456,-0.7878,-0.8045,-0.7415,-0.6372,-0.5454,-0.5474,-0.5931,-0.6405,-0.6737,-0.6967,-0.7151,-0.674,-0.6091,-0.5479,-0.5288,-0.5267,-0.5053,-0.5331,-0.5572,-0.5361,-0.5149,-0.4927,-0.4478,-0.4264,-0.4049,-0.3667,-0.3581,-0.3609,-0.3707,-0.3775,-0.3557,-0.2766,-0.1988,-0.1874,-0.2913,-0.3912,-0.4869,-0.5802,-0.5729,-0.486,-0.3182,-0.0544,0.1683,0.3207,0.6843,1.1442,1.7073,2.0079,2.1939,2.2608,2.3441,2.3934,2.4055,2.308,2.2667,2.2825,2.2487,2.231,2.231,2.231,2.231,2.231,2.231,2.231,2.231,2.231,2.231,2.231,2.231,2.2446,2.2649,2.2649,2.3579,2.4847,-0.7172,-0.7521,-0.7939,-0.9435,-0.943,-0.9183,-0.9183,-0.8991,-0.9061,-0.9718,-0.9814,-1.032,-1.1665,-1.1765,-1.1814,-1.1765,-1.1765,-1.1516,-1.0813,-1.0762,-1.0762,-1.0762,-1.0813,-1.0813,-1.0813,-1.0813,-1.0813,-1.0813,-1.0813,-1.0762,-1.0762,-1.0762,-1.0762,-1.0762,-1.0064,-0.9384,-0.8685,-0.8745,-0.7943,-0.6588,-0.6588,-0.6298,-0.5955,-0.6411,-0.5692,-0.4689,-0.6059,-0.5539,-0.4195,-0.4195,-0.5065,-0.6117,-0.5795,-0.5524,-0.5303,-0.5303,-0.5303,-0.5173,-0.4561,-0.4387,-0.4522,-0.5125,-0.4838,-0.4397,-0.4399,-0.3965,-0.3581,-0.3581,-0.3581,-0.3581,-0.3581,-0.3619,-0.3586,-0.3595,-0.1575,-0.0,-0.0,-0.26,-0.4485,-0.4488,-0.2728,-0.111,-0.0111,0.2038,0.4446,0.7085,1.0491,1.4689,1.9924,2.1289,2.2153,2.2695,2.3671,2.4036,2.3714,2.3369,2.3045,2.2695,2.2426,2.231,2.231,2.231,2.231,2.231,2.231,2.231,2.231,2.231,2.231,2.231,2.231,2.275,2.3393,2.3393,2.4323,2.5592,-0.7135,-0.7795,-0.8392,-0.92,-0.926,-0.9126,-0.8938,-0.8864,-0.8857,-0.9061,-0.9517,-0.9961,-1.0364,-1.0813,-1.0914,-1.0415,-1.0415,-1.0115,-0.9465,-0.9413,-0.9413,-0.9413,-1.0312,-1.0813,-1.0813,-1.0813,-1.0568,-1.0115,-1.0115,-0.9865,-0.9413,-0.8869,-0.86,-0.86,-0.7859,-0.7433,-0.7278,-0.7657,-0.7566,-0.7112,-0.6381,-0.6218,-0.6282,-0.5449,-0.4838,-0.4546,-0.5,-0.4707,-0.416,-0.403,-0.4488,-0.5092,-0.4844,-0.4741,-0.4609,-0.4228,-0.4011,-0.3875,-0.3848,-0.3722,-0.3705,-0.4049,-0.3991,-0.3854,-0.3851,-0.3714,-0.3581,-0.3592,-0.3585,-0.3581,-0.3592,-0.3594,-0.3585,-0.3589,-0.1562,-0.0,-0.0,-0.0778,-0.1711,-0.2743,-0.1437,-0.0056,0.0944,0.4142,0.6568,0.7469,1.1816,1.6106,1.9974,2.1289,2.2243,2.3045,2.3795,2.4151,2.4036,2.3629,2.3407,2.3392,2.2651,2.2415,2.2573,2.2388,2.231,2.231,2.231,2.231,2.231,2.231,2.231,2.231,2.231,2.2446,2.2632,2.2632,2.3562,2.4814,-0.7247,-0.7817,-0.8325,-0.8924,-0.9049,-0.899,-0.8811,-0.8804,-0.8804,-0.8804,-0.9159,-0.9517,-0.9762,-1.0167,-1.0214,-0.9685,-0.9264,-0.8897,-0.8457,-0.8457,-0.8331,-0.8114,-0.8897,-0.9422,-0.9577,-0.9577,-0.9214,-0.8547,-0.8547,-0.8343,-0.7937,-0.745,-0.7289,-0.7235,-0.6804,-0.6421,-0.6204,-0.6846,-0.6747,-0.6187,-0.5576,-0.5529,-0.5703,-0.4809,-0.4436,-0.4318,-0.4449,-0.4282,-0.3946,-0.3834,-0.3997,-0.4233,-0.4128,-0.4092,-0.4008,-0.3714,-0.352,-0.3415,-0.3387,-0.3042,-0.2855,-0.3455,-0.3255,-0.2904,-0.2865,-0.2907,-0.304,-0.3503,-0.3226,-0.3043,-0.3509,-0.3609,-0.3296,-0.2339,-0.0963,0.0329,0.1298,0.1444,0.0979,-0.032,0.1133,0.246,0.3157,0.6067,0.8574,1.0224,1.3878,1.7277,2.0039,2.1289,2.2297,2.3165,2.3837,2.419,2.419,2.393,2.3741,2.3692,2.2875,2.2537,2.2695,2.2426,2.231,2.231,2.231,2.231,2.231,2.231,2.231,2.231,2.231,2.2564,2.2948,2.3112,2.4108,2.536,-0.7435,-0.7741,-0.7996,-0.8699,-0.8804,-0.8804,-0.8804,-0.8784,-0.8764,-0.8764,-0.8744,-0.8926,-0.9578,-0.9629,-0.9511,-0.9264,-0.8414,-0.7882,-0.7882,-0.7841,-0.7599,-0.7107,-0.7043,-0.7159,-0.7482,-0.7547,-0.7222,-0.6582,-0.6582,-0.6592,-0.6558,-0.6504,-0.6514,-0.648,-0.6426,-0.6041,-0.5437,-0.6142,-0.5656,-0.448,-0.4193,-0.4076,-0.4135,-0.4405,-0.4314,-0.4082,-0.4341,-0.4089,-0.3598,-0.3585,-0.3592,-0.3581,-0.3581,-0.3524,-0.3426,-0.3439,-0.3422,-0.3413,-0.3208,-0.2517,-0.2159,-0.3297,-0.2786,-0.1899,-0.1677,-0.1638,-0.1954,-0.3034,-0.2591,-0.2237,-0.3111,-0.3293,-0.2476,-0.009,0.0314,0.108,0.3188,0.3675,0.3517,0.2681,0.444,0.588,0.6109,0.7847,1.0523,1.4293,1.6211,1.811,2.0172,2.1305,2.2287,2.3159,2.3855,2.419,2.419,2.4192,2.4049,2.3753,2.3063,2.2738,2.2721,2.2426,2.231,2.231,2.2338,2.2349,2.2349,2.2377,2.2377,2.2377,2.2349,2.2963,2.388,2.4313,2.5357,2.6627,-0.754,-0.8143,-0.8593,-0.8752,-0.8804,-0.8804,-0.8804,-0.8617,-0.847,-0.847,-0.8263,-0.8165,-0.8304,-0.8304,-0.8276,-0.8215,-0.801,-0.7882,-0.7882,-0.7527,-0.7206,-0.7092,-0.6628,-0.6176,-0.5663,-0.6211,-0.6459,-0.631,-0.631,-0.6354,-0.6431,-0.5859,-0.5624,-0.571,-0.5179,-0.486,-0.475,-0.4875,-0.4772,-0.4311,-0.1948,-0.0962,-0.1226,-0.3606,-0.4448,-0.4343,-0.3955,-0.3716,-0.3594,-0.3618,-0.3605,-0.3581,-0.3581,-0.2971,-0.2207,-0.2209,-0.2183,-0.2395,-0.3268,-0.3025,-0.2679,-0.3431,-0.3394,-0.2725,-0.0808,-0.0373,-0.0468,-0.0725,-0.2063,-0.27,-0.1078,-0.0763,-0.0,0.2429,0.2837,0.2761,0.2538,0.4319,0.554,0.5333,0.6318,0.7283,0.8039,0.9893,1.2196,1.4896,1.6397,1.8264,2.0684,2.1503,2.2285,2.3182,2.3847,2.419,2.419,2.4206,2.4149,2.4074,2.3253,2.2943,2.3069,2.2544,2.231,2.231,2.2527,2.2625,2.2634,2.289,2.2989,2.2965,2.273,2.2919,2.3415,2.391,2.4811,2.5941,-0.799,-0.8533,-0.8804,-0.8804,-0.8804,-0.8804,-0.8804,-0.8564,-0.8427,-0.8427,-0.8116,-0.7882,-0.7882,-0.7882,-0.7869,-0.7722,-0.7309,-0.7096,-0.7096,-0.6545,-0.613,-0.5835,-0.5505,-0.5047,-0.4412,-0.4781,-0.5009,-0.514,-0.514,-0.5192,-0.5242,-0.4903,-0.4801,-0.4883,-0.459,-0.4115,-0.3464,-0.4181,-0.4513,-0.4234,-0.1198,-0.0,-0.0155,-0.1777,-0.2349,-0.2449,-0.3316,-0.3585,-0.3589,-0.3618,-0.3612,-0.3612,-0.3619,-0.3169,-0.245,-0.1291,-0.0958,-0.1088,-0.1725,-0.2268,-0.2555,-0.2023,-0.1871,-0.156,-0.0272,-0.0,-0.0,-0.0,-0.1023,-0.1131,0.1251,0.1708,0.199,0.2814,0.3431,0.3648,0.3199,0.4737,0.6016,0.6245,0.7222,0.8617,1.0501,1.2087,1.3941,1.6063,1.7531,1.9134,2.0894,2.1628,2.2363,2.3186,2.3703,2.4036,2.419,2.419,2.419,2.419,2.3422,2.317,2.3414,2.2651,2.236,2.25,2.2634,2.2695,2.2721,2.3069,2.3189,2.3189,2.3021,2.3141,2.3534,2.4416,2.5535,2.6792,-0.8292,-0.8678,-0.8751,-0.8798,-0.8764,-0.8731,-0.8731,-0.8444,-0.8266,-0.8266,-0.7963,-0.7729,-0.7729,-0.7682,-0.7595,-0.7379,-0.6582,-0.6096,-0.6091,-0.5481,-0.488,-0.4341,-0.4271,-0.4037,-0.3541,-0.3565,-0.37,-0.3944,-0.3944,-0.3909,-0.3936,-0.4048,-0.4016,-0.3886,-0.4314,-0.3799,-0.2622,-0.3399,-0.3714,-0.3503,-0.1002,-0.0,-0.0,-0.0,-0.0,-0.0282,-0.2268,-0.3009,-0.3031,-0.3229,-0.3409,-0.3581,-0.3608,-0.3324,-0.2575,-0.057,-0.0,0.0077,0.0516,-0.0546,-0.1445,-0.0103,0.0272,0.0349,0.0569,0.0624,0.0634,0.0615,0.0457,0.0933,0.2901,0.3471,0.3333,0.2597,0.3337,0.4079,0.435,0.5177,0.5982,0.6646,0.818,1.0181,1.258,1.4049,1.5509,1.7083,1.8702,2.0008,2.0959,2.1694,2.2451,2.3194,2.3526,2.3862,2.4208,2.419,2.419,2.419,2.371,2.3651,2.3869,2.2893,2.2649,2.2989,2.304,2.2995,2.2915,2.3537,2.3601,2.3387,2.3465,2.3607,2.3934,2.5231,2.672,2.812,-0.7443,-0.8113,-0.851,-0.8764,-0.8597,-0.843,-0.843,-0.8004,-0.7634,-0.7634,-0.7328,-0.7105,-0.7105,-0.6921,-0.6754,-0.6707,-0.6145,-0.571,-0.5597,-0.492,-0.4375,-0.4052,-0.3814,-0.3601,-0.334,-0.351,-0.3598,-0.3639,-0.3639,-0.3664,-0.3656,-0.3659,-0.3229,-0.2518,-0.3909,-0.4383,-0.402,-0.1616,-0.0606,-0.0555,-0.0146,-0.0,-0.0,-0.0,-0.0,-0.0045,-0.0361,-0.0494,-0.0667,-0.1684,-0.2758,-0.3605,-0.3602,-0.2165,-0.0429,-0.0113,-0.0,0.0441,0.2564,0.2564,0.1824,0.126,0.1331,0.1803,0.2812,0.3087,0.3098,0.3107,0.2272,0.1638,0.1964,0.2912,0.3601,0.3644,0.3809,0.4197,0.5042,0.5808,0.6797,0.8215,1.0664,1.2349,1.2764,1.4824,1.6426,1.7137,1.8702,2.0008,2.0959,2.1707,2.2432,2.3175,2.3527,2.3856,2.419,2.419,2.419,2.4208,2.4523,2.4699,2.4703,2.3596,2.3481,2.4191,2.4474,2.4213,2.3696,2.543,2.5317,2.4109,2.4512,2.4454,2.4315,2.5884,2.747,2.8858,-0.7095,-0.772,-0.8163,-0.8297,-0.821,-0.813,-0.813,-0.7749,-0.7513,-0.7513,-0.7208,-0.6979,-0.6979,-0.672,-0.6547,-0.6587,-0.5681,-0.5047,-0.4991,-0.4165,-0.3636,-0.3506,-0.337,-0.3293,-0.3182,-0.3286,-0.3074,-0.2581,-0.2577,-0.2618,-0.2621,-0.3281,-0.3364,-0.2942,-0.2278,-0.1994,-0.1896,-0.0555,-0.0,-0.0,-0.0,-0.0,-0.0,-0.0,-0.0,-0.0,-0.0,-0.0,-0.0086,-0.0605,-0.1149,-0.1414,-0.0406,0.0899,0.184,0.0989,0.0851,0.1241,0.2315,0.2746,0.2894,0.2838,0.3169,0.3695,0.4356,0.4709,0.4635,0.3763,0.3674,0.369,0.3456,0.4427,0.5172,0.51,0.5216,0.548,0.5976,0.6654,0.7832,0.9651,1.1926,1.3632,1.4231,1.5842,1.7233,1.809,1.954,2.0567,2.0959,2.191,2.2669,2.3193,2.3516,2.3868,2.419,2.419,2.419,2.4208,2.4858,2.5181,2.516,2.473,2.4842,2.5351,2.551,2.5122,2.449,2.5993,2.5915,2.4942,2.5607,2.5993,2.63,2.7019,2.7989,2.8994]},{"header":{"parameterUnit":"m.s-1","parameterCategory":1,"la1":30.6,"la2":28.766,"lo1":-90.7593,"lo2":-88.6598,"dy":0.0162,"dx":0.0183,"nx":116,"ny":114,"refTime":"2023-08-26T00:00:00:Z","depth":0,"parameterNumber":3,"parameterNumberName":"V-component_of_WINDS"},"data":[0.0,0.0,0.0,0.0,0.0,0.0,0.0,0.0,0.0,0.0,0.0,0.0,0.0,0.0,0.0,0.0,0.0,0.0,0.0,0.0,0.0,0.0,0.0,0.0,0.0,0.0,0.0,0.0,0.0,0.0,0.0,0.0,0.0,0.0,0.0,0.0,0.0,0.0,0.0,0.0,0.0,0.0,0.0,0.0,0.0,0.0,0.0,0.0,0.0,0.0,0.0,0.0,0.0,0.0,0.0,0.0,0.0,0.0,0.0,0.0,0.0,0.0,0.0,0.0,0.0,0.0,0.0,0.0,0.0,0.0,0.0,0.0,0.0,0.0,0.0,0.0,0.0,0.0,0.0,0.0,0.0,0.0,0.0,0.0,0.0,0.0,0.0,0.0,0.0,0.0,0.0,0.0,0.0,0.0,0.0,0.0,0.0,0.0,0.0,0.0,0.0,0.0,0.0,0.0,0.0,0.0,0.0,0.0,0.0,0.0,0.0,0.0,0.0,0.0,0.0,0.0,0.0,0.0,0.0,0.0,0.0,0.0,0.0,0.0,0.0,0.0,0.0,0.0,0.0,0.0,0.0,0.0,0.0,0.0,0.0,0.0,0.0,0.0,0.0,0.0,0.0,0.0,0.0,0.0,0.0,0.0,0.0,0.0,0.0,0.0,0.0,0.0,0.0,0.0,0.0,0.0,0.0,0.0,0.0,0.0,0.0,0.0,0.0,0.0,0.0,0.0,0.0,0.0,0.0,0.0,0.0,0.0,0.0,0.0,0.0,0.0,0.0,0.0,0.0,0.0,0.0,0.0,0.0,0.0,0.0,0.0,0.0,0.0,0.0,0.0,0.0,0.0,0.0,0.0,0.0,0.0,0.0,0.0,0.0,0.0,0.0,0.0,0.0,0.0,0.0,0.0,0.0,0.0,0.0,0.0,0.0,0.0,0.0,0.0,0.0,0.0,0.0,0.0,0.0,0.0,0.0,0.0,0.0,0.0,0.0,0.0,0.0,0.0,0.0,0.0,0.0,0.0,0.0,0.0,0.0,0.0,0.0,0.0,0.0,0.0,0.0,0.0,0.0,0.0,0.0,0.0,0.0,0.0,0.0,0.0,0.0,0.0,0.0,0.0,0.0,0.0,0.0,0.0,0.0,0.0,0.0,0.0,0.0,0.0,0.0,0.0,0.0,0.0,0.0,0.0,0.0,0.0,0.0,0.0,0.0,0.0,0.0,0.0,0.0,0.0,0.0,0.0,0.0,0.0,0.0,0.0,0.0,0.0,0.0,0.0,0.0,0.0,0.0,0.0,0.0,0.0,0.0,0.0,0.0,0.0,0.0,0.0,0.0,0.0,0.0,0.0,0.0,0.0,0.0,0.0,0.0,0.0,0.0,0.0,0.0,0.0,0.0,0.0,0.0,0.0,0.0,0.0,0.0,0.0,0.0,0.0,0.0,0.0,0.0,0.0,0.0,0.0,0.0,0.0,0.0,0.0,0.0,0.0,0.0,0.0,0.0,0.0,0.0,0.0,0.0,0.0,0.0,0.0,0.0,0.0,0.0,0.0,0.0,0.0,0.0,0.0,0.0,0.0,0.0,0.0,0.0,0.0,0.0,0.0,0.0,0.0,0.0,0.0,0.0,0.0,0.0,0.0,0.0,0.0,0.0,0.0,0.0,0.0,0.0,0.0,0.0,0.0,0.0,0.0,0.0,0.0,0.0,0.0,0.0,0.0,0.0,0.0,0.0,0.0,0.0,0.0,0.0,0.0,0.0,0.0,0.0,0.0,0.0,0.0,0.0,0.0,0.0,0.0,0.0,0.0,0.0,0.0,0.0,0.0,0.0,0.0,0.0,0.0,0.0,0.0,0.0,0.0,0.0,0.0,0.0,0.0,0.0,0.0,0.0,0.0,0.0,0.0,0.0,0.0,0.0,0.0,0.0,0.0,0.0,0.0,0.0,0.0,0.0,0.0,0.0,0.0,0.0,0.0,0.0,0.0,0.0,0.0,0.0,0.0,0.0,0.0,0.0,0.0,0.0,0.0,0.0,0.0,0.0,0.0,0.0,0.0,0.0,0.0,0.0,0.0,0.0,0.0,0.0,0.0,0.0,0.0,0.0,0.0,0.0,0.0,0.0,0.0,0.0,0.0,0.0,0.0,0.0,0.0,0.0,0.0,0.0,0.0,0.0,0.0,0.0,0.0,0.0,0.0,0.0,0.0,0.0,0.0,0.0,0.0,0.0,0.0,0.0,0.0,0.0,0.0,0.0,0.0,0.0,0.0,0.0,0.0,0.0,0.0,0.0,0.0,0.0,0.0,0.0,0.0,0.0,0.0,0.0,0.0,0.0,0.0,0.0,0.0,0.0,0.0,0.0,0.0,0.0,0.0,0.0,0.0,0.0,0.0,0.0,0.0,0.0,0.0,0.0,0.0,0.0,0.0,0.0,0.0,0.0,0.0,0.0,0.0,0.0,0.0,0.0,0.0,0.0,0.0,0.0,0.0,0.0,0.0,0.0,0.0,0.0,0.0,0.0,0.0,0.0,0.0,0.0,0.0,0.0,0.0,0.0,0.0,0.0,0.0,0.0,0.0,0.0,0.0,0.0,0.0,0.0,0.0,0.0,0.0,0.0,0.0,0.0,0.0,0.0,0.0,0.0,0.0,0.0,0.0,0.0,0.0,0.0,0.0,0.0,0.0,0.0,0.0,0.0,0.0,0.0,0.0,0.0,0.0,0.0,0.0,0.0,0.0,0.0,0.0,0.0,0.0,0.0,0.0,0.0,0.0,0.0,0.0,0.0,0.0,0.0,0.0,0.0,0.0,0.0,0.0,0.0,0.0,0.0,0.0,0.0,0.0,0.0,0.0,0.0,0.0,0.0,0.0,0.0,0.0,0.0,0.0,0.0,0.0,0.0,0.0,0.0,0.0,0.0,0.0,0.0,0.0,0.0,0.0,0.0,0.0,0.0,0.0,0.0,0.0,0.0,0.0,0.0,0.0,0.0,0.0,0.0,0.0,0.0,0.0,0.0,0.0,0.0,0.0,0.0,0.0,0.0,0.0,0.0,0.0,0.0,0.0,0.0,0.0,0.0,0.0,0.0,0.0,0.0,0.0,0.0,0.0,0.0,0.0,0.0,0.0,0.0,0.0,0.0,0.0,0.0,0.0,0.0,0.0,0.0,0.0,0.0,0.0,0.0,0.0,0.0,0.0,0.0,0.0,0.0,0.0,0.0,0.0,0.0,0.0,0.0,0.0,0.0,0.0,0.0,0.0,0.0,0.0,0.0,0.0,0.0,0.0,0.0,0.0,0.0,0.0,0.0,0.0,0.0,0.0,0.0,0.0,0.0,0.0,0.0,0.0,0.0,0.0,0.0,0.0,0.0,0.0,0.0,0.0,0.0,0.0,0.0,0.0,0.0,0.0,0.0,0.0,0.0,0.0,0.0,0.0,0.0,0.0,0.0,0.0,0.0,0.0,0.0,0.0,0.0,0.0,0.0,0.0,0.0,0.0,0.0,0.0,0.0,0.0,0.0,0.0,0.0,0.0,0.0,0.0,0.0,0.0,0.0,0.0,0.0,0.0,0.0,0.0,0.0,0.0,0.0,0.0,0.0,0.0,0.0,0.0,0.0,0.0,0.0,0.0,0.0,0.0,0.0,0.0,0.0,0.0,0.0,0.0,0.0,0.0,0.0,0.0,0.0,0.0,0.0,0.0,0.0,0.0,0.0,0.0,0.0,0.0,0.0,0.0,0.0,0.0,0.0,0.0,0.0,0.0,0.0,0.0,0.0,0.0,0.0,0.0,0.0,0.0,0.0,0.0,0.0,0.0,0.0,0.0,0.0,0.0,0.0,0.0,0.0,0.0,0.0,0.0,0.0,0.0,0.0,0.0,0.0,0.0,0.0,0.0,0.0,0.0,0.0,0.0,0.0,0.0,0.0,0.0,0.0,0.0,0.0,0.0,0.0,0.0,0.0,0.0,0.0,0.0,0.0,0.0,0.0,0.0,0.0,0.0,0.0,0.0,0.0,0.0,0.0,0.0,0.0,0.0,0.0,0.0,0.0,0.0,0.0,0.0,0.0,0.0,0.0,0.0,0.0,0.0,0.0,0.0,0.0,0.0,0.0,0.0,0.0,0.0,0.0,0.0,0.0,0.0,0.0,0.0,0.0,0.0,0.0,0.0,0.0,0.0,0.0,0.0,0.0,0.0,0.0,0.0,0.0,0.0,0.0,0.0,0.0,0.0,0.0,0.0,0.0,0.0,0.0,0.0,0.0,0.0,0.0,0.0,0.0,0.0,0.0,0.0,0.0,0.0,0.0,0.0,0.0,0.0,0.0,0.0,0.0,0.0,0.0,0.0,0.0,0.0,0.0,0.0,0.0,0.0,0.0,0.0,0.0,0.0,0.0,0.0,0.0,0.0,0.0,0.0,0.0,0.0,0.0,0.0,0.0,0.0,0.0,0.0,0.0,0.0,0.0,0.0,0.0,0.0,0.0,0.0,0.0,0.0,0.0,0.0,0.0,0.0,0.0,0.0,0.0,0.0,0.0,0.0,0.0,0.0,0.0,0.0,0.0,0.0,0.0,0.0,0.0,0.0,0.0,0.0,0.0,0.0,0.0,0.0,0.0,0.0,0.0,0.0,0.0,0.0,0.0,0.0,0.0,0.0,0.0,0.0,0.0,0.0,0.0,0.0,0.0,0.0,0.0,0.0,0.0,0.0,0.0,0.0,0.0,0.0,0.0,0.0,0.0,0.0,0.0,0.0,0.0,0.0,0.0,0.0,0.0,0.0,0.0,0.0,0.0,0.0,0.0,0.0,0.0,0.0,0.0,0.0,0.0,0.0,0.0,0.0,0.0,0.0,0.0,0.0,0.0,0.0,0.0,0.0,0.0,0.0,0.0,0.0,0.0,0.0,0.0,0.0,0.0,0.0,0.0,0.0,0.0,0.0,0.0,0.0,0.0,0.0,0.0,0.0,0.0,0.0,0.0,0.0,0.0,0.0,0.0,0.0,0.0,0.0,0.0,0.0,0.0,0.0,0.0,0.0,0.0,0.0,0.0,0.0,0.0,0.0,0.0,0.0,0.0,0.0,0.0,0.0,0.0,0.0,0.0,0.0,0.0,0.0,0.0,0.0,0.0,0.0,0.0,0.0,0.0,0.0,0.0,0.0,0.0,0.0,0.0,0.0,0.0,0.0,0.0,0.0,0.0,0.0,0.0,0.0,0.0,0.0,0.0,0.0,0.0,0.0,0.0,0.0,0.0,0.0,0.0,0.0,0.0,0.0,0.0,0.0,0.0,0.0,0.0,0.0,0.0,0.0,0.0,0.0,0.0,0.0,0.0,0.0,0.0,0.0,0.0,0.0,0.0,0.0,0.0,0.0,0.0,0.0,0.0,0.0,0.0,0.0,0.0,0.0,0.0,0.0,0.0,0.0,0.0,0.0,0.0,0.0,0.0,0.0,0.0,0.0,0.0,0.0,0.0,0.0,0.0,0.0,0.0,0.0,0.0,0.0,0.0,0.0,0.0,0.0,0.0,0.0,0.0,0.0,0.0,0.0,0.0,0.0,0.0,0.0,0.0,0.0,0.0,0.0,0.0,0.0,0.0,0.0,0.0,0.0,0.0,0.0,0.0,0.0,0.0,0.0,0.0,0.0,0.0,0.0,0.0,0.0,0.0,0.0,0.0,0.0,0.0,0.0,0.0,0.0,0.0,0.0,0.0,0.0,0.0,0.0,0.0,0.0,0.0,0.0,0.0,0.0,0.0,0.0,0.0,0.0,0.0,0.0,0.0,0.0,0.0,0.0,0.0,0.0,0.0,0.0,0.0,0.0,0.0,0.0,0.0,0.0,0.0,0.0,0.0,0.0,0.0,0.0,0.0,0.0,0.0,0.0,0.0,0.0,0.0,0.0,0.0,0.0,0.0,0.0,0.0,0.0,0.0,0.0,0.0,0.0,0.0,0.0,0.0,0.0,0.0,0.0,0.0,0.0,0.0,0.0,0.0,0.0,0.0,0.0,0.0,0.0,0.0,0.0,0.0,0.0,0.0,0.0,0.0,0.0,0.0,0.0,0.0,0.0,0.0,0.0,0.0,0.0,0.0,0.0,-2.636,0.0,0.0,0.0,0.0,0.0,0.0,0.0,0.0,0.0,0.0,0.0,0.0,0.0,0.0,0.0,0.0,0.0,0.0,0.0,0.0,0.0,0.0,0.0,0.0,0.0,0.0,0.0,0.0,0.0,0.0,0.0,0.0,0.0,0.0,0.0,0.0,0.0,0.0,-3.2318,-3.1558,-3.0694,-2.9791,-2.9637,-3.0614,-3.2619,0.0,0.0,0.0,0.0,0.0,0.0,0.0,0.0,0.0,0.0,0.0,0.0,0.0,0.0,0.0,0.0,0.0,0.0,0.0,0.0,0.0,0.0,0.0,0.0,0.0,0.0,0.0,0.0,0.0,0.0,0.0,0.0,0.0,0.0,0.0,0.0,0.0,0.0,0.0,0.0,0.0,0.0,0.0,0.0,0.0,0.0,0.0,0.0,0.0,0.0,0.0,0.0,0.0,0.0,0.0,0.0,0.0,0.0,0.0,0.0,0.0,0.0,0.0,0.0,0.0,0.0,0.0,0.0,0.0,0.0,0.0,-2.6876,0.0,0.0,0.0,0.0,0.0,0.0,0.0,0.0,0.0,0.0,0.0,0.0,0.0,0.0,0.0,0.0,0.0,0.0,0.0,0.0,0.0,0.0,0.0,0.0,-1.8425,-2.4791,-2.6039,-2.7781,0.0,0.0,0.0,0.0,0.0,0.0,0.0,-3.4527,-3.4982,-3.4742,-3.3465,-3.2854,-3.2825,-3.4235,-3.4754,-3.4659,-3.6678,0.0,0.0,0.0,0.0,0.0,0.0,0.0,0.0,0.0,0.0,0.0,0.0,0.0,0.0,0.0,0.0,0.0,0.0,0.0,0.0,0.0,0.0,0.0,0.0,0.0,0.0,0.0,0.0,0.0,0.0,0.0,0.0,0.0,0.0,0.0,0.0,0.0,0.0,0.0,0.0,0.0,0.0,0.0,0.0,0.0,0.0,0.0,0.0,0.0,0.0,0.0,0.0,0.0,0.0,0.0,0.0,0.0,0.0,0.0,0.0,0.0,0.0,0.0,0.0,-3.1516,-3.3206,-3.2717,-3.2817,-3.3232,-2.9976,-2.8698,-2.8694,0.0,0.0,0.0,0.0,0.0,0.0,0.0,0.0,0.0,0.0,0.0,0.0,0.0,0.0,0.0,0.0,0.0,0.0,0.0,0.0,0.0,0.0,-1.6271,-2.0289,-2.5056,-2.658,-2.8606,0.0,0.0,0.0,0.0,0.0,0.0,-3.5238,-3.5922,-3.583,-3.4856,-3.3991,-3.3582,-3.3576,-3.5448,-3.6767,-3.7573,-3.8327,-3.9247,-4.0058,0.0,0.0,0.0,0.0,0.0,0.0,0.0,0.0,0.0,0.0,0.0,0.0,0.0,0.0,0.0,0.0,0.0,0.0,0.0,0.0,0.0,0.0,0.0,0.0,0.0,0.0,0.0,0.0,0.0,0.0,0.0,0.0,0.0,0.0,0.0,0.0,0.0,0.0,0.0,0.0,0.0,-0.7839,-0.8074,0.0,0.0,0.0,0.0,0.0,0.0,0.0,0.0,0.0,0.0,0.0,0.0,0.0,0.0,-2.3187,-2.6786,-2.8765,-2.9206,-3.2007,-3.3546,-3.3796,-3.3709,-3.3972,-3.4462,-3.3433,0.0,-3.1456,-2.8477,0.0,0.0,0.0,0.0,0.0,0.0,0.0,0.0,0.0,0.0,0.0,0.0,0.0,0.0,0.0,0.0,0.0,0.0,0.0,0.0,0.0,-1.6126,-1.95,-2.6375,-2.7535,-2.9419,-3.294,-3.2931,0.0,0.0,0.0,-3.5465,-3.6151,-3.6738,-3.6516,-3.5363,-3.5791,-3.5824,-3.549,-3.7469,-3.8986,-3.9999,-4.0099,-4.0407,-4.0803,-4.0159,0.0,0.0,0.0,0.0,0.0,0.0,0.0,0.0,0.0,0.0,0.0,0.0,0.0,0.0,0.0,0.0,0.0,0.0,0.0,0.0,0.0,0.0,0.0,0.0,0.0,0.0,0.0,0.0,0.0,0.0,0.0,0.0,0.0,0.0,0.0,0.0,0.0,0.0,0.0,-0.9497,-0.9267,-1.1805,-1.3466,-1.4813,0.0,0.0,0.0,0.0,0.0,0.0,0.0,0.0,0.0,-2.2055,-2.3484,-2.4727,-2.5991,-2.8804,-3.0705,-3.1541,-3.3698,-3.4989,-3.529,-3.529,-3.5416,-3.5629,-3.5391,-3.465,-3.3358,-3.0015,-2.8158,-2.7115,0.0,0.0,0.0,0.0,0.0,-2.2534,0.0,0.0,0.0,0.0,0.0,0.0,0.0,0.0,0.0,0.0,0.0,0.0,-1.5233,-1.6739,-1.9923,-2.7224,-2.8739,-3.0477,-3.3208,-3.3575,0.0,0.0,-3.5187,-3.6171,-3.6775,-3.7295,-3.7106,-3.6238,-3.7114,-3.7392,-3.7067,-3.8787,-4.0113,-4.1049,-4.1073,-4.1316,-4.1744,-4.1354,-4.0164,-3.8492,0.0,0.0,0.0,0.0,0.0,0.0,0.0,0.0,0.0,0.0,0.0,0.0,0.0,0.0,0.0,0.0,0.0,0.0,0.0,0.0,0.0,0.0,0.0,0.0,0.0,0.0,0.0,0.0,0.0,0.0,0.0,0.0,0.0,0.0,0.0,0.0,0.0,-0.9947,-1.1783,-1.4845,-1.6306,-1.7439,0.0,0.0,0.0,0.0,0.0,0.0,-2.1684,-2.2501,-2.3411,-2.4333,-2.5487,-2.6811,-2.8336,-3.0306,-3.203,-3.3491,-3.4972,-3.5968,-3.6358,-3.6358,-3.6358,-3.6358,-3.6358,-3.5893,-3.4857,-3.1274,-2.9207,-2.7964,-2.515,-2.4288,-2.4766,-2.4655,-2.548,-2.6504,0.0,0.0,0.0,0.0,0.0,0.0,0.0,0.0,0.0,0.0,0.0,-0.6275,-1.5857,-2.0013,-2.3524,-2.7063,-3.0282,-3.2004,-3.1829,-3.3149,-3.3653,-3.2902,-3.5543,-3.7105,-3.7254,-3.7535,-3.7664,-3.7682,-3.7129,-3.7162,-3.7748,-3.8623,-3.9358,-3.9909,-4.0613,-4.189,-4.3413,-4.1072,-4.0333,-4.0511,-3.7858,0.0,0.0,0.0,0.0,0.0,0.0,0.0,0.0,0.0,0.0,0.0,0.0,0.0,0.0,0.0,0.0,0.0,0.0,0.0,0.0,0.0,0.0,0.0,0.0,0.0,0.0,0.0,0.0,0.0,0.0,0.0,0.0,0.0,0.0,0.0,0.0,0.0,0.0,-1.5712,-1.8885,0.0,0.0,0.0,0.0,-2.2026,-2.3331,-2.4326,-2.4876,-2.4905,-2.5499,-2.6773,-2.6934,-2.8034,-3.0171,-3.1534,-3.2975,-3.4302,-3.5713,-3.6332,-3.6358,-3.6358,-3.6358,-3.6358,-3.6358,-3.6332,-3.6038,-3.202,-2.9703,-2.86,-2.6836,-2.6178,-2.6335,-2.7446,-2.7892,-2.7933,0.0,0.0,0.0,0.0,0.0,0.0,0.0,0.0,-2.0024,-1.2374,-0.9784,-1.078,-1.6357,-1.8167,-2.1334,-2.7192,-2.959,-3.069,-3.0535,-3.1511,-3.2184,-3.2466,-3.4457,-3.674,-3.9299,-3.8707,-3.7965,-3.7177,-3.7401,-3.7135,-3.6459,-3.7736,-3.8404,-3.8594,-3.9327,-4.0259,-4.121,-4.1202,-4.0948,-4.0382,-3.8726,-3.7165,0.0,0.0,0.0,0.0,0.0,0.0,0.0,0.0,0.0,0.0,0.0,0.0,0.0,0.0,0.0,0.0,0.0,0.0,0.0,0.0,0.0,0.0,0.0,0.0,0.0,0.0,0.0,0.0,0.0,0.0,0.0,0.0,0.0,0.0,0.0,0.0,0.0,-2.072,-2.2309,0.0,-2.3703,-2.4154,-2.4927,-2.6199,-2.6467,-2.7072,-2.8489,-2.763,-2.7363,-2.7822,-2.7842,-2.9093,-3.152,-3.2028,-3.3441,-3.5667,-3.6156,-3.6358,-3.6358,-3.6358,-3.6358,-3.6358,-3.6358,-3.6157,-3.5662,-3.3074,-3.1739,-3.1204,-2.8858,-2.8321,-2.8969,-2.9102,-2.9879,-3.0568,0.0,0.0,0.0,0.0,0.0,0.0,0.0,0.0,-2.4763,-1.8461,-1.4487,-1.3224,-1.5973,-1.7087,-2.0382,-2.7309,-2.9457,-3.0119,-2.9389,-3.0434,-3.1106,-3.1257,-3.3881,-3.664,-3.9491,-3.8636,-3.7586,-3.6518,-3.6672,-3.6141,-3.4988,-3.6217,-3.6755,-3.6806,-3.7804,-3.8572,-3.9138,-4.0592,-4.089,-4.0266,-3.8962,-3.7479,-3.5846,0.0,0.0,0.0,0.0,0.0,0.0,0.0,0.0,0.0,0.0,0.0,0.0,0.0,0.0,0.0,0.0,0.0,0.0,0.0,0.0,0.0,0.0,0.0,0.0,0.0,0.0,0.0,0.0,0.0,0.0,0.0,0.0,0.0,0.0,0.0,-2.0837,-2.3647,-2.5292,-2.6454,-2.7092,-2.7788,-2.8562,-2.9352,-2.9055,-2.9126,-2.9928,-2.9013,-2.8437,-2.8301,-2.8428,-2.9761,-3.223,-3.2331,-3.3639,-3.6358,-3.6358,-3.6358,-3.6358,-3.6358,-3.6358,-3.6358,-3.6358,-3.6056,-3.5411,-3.409,-3.338,-3.2998,-3.0563,-2.9997,-3.0664,-3.0858,-3.1575,-3.2353,0.0,0.0,0.0,0.0,0.0,0.0,0.0,-3.0993,-2.5278,-1.8683,-1.4854,-1.3326,-1.4872,-1.7332,-2.125,-2.7294,-3.0076,-3.0529,-2.828,-2.9977,-3.0526,-2.9353,-3.3798,-3.6686,-3.7551,-3.7082,-3.6512,-3.5729,-3.4921,-3.4195,-3.3532,-3.4158,-3.4455,-3.4523,-3.6028,-3.7035,-3.7637,-3.9084,-3.9992,-4.0334,-3.8405,-3.7168,-3.6039,0.0,0.0,0.0,0.0,0.0,0.0,0.0,0.0,0.0,0.0,0.0,0.0,0.0,0.0,0.0,0.0,0.0,0.0,0.0,0.0,0.0,0.0,0.0,0.0,0.0,0.0,0.0,0.0,0.0,0.0,0.0,0.0,0.0,-1.6661,-2.0886,-2.4223,-2.427,-2.8025,-3.0398,-3.0088,-3.2024,-3.2771,-3.136,-3.1148,-3.0519,-2.9045,-2.8935,-2.874,-2.8301,-2.8682,-2.9931,-3.2241,-3.2331,-3.3639,-3.6358,-3.6358,-3.6358,-3.6358,-3.6358,-3.6358,-3.6358,-3.6358,-3.6056,-3.5529,-3.4951,-3.4412,-3.3771,-3.1995,-3.1223,-3.1412,-3.2612,-3.3056,-3.2867,0.0,0.0,0.0,0.0,0.0,0.0,0.0,-3.0921,-2.6523,-2.3544,-1.7392,-1.3489,-1.4357,-1.6622,-2.0253,-2.5538,-2.7726,-2.8225,-2.6733,-2.7448,-2.829,-2.9123,-3.0878,-3.2637,-3.4267,-3.3898,-3.3168,-3.2135,-3.2784,-3.2466,-3.1396,-3.2961,-3.3694,-3.3744,-3.4692,-3.5491,-3.6212,-3.7217,-3.8025,-3.8608,-3.8486,-3.7931,-3.7022,0.0,0.0,0.0,0.0,0.0,0.0,0.0,0.0,0.0,0.0,0.0,0.0,0.0,0.0,0.0,0.0,0.0,0.0,0.0,0.0,0.0,0.0,0.0,0.0,0.0,0.0,0.0,0.0,0.0,0.0,0.0,0.0,-2.163,-2.1501,-2.4022,-2.6704,-2.895,-3.1109,-3.2701,-3.3265,-3.3548,-3.3648,-3.3686,-3.2532,-3.1631,-3.1003,-3.0028,-2.9053,-2.831,-2.8408,-2.9731,-3.223,-3.2331,-3.3639,-3.6358,-3.6358,-3.6358,-3.6358,-3.6358,-3.6358,-3.6358,-3.6358,-3.6282,-3.6069,-3.5115,-3.4625,-3.431,-3.3071,-3.2612,-3.2612,-3.2982,-3.2554,-3.175,0.0,0.0,0.0,0.0,0.0,0.0,0.0,-2.8103,-2.3952,-2.0036,-1.5525,-1.2502,-1.2146,-1.513,-1.9065,-2.3793,-2.5308,-2.5737,-2.5121,-2.4388,-2.4107,-2.4396,-2.675,-2.8813,-3.049,-3.0919,-3.0687,-2.9722,-3.0612,-3.0533,-2.9529,-3.089,-3.1715,-3.2053,-3.3008,-3.3823,-3.4592,-3.5882,-3.656,-3.6813,-3.712,-3.7241,-3.7075,-3.5222,-3.4218,-3.3872,-3.3823,-3.3825,-3.3688,-3.2779,0.0,0.0,0.0,0.0,0.0,0.0,0.0,0.0,0.0,0.0,0.0,0.0,0.0,0.0,0.0,0.0,0.0,0.0,0.0,0.0,0.0,0.0,0.0,0.0,-2.3911,-2.5431,-2.6502,-2.7337,-2.8907,-3.1546,-3.3364,-3.4636,-3.543,-3.5783,-3.5608,-3.4926,-3.3528,-3.2091,-3.096,-2.9928,-2.8984,-2.831,-2.8467,-2.9792,-3.223,-3.2331,-3.3639,-3.6358,-3.6358,-3.6245,-3.6019,-3.6019,-3.5893,0.0,-3.5667,-3.5542,-3.5278,-3.4638,-3.4248,0.0,0.0,0.0,0.0,0.0,-3.1813,-3.1022,0.0,0.0,0.0,0.0,0.0,0.0,0.0,-2.4085,-1.9573,-1.2283,-1.1132,-1.0573,-0.938,-1.3037,-1.742,-2.1894,-2.2717,-2.2921,-2.2715,-2.0762,-1.8964,-1.7537,-2.1903,-2.5052,-2.6481,-2.8173,-2.8678,-2.7924,-2.8575,-2.8526,-2.7865,-2.8673,-2.9403,-3.0082,-3.1282,-3.2244,-3.3043,-3.4863,-3.5437,-3.5134,-3.5094,-3.5677,-3.6366,-3.4912,-3.437,-3.4303,-3.3728,-3.3567,-3.3592,-3.3507,0.0,0.0,0.0,0.0,0.0,0.0,0.0,0.0,0.0,0.0,0.0,0.0,0.0,0.0,0.0,0.0,0.0,0.0,0.0,0.0,0.0,0.0,0.0,0.0,-2.797,-2.9534,-3.0965,-3.0614,-3.0943,-3.2969,-3.5008,-3.6333,-3.6757,-3.7845,-3.7503,-3.5305,-3.376,-3.1922,-2.9695,0.0,0.0,0.0,0.0,-2.9901,-3.223,-3.2331,-3.3639,-3.6358,-3.6358,-3.6069,-3.5542,-3.5542,-3.524,-3.4726,-3.4726,-3.4449,-3.3985,-3.3859,-3.3483,-3.298,-3.298,-3.2667,-3.2139,-3.1524,-3.1009,0.0,0.0,0.0,0.0,0.0,0.0,0.0,0.0,-2.3224,-1.9349,-1.073,-0.8263,-0.7716,-0.8665,-1.0633,-1.3897,-1.9099,-1.9775,-1.8795,-1.6223,-1.6014,-1.5658,-1.4856,-1.7654,-2.0335,-2.2776,-2.5559,-2.638,-2.5077,-2.7227,-2.7635,-2.6442,-2.8475,-2.9489,-2.9661,-3.0884,-3.1823,-3.2563,-3.3617,-3.4323,-3.4777,-3.4453,-3.4579,-3.4844,-3.3947,-3.3609,-3.3677,-3.4117,-3.455,-3.4841,-3.4174,-3.4722,-3.5294,-3.3247,-3.2947,0.0,0.0,0.0,0.0,0.0,0.0,0.0,0.0,0.0,0.0,0.0,0.0,0.0,0.0,0.0,0.0,0.0,0.0,0.0,-2.7753,-2.906,-3.0705,-3.2888,-3.3305,-3.3843,-3.464,-3.6038,-3.7146,-3.7693,-3.6612,-3.5431,-3.4162,-3.2423,-3.0743,-2.9143,-2.8965,0.0,-2.8301,-2.8369,-2.97,-3.223,-3.2331,-3.3639,-3.6358,0.0,0.0,-3.5542,-3.5542,-3.524,-3.4726,-3.4726,-3.4663,-3.45,-3.3608,-3.2905,-3.2378,-3.2378,-3.2303,-3.2089,-3.1122,-3.0708,-3.0557,0.0,0.0,0.0,0.0,0.0,0.0,0.0,-1.7764,-1.376,-0.703,-0.4517,-0.381,-0.4924,-0.8788,-1.2421,-1.5313,-1.7235,-1.5217,-0.8119,-0.9149,-0.9547,-0.8447,-1.3015,-1.7173,-2.0597,-2.3335,-2.45,-2.4,-2.6106,-2.659,-2.5542,-2.7702,-2.8666,-2.8701,-2.9917,-3.1112,-3.2224,-3.2834,-3.3445,-3.3901,-3.3294,-3.3002,-3.2942,-3.325,-3.3556,-3.3796,-3.4172,-3.4604,-3.4944,-3.4521,-3.5102,-3.5678,-3.4109,-3.3991,-3.3996,0.0,0.0,0.0,0.0,0.0,0.0,0.0,0.0,0.0,0.0,0.0,0.0,0.0,0.0,-2.3958,0.0,0.0,-2.8793,-3.0457,-3.1204,-3.2268,-3.3918,-3.4169,-3.456,-3.5624,-3.6599,-3.7299,-3.7563,-3.6098,-3.482,-3.3881,-3.1887,-3.0144,-2.9015,-2.8721,-2.8506,-2.8301,-2.9006,-3.0317,-3.223,-3.3044,-3.4362,-3.6358,-3.6358,-3.5931,-3.514,-3.514,-3.4675,-3.3897,-3.3897,-3.3897,-3.3834,-3.2993,-3.2303,-3.1775,-3.1512,-3.1574,-3.1675,-3.0595,-3.0206,-3.0168,0.0,0.0,0.0,0.0,0.0,0.0,0.0,-1.2111,-0.7595,-0.3246,-0.1248,-0.0555,-0.1308,-0.7245,-1.1405,-1.2141,-1.4023,-1.0922,-0.0934,-0.282,-0.37,-0.2317,-0.9234,-1.5206,-1.9531,-2.2044,-2.3438,-2.3668,-2.53,-2.564,-2.491,-2.6906,-2.7807,-2.7834,-2.9228,-3.0571,-3.1828,-3.2265,-3.2719,-3.3081,-3.2322,-3.1876,-3.1788,-3.272,-3.3279,-3.3564,-3.372,-3.3949,-3.423,-3.4212,-3.4744,-3.5248,-3.4467,-3.4511,-3.4428,-3.2147,-3.0923,0.0,0.0,0.0,0.0,0.0,0.0,0.0,0.0,0.0,-1.9744,-2.2461,-2.4094,-2.5743,-2.8183,-2.9949,-3.161,-3.3284,-3.3563,-3.3832,-3.4575,-3.4336,-3.4512,-3.5742,-3.6458,-3.686,-3.686,-3.5525,-3.4318,-3.36,-3.1251,-2.956,-2.8769,-2.8476,-2.8281,-2.8155,-2.9438,-3.0753,-3.2197,-3.3424,-3.4776,-3.6263,-3.6081,-3.5529,-3.4562,-3.4562,-3.4022,-3.3068,-3.2955,-3.2855,-3.2717,-3.2252,-3.1738,-3.1198,-3.0796,-3.0896,-3.1135,-3.0156,-2.9792,-2.9869,0.0,0.0,0.0,0.0,0.0,0.0,0.0,0.0,-0.5087,-0.1296,-0.0133,-0.0065,-0.1013,-0.5838,-0.9757,-1.1452,-0.8595,-0.4024,0.2222,0.0009,-0.1284,-0.0703,-0.8394,-1.4998,-1.9952,-2.2684,-2.3907,-2.3607,-2.4916,-2.5165,-2.4433,-2.662,-2.7624,-2.772,-2.9826,-3.0865,-3.1071,-3.1651,-3.2317,-3.2945,-3.2283,-3.2397,-3.2925,-3.2169,-3.1777,-3.1696,-3.2368,-3.2559,-3.2566,-3.2511,-3.2976,-3.3462,-3.2713,-3.3003,-3.3276,-3.1563,-3.0242,-2.9177,-2.8373,-2.4846,-2.079,-1.8002,-1.761,-1.8082,0.0,0.0,-2.344,-2.561,-2.691,-2.8609,-3.1785,-3.2607,-3.3264,-3.4997,-3.5273,-3.5081,-3.4715,-3.4675,-3.4512,-3.4211,-3.509,-3.573,-3.573,-3.3856,-3.2533,-3.2499,-2.9973,-2.8524,-2.8359,-2.831,-2.8145,-2.7737,-2.8953,-3.0287,-3.1761,-3.2512,-3.3767,-3.5546,-3.5077,-3.4587,-3.3985,-3.3985,-3.3658,-3.3056,-3.2528,-3.2026,-3.1574,-3.1512,-3.1173,-3.0696,-3.08,-3.0918,-3.0893,-3.0121,-2.9792,-2.9934,0.0,0.0,0.0,0.0,0.0,0.0,0.0,0.0,0.0,0.0,0.2518,0.2386,0.0062,-0.4829,-0.7889,-0.7939,-0.4415,0.0278,0.6198,0.6337,0.428,0.0029,-0.5591,-1.2568,-2.107,-2.2698,-2.3533,-2.3732,-2.4907,-2.5093,-2.4346,-2.6394,-2.7363,-2.7438,-2.8817,-3.0281,-3.1638,-3.1392,-3.2327,-3.3883,-3.2631,-3.2595,-3.3231,-3.2331,-3.1961,-3.1821,-3.1291,-3.128,0.0,-3.0919,-3.1054,-3.1393,-3.1107,-3.1366,-3.1552,-3.0352,-2.9864,-2.9125,-2.6382,-2.2761,-1.9378,-1.7579,-1.7491,-1.8346,-1.9913,-2.178,-2.3985,-2.6852,-2.8195,-2.9661,-3.2018,-3.3212,-3.4065,0.0,-3.4367,-3.3977,-3.4237,-3.303,-3.2174,-3.1967,-3.2601,-3.3205,-3.3837,-3.2603,-3.1628,-3.1203,-2.9408,-2.8291,-2.8291,-2.8291,-2.8437,-2.872,-3.0005,-3.114,-3.2229,-3.3313,-3.4287,-3.5067,-3.4813,-3.4437,-3.3897,-3.3897,-3.3596,-3.3043,-3.2466,-3.1901,-3.1361,-3.106,-3.062,-3.0143,-3.0259,-3.0272,-3.0234,-2.9892,-2.977,-2.9934,0.0,0.0,0.0,0.0,0.0,0.0,0.0,0.0,0.0,0.0,0.4506,0.3563,-0.0484,-0.4263,-0.5964,-0.4613,-0.1266,0.3568,1.0134,1.0929,0.7941,0.0752,-0.3829,-1.1061,-2.1443,-2.2667,-2.349,-2.4083,-2.4911,-2.502,-2.4516,-2.6441,-2.7333,-2.7418,-2.8521,-3.0029,-3.1737,-3.1267,-3.2289,-3.4072,-3.3034,-3.3091,-3.3715,-3.2703,-3.2212,-3.1882,-3.0534,-3.0182,-3.0227,-2.9418,-2.9166,-2.9241,-2.955,-2.9774,-2.9804,-2.9162,-2.8552,-2.7209,-2.3234,-2.0044,-1.7637,-1.6675,-1.7045,-1.8324,-2.0684,-2.2684,-2.4892,-2.7675,-2.9376,-3.0859,-3.2495,-3.3567,-3.4162,-3.4162,-3.3303,-3.2561,-3.2641,-3.1109,-3.0003,-3.0015,-3.0332,-3.0726,-3.1228,-3.0935,-3.0567,-3.0021,-2.886,-2.8125,-2.8125,-2.8232,-2.871,-2.9571,-3.0651,-3.1792,-3.275,-3.3764,-3.4299,-3.4451,-3.4299,-3.406,-3.3671,-3.3671,-3.337,-3.2805,-3.224,-3.1675,-3.1135,-3.0608,-3.0156,-2.9792,-2.9792,-2.9792,-2.9907,-3.0984,-3.0748,-3.0025,0.0,0.0,0.0,0.0,0.0,0.0,0.0,0.0,0.0,0.0,0.0,0.0,0.0,-0.4461,-0.3989,-0.2432,0.0848,0.6086,1.3746,1.1897,0.7851,0.1814,-0.4221,-1.1562,-2.0352,-2.2799,-2.4238,-2.4764,-2.4807,-2.4844,-2.4932,-2.6815,-2.7721,-2.7871,-2.9704,-3.059,-3.0686,-3.1303,-3.2071,-3.2897,-3.3435,-3.415,-3.4698,-3.3243,-3.2164,-3.129,-3.0131,-2.938,-2.8838,-2.8024,-2.737,-2.707,-2.7958,-2.8272,-2.8247,-2.8158,-2.5718,-2.2279,-1.8902,-1.6593,-1.5014,-1.4662,-1.5865,-1.7735,-1.9966,-2.3919,-2.7368,-2.8475,-3.0738,-3.3,-3.4624,-3.4242,-3.3581,-3.3463,-3.2623,-3.1455,-2.9795,-2.9184,-2.8779,-2.8679,-2.8791,-2.8553,0.0,-2.8429,-2.9073,-2.9084,-2.8236,-2.7685,-2.7685,-2.8066,-2.872,-2.9611,-3.0406,-3.1395,-3.2871,-3.3093,-3.3404,-3.3878,-3.3404,-3.3119,-3.3106,-3.3106,-3.278,-3.2202,-3.165,-3.1122,-3.0595,-3.0043,-2.9804,-2.9792,-2.9792,-2.9792,-3.0227,-3.3957,-3.2989,-3.0086,0.0,0.0,0.0,0.0,0.0,0.0,0.0,0.0,0.0,0.0,0.0,0.0,0.0,0.0,0.0,0.0,0.3911,0.7505,1.1531,1.1559,0.8385,0.1565,-0.1885,-0.8339,-1.8364,-2.0911,-2.2487,-2.3212,-2.4059,-2.4746,-2.5312,-2.6308,-2.7376,-2.8508,-2.9257,-3.0537,-3.2116,-3.1804,-3.2803,-3.4558,-3.4188,-3.408,-3.4067,-3.3029,-3.2031,-3.0934,0.0,-2.7794,-2.7272,-2.6497,-2.6112,-2.6012,-2.6419,-2.6504,-2.6213,-2.4858,-2.1795,-1.8347,-1.6161,-1.4061,-1.2703,-1.3677,-1.5392,-1.781,-2.1463,-2.4555,-2.7271,-2.9538,-3.0791,-3.1681,-3.2306,-3.217,-3.1364,-2.9484,-2.868,-2.7933,-2.6557,-2.5475,-2.474,-2.4824,-2.5518,0.0,0.0,0.0,0.0,-2.8186,-2.788,-2.7783,-2.8066,-2.8223,-2.8916,-3.0321,-3.0623,-3.1437,-3.3056,-3.3068,-3.3205,-3.3366,-3.3205,-3.3081,-3.3081,-3.3081,-3.2742,-3.2043,-3.1612,-3.1097,-3.057,-3.0018,-3.0139,-3.0696,-3.0075,-2.9783,-2.9978,-3.1214,-3.2495,-3.3677,0.0,0.0,0.0,0.0,0.0,0.0,0.0,0.0,0.0,0.0,0.0,0.0,0.0,0.0,0.0,0.0,0.0,0.8666,1.0099,1.0759,0.8413,0.2472,-0.0344,-0.6045,-1.5226,-1.8168,-2.0022,-2.0897,-2.1932,-2.2846,-2.3617,-2.487,-2.6169,-2.7498,-2.8801,-3.0308,-3.1835,-3.1893,-3.2613,-3.3737,-3.3635,-3.3228,-3.2628,-3.1937,-3.1078,0.0,-2.7522,-2.6372,-2.5932,-2.5531,-2.5401,-2.5371,-2.4966,-2.4116,-2.2935,-2.1173,-1.8043,-1.4888,-1.377,-1.2244,-1.1347,-1.2868,-1.5206,-1.8065,-2.1638,-2.4671,-2.7453,-2.9714,-3.0582,-3.0961,-3.0905,-2.9889,-2.8238,-2.5618,-2.4379,-2.3504,-2.2704,-2.1573,-2.1268,-2.2206,-2.3469,-2.4066,0.0,0.0,0.0,-2.7476,-2.7578,-2.7829,-2.7966,-2.8104,-2.8914,-3.0781,-3.0734,-3.167,-3.3633,-3.3507,-3.3269,-3.3081,-3.3081,-3.3081,-3.3068,-3.3267,-3.2918,-3.2294,-3.1839,-3.1525,-3.1291,-3.0598,-3.0869,-3.1683,-3.1325,-3.0877,-3.0575,-3.1496,-3.3382,-3.5536,0.0,0.0,0.0,0.0,0.0,0.0,0.0,0.0,0.0,0.0,0.0,0.0,0.0,0.0,0.0,0.0,0.0,0.0,0.9511,0.9453,0.7853,0.4386,0.0323,-0.4769,-1.1003,-1.4534,-1.6822,-1.7924,-1.857,-1.9276,-2.0115,-2.2496,-2.4045,-2.492,-2.8084,-2.9554,-2.9769,-3.1291,-3.1372,-3.056,-3.1812,-3.1568,-3.0467,-3.0005,-2.9304,-2.8252,-2.6147,-2.5127,-2.4847,-2.5044,-2.5083,-2.4787,-2.3343,-2.1007,-1.8564,-1.7247,-1.4536,-1.189,-1.1626,-1.1034,-1.0805,-1.2285,-1.5357,-1.852,-2.0498,-2.4399,-2.7888,-2.8979,-3.0103,-3.0732,0.0,0.0,-2.436,-2.19,-1.9915,-1.8584,-1.8201,-1.7864,-1.8456,0.0,0.0,0.0,0.0,0.0,0.0,-2.6982,0.0,-2.7584,-2.7465,-2.7678,-2.8733,-3.0933,-3.0942,-3.216,-3.4578,-3.4098,-3.3596,-3.3081,-3.3179,-3.3265,-3.3215,-3.3619,-3.3476,-3.2829,-3.2326,-3.2253,-3.2494,-3.1608,-3.1766,-3.2692,-3.3352,-3.2888,-3.2205,-3.4571,-3.5521,-3.5492,0.0,0.0,0.0,0.0,0.0,0.0,0.0,0.0,0.0,0.0,0.0,0.0,0.0,0.0,0.0,0.0,0.0,0.0,0.8532,0.7279,0.5882,0.4403,0.0622,-0.2958,-0.6211,-0.9188,-1.193,-1.4315,-1.5451,-1.6652,-1.801,-1.9288,-2.0618,-2.1987,-2.3259,-2.4796,-2.6507,-2.6914,-2.7613,-2.8525,-2.9287,-2.8942,-2.7936,-2.7813,-2.7149,-2.6015,-2.4365,-2.372,-2.3695,-2.3989,-2.287,-2.0883,-1.8129,-1.6236,-1.4709,-1.3162,-1.1226,-0.9467,-0.8871,-0.9116,-1.0072,-1.2307,-1.5543,-1.8851,-2.142,-2.4156,-2.6609,-2.8339,-2.8207,-2.7509,-2.6401,0.0,0.0,-1.7763,-1.6214,0.0,-1.5351,-1.5511,0.0,-1.7971,0.0,-2.196,-2.263,-2.4969,0.0,0.0,-2.6968,-2.7124,-2.7614,-2.8337,-2.9356,-3.0756,-3.1315,-3.228,-3.3507,-3.3419,-3.3219,-3.3081,-3.4627,-3.5256,-3.4884,-3.526,-3.4648,-3.3349,-3.3145,-3.2586,-3.185,-3.1402,-3.2082,-3.3378,-3.3529,-3.396,-3.4581,-3.5248,-3.5518,-3.5487,0.0,0.0,0.0,0.0,0.0,0.0,0.0,0.0,0.0,0.0,0.0,0.0,0.0,0.0,0.0,0.0,0.0,0.0,0.0,0.788,0.6554,0.523,0.2434,-0.0386,-0.3194,-0.5569,-0.7809,-0.989,-1.1426,-1.2751,-1.3895,-1.5133,-1.6303,-1.7516,-1.9246,-2.0826,-2.2229,-2.2869,-2.3654,0.0,0.0,-2.4814,-2.4116,-2.4347,-2.4053,-2.3354,-2.1962,-1.9874,-1.75,-1.6116,-1.6829,-1.755,-1.344,-1.1353,-1.0267,-0.9646,-0.8291,-0.7219,-0.7996,-0.8788,-1.0043,-1.2349,-1.5677,-1.8908,-2.0854,-2.3531,-2.5918,-2.706,-2.6676,-2.5469,-2.3459,-2.0256,-1.695,0.0,0.0,0.0,-1.2216,-1.2872,-1.4034,0.0,-1.8716,0.0,-2.1915,-2.4077,-2.5767,0.0,-2.6841,-2.7236,-2.7525,-2.7953,-2.9021,-3.1061,-3.1111,-3.1877,-3.3445,-3.3206,-3.3081,-3.3081,-3.4037,-3.4558,-3.4781,-3.4862,-3.4618,-3.414,0.0,-3.3561,-3.3346,-3.2668,-3.3223,-3.4403,-3.4462,-3.4898,-3.5469,-3.5474,-3.5532,-3.5459,0.0,0.0,0.0,0.0,0.0,0.0,0.0,0.0,0.0,0.0,0.0,0.0,0.0,0.0,0.0,0.0,0.0,0.0,0.0,0.0,0.8355,0.6683,0.4904,0.2345,-0.1092,-0.283,-0.4301,-0.5432,-0.7231,-0.8502,-0.922,-1.0673,-1.1639,-1.2233,-1.5051,-1.6693,-1.7361,-1.8734,-1.9368,-1.9456,-2.007,-2.0127,-1.986,0.0,-2.0456,-2.0247,-1.8773,-1.4641,-0.9317,-0.5661,-0.8747,-1.3276,-0.8507,-0.6334,-0.5694,-0.6418,-0.5726,-0.5306,-0.7873,-0.9186,-1.0265,-1.2523,-1.5845,-1.8883,-2.0,-2.29,-2.5449,-2.564,-2.5401,-2.4282,-2.144,-1.7589,-1.3992,-1.1288,0.0,-0.7897,-0.9602,-1.0867,-1.2459,-1.4688,-1.7564,-1.9899,-2.1443,-2.3143,-2.4507,-2.5489,-2.6709,-2.7383,-2.7232,-2.7211,-2.8577,-3.1518,-3.087,-3.1522,-3.3671,-3.3242,-3.2965,-3.2965,-3.2688,-3.2985,-3.3861,-3.3806,-3.4213,-3.4972,0.0,0.0,-3.5154,-3.4339,-3.4493,-3.5264,-3.5279,-3.5359,-3.5504,-3.5504,-3.5504,-3.54,0.0,0.0,0.0,0.0,0.0,0.0,0.0,0.0,0.0,0.0,0.3961,0.8209,0.0,0.0,0.0,0.0,0.0,0.0,0.0,0.0,0.0,0.8864,0.6109,0.3671,0.1555,0.0055,-0.1434,-0.2854,-0.4464,-0.5851,-0.7117,-0.7406,-0.7471,-0.7419,-0.8117,-0.9981,-1.2518,-1.3222,-1.4034,-1.4958,-1.6144,-1.6699,-1.6835,-1.6957,0.0,0.0,-1.3645,-0.9632,-0.5012,-0.0786,-0.1511,-0.3752,-0.1155,-0.1062,-0.2037,-0.3148,-0.3672,-0.4386,-0.6864,-0.8545,-1.0357,-1.3547,-1.649,-1.9216,-2.1583,-2.3195,-2.4388,-2.51,-2.4678,-2.3458,-2.0942,-1.7813,-1.4788,-1.2189,-0.9663,-0.854,-0.9945,-1.1335,-1.2915,0.0,-1.7278,-1.9444,-2.0966,-2.217,0.0,0.0,0.0,0.0,-2.6516,-2.7516,-2.9029,-3.1192,-3.1685,-3.2054,-3.2503,-3.2256,-3.2219,-3.2219,-3.3686,-3.4169,-3.3683,-3.5276,-3.5748,-3.5377,0.0,0.0,-3.3936,-3.3965,-3.3951,-3.3936,-3.4201,-3.4758,-3.5504,-3.5504,-3.5504,-3.5489,0.0,0.0,0.0,0.0,0.0,0.0,0.0,-0.8717,-0.7802,-0.5866,-0.0932,0.4057,0.8493,1.1385,1.3312,0.0,0.0,0.0,0.0,0.0,0.0,0.0,0.0,0.0,0.3593,0.2221,0.0718,-0.1052,0.0,-0.1813,-0.3001,-0.3046,-0.3259,-0.3637,-0.4314,-0.5779,-0.781,-0.857,-0.975,-1.1179,-1.1898,-1.252,-1.3035,0.0,0.0,0.0,-0.9364,-0.5372,-0.1027,0.2963,0.4375,0.444,0.4164,0.1999,-0.0588,-0.1212,-0.2158,-0.3518,-0.5847,-0.7762,-0.9933,-1.3516,-1.6705,-1.9546,-2.1805,-2.3358,-2.4424,-2.4855,-2.4426,-2.3053,-2.0056,-1.7081,-1.4097,-1.1169,-0.8946,-0.7888,-0.8768,-1.0203,-1.1812,-1.3602,-1.5401,-1.7683,0.0,-2.1256,0.0,0.0,0.0,0.0,-2.5361,-2.7087,-2.8519,-2.9431,-3.0955,-3.1908,-3.2079,-3.1801,-3.1675,-3.1663,-3.2866,-3.3704,-3.4172,-3.4915,-3.5281,-3.5504,0.0,0.0,-3.4603,-3.4743,-3.4714,-3.4603,-3.4743,-3.4845,-3.5011,-3.537,-3.528,-3.4921,0.0,0.0,0.0,0.0,0.0,0.0,0.0,-0.9363,-0.9403,-0.9563,-0.5308,-0.0317,0.49,1.0302,1.3735,0.0,0.0,0.0,0.0,0.0,0.0,0.0,0.0,0.0,0.0,0.0,0.0,0.1024,0.1691,0.0,0.0,0.0,0.0,0.0,-0.1817,-0.2952,-0.4278,-0.5194,-0.6578,0.0,0.0,-0.9077,0.0,0.0,0.0,0.0,0.0,-0.1027,0.329,0.5894,0.8443,1.0102,0.7731,0.4256,0.0807,-0.0421,-0.1327,-0.2471,-0.482,-0.7344,-1.0187,-1.355,-1.7019,-2.0076,-2.1953,-2.3587,-2.4726,-2.4836,-2.4354,-2.2885,-1.9573,-1.6586,-1.355,-1.0288,-0.8289,-0.7248,-0.7578,-0.8979,-1.069,-1.2486,-1.3788,0.0,-1.9685,-2.0293,0.0,0.0,0.0,0.0,-2.4414,-2.6608,-2.7883,-2.788,-3.0094,-3.1367,-3.1668,-3.1254,-3.1047,-3.1047,-3.1784,-3.2901,-3.4234,-3.4278,-3.4758,-3.5504,0.0,0.0,0.0,-3.5424,-3.5359,-3.5213,-3.5439,-3.5175,-3.4756,-3.531,-3.507,-3.4397,0.0,0.0,0.0,0.0,0.0,0.0,0.0,-0.8622,-1.013,-1.1544,-0.7176,-0.3319,-0.1804,0.8439,1.5157,0.0,0.0,0.0,0.0,0.0,0.0,0.0,0.0,0.0,0.0,0.0,0.0,0.4476,0.3245,0.0,0.0,0.0,0.0,0.0,0.0,-0.1182,-0.3467,-0.4286,0.0,0.0,0.0,0.0,0.0,0.0,0.0,0.0,0.0,0.411,0.8609,0.7833,0.9361,1.1174,0.9007,0.6547,0.3517,-0.1266,-0.1494,-0.087,-0.3741,-0.7955,-1.2139,-1.4636,-1.7949,-2.1066,-2.2859,-2.4012,-2.4764,-2.5018,-2.4441,-2.307,-2.0368,-1.7405,-1.4343,-1.1131,-0.8907,-0.7647,-0.7601,-0.8907,-1.056,-1.2422,0.0,0.0,-1.8104,0.0,0.0,0.0,0.0,0.0,0.0,-2.6608,-2.791,-2.7939,-2.9679,-3.0696,-3.0708,-3.0193,-2.9942,-2.9942,-3.1716,-3.2632,-3.2888,-3.4601,-3.5424,-3.5504,0.0,0.0,0.0,-3.5133,-3.4986,-3.4245,-3.5133,-3.5474,-3.5415,-3.5489,-3.507,-3.4472,0.0,0.0,0.0,0.0,0.0,0.0,-0.4304,-0.6234,-0.8689,-1.119,-1.3284,-1.1912,-0.4827,0.4151,1.1143,1.4965,0.0,0.0,0.0,0.0,0.0,0.0,0.0,0.0,0.0,0.0,0.5858,0.5006,0.4448,0.0,0.0,0.0,0.0,0.0,0.0,0.0,-0.1222,-0.3518,0.0,0.0,0.0,0.0,0.0,0.0,0.0,0.0,0.0,0.0,0.6548,0.8268,0.8561,0.7992,0.6864,0.6174,0.5673,0.5096,0.3381,0.1667,0.1643,-0.4721,-1.2285,-1.642,-1.9751,-2.2387,-2.3842,-2.4695,-2.5113,-2.4893,-2.3584,-2.1609,-1.8826,-1.5991,-1.2732,-0.8763,-0.7792,-0.7214,-0.6157,-0.7215,-0.912,-1.176,-1.2525,0.0,0.0,0.0,0.0,0.0,0.0,0.0,0.0,-2.5169,-2.6392,-2.7067,-2.8345,-2.9426,-3.0118,-2.9905,-2.9792,-2.9792,-3.1696,-3.2814,-3.3259,-3.4829,-3.5504,-3.5504,0.0,0.0,0.0,-3.5344,-3.5279,-3.492,-3.5359,-3.525,-3.4876,-3.4737,-3.4397,-3.3829,0.0,0.0,0.0,0.0,0.0,-0.0886,-0.061,-0.286,-0.6175,-1.0404,-1.4753,-1.4401,-0.6178,0.2539,0.9903,1.5226,1.7512,0.0,0.0,0.0,0.0,0.0,0.0,0.0,0.0,0.0,0.6646,0.5192,0.5467,0.5521,0.0,0.0,0.0,0.0,0.0,0.0,0.0,0.0,0.0,0.0,0.0,0.0,0.0,0.0,0.0,0.0,0.0,0.0,0.0,0.0,0.0,0.6551,0.5666,0.6315,0.7616,0.8814,0.9346,0.8506,0.3642,-0.4489,-1.2815,-1.8055,-2.1353,-2.3583,-2.4617,-2.5114,-2.5113,-2.4189,-2.2306,-1.9894,-1.6796,-1.3993,-1.0924,-0.716,-0.6819,-0.6651,-0.5391,-0.6466,-0.8412,-1.1204,0.0,0.0,0.0,0.0,0.0,0.0,0.0,0.0,0.0,-2.4211,-2.5303,-2.6459,-2.7853,-2.9028,-2.9792,-2.9792,-2.9934,-3.0203,-3.1829,-3.2971,-3.3661,-3.4706,-3.531,0.0,0.0,0.0,0.0,-3.5149,-3.5045,-3.4906,-3.4767,-3.4483,-3.4173,-3.4035,-3.3724,-3.3246,0.0,0.0,0.0,0.0,0.0,0.0,0.3582,0.1467,-0.2682,-0.9444,-0.9023,-0.7574,-0.6045,0.5071,1.3576,1.6321,1.7855,0.0,0.0,0.0,0.0,0.0,0.0,0.0,0.0,0.0,0.679,0.5425,0.6264,0.6264,0.5425,0.6264,0.6214,0.0,0.0,0.0,0.0,0.0,0.0,0.0,0.0,0.0,0.0,0.0,0.0,0.0,0.0,0.0,0.0,0.0,0.0,0.0,0.0,0.7623,0.9287,0.7479,1.5716,2.0948,0.0234,-0.9062,-1.4136,-1.9366,-2.2511,-2.4454,-2.5054,-2.5156,-2.4586,-2.2713,-2.0673,-1.815,-1.4609,-1.1777,-0.9311,-0.7157,-0.6369,-0.5986,-0.6023,-0.727,-0.8915,0.0,0.0,0.0,0.0,0.0,0.0,0.0,0.0,0.0,0.0,-2.4211,-2.5294,-2.6472,-2.8621,-2.9792,-2.9792,-2.9792,-3.0279,-3.118,-3.2177,-3.2961,-3.3593,-3.4233,0.0,0.0,0.0,0.0,0.0,-3.4269,-3.3953,-3.3484,-3.3032,-3.3092,-3.3499,-3.3499,-3.3216,-3.2796,0.0,0.0,0.0,0.0,0.0,0.0,0.0,0.6595,0.2091,-0.4326,-0.6576,-0.6341,-0.2981,0.4296,1.1419,1.7544,1.9311,0.0,0.0,0.0,0.0,0.0,0.0,0.0,0.0,0.0,0.7053,0.5428,0.6268,0.6588,0.6264,0.6588,0.6531,0.621,0.4776,0.0,0.0,0.0,0.0,0.0,0.0,0.0,0.0,0.0,0.0,0.0,0.0,0.0,0.0,0.0,0.0,0.0,0.0,0.0,0.0,1.3034,1.5421,1.5365,0.4211,-0.5502,-1.3871,-1.9671,-2.3031,-2.4926,-2.4923,-2.4026,-2.2407,-1.9654,-1.6822,-1.361,-0.9706,-0.7412,-0.563,-0.421,-0.4347,-0.4784,0.0,0.0,0.0,-1.101,-1.4176,0.0,0.0,0.0,0.0,0.0,0.0,0.0,0.0,0.0,-2.6097,-2.6484,-2.7913,-2.9028,-2.9792,-2.9792,-2.9934,-3.0279,-3.1829,-3.2499,-3.2331,-3.3847,0.0,0.0,0.0,0.0,0.0,-3.3604,-3.3636,-3.3469,-3.3002,-3.3077,-3.341,-3.2451,-3.2422,-3.2795,0.0,0.0,0.0,0.0,0.0,0.0,0.0,1.064,0.6221,-0.1402,-0.6394,-0.702,-0.1129,0.5399,1.2048,1.8794,2.0644,0.0,0.0,0.0,0.0,0.0,0.0,0.0,0.882,0.827,0.7116,0.5428,0.6268,0.656,0.6301,0.6705,0.6647,0.6179,0.4846,0.4292,0.0,0.0,0.0,0.0,0.0,0.0,1.2913,0.0,0.0,0.0,0.0,0.0,0.0,0.0,0.0,0.0,0.0,0.0,0.0,0.0,1.6456,1.4261,0.7862,-0.4187,-1.5518,-1.7919,-2.1733,-2.4651,-2.3704,-2.2018,-1.9542,-1.5681,-1.2352,-0.9152,-0.5917,-0.4342,-0.343,-0.3188,-0.3921,-0.4933,0.0,0.0,0.0,-1.2392,0.0,0.0,0.0,0.0,0.0,0.0,0.0,0.0,0.0,0.0,-2.595,-2.593,-2.7567,-2.8651,-2.9151,-2.9164,-2.9503,-3.0207,-3.1368,-3.2192,-3.2649,0.0,0.0,0.0,0.0,0.0,0.0,-3.2751,-3.2766,-3.2736,-3.2452,-3.2482,-3.2617,-3.1783,-3.218,-3.3062,0.0,0.0,0.0,0.0,0.0,0.0,0.0,1.3364,0.928,-0.0454,-0.7516,-0.8442,-0.0137,0.827,1.527,2.0053,0.0,0.0,0.0,0.0,0.0,0.0,0.0,0.0,0.8177,0.8112,0.7274,0.5526,0.6234,0.6175,0.5378,0.6265,0.615,0.5193,0.5196,0.5272,0.0,0.0,0.0,0.0,0.0,0.0,0.0,0.0,0.0,0.0,0.0,0.0,0.0,0.0,0.0,0.0,0.0,0.0,0.0,0.0,0.0,0.0,0.0,-0.3623,-1.7047,-1.4175,-1.8603,-2.3214,-2.152,-1.9323,0.0,-1.1132,-0.7672,-0.4964,-0.3064,-0.2372,-0.2487,-0.3547,-0.4722,-0.6102,0.0,-0.9592,0.0,0.0,0.0,0.0,0.0,0.0,0.0,0.0,0.0,0.0,0.0,0.0,0.0,-2.4962,-2.7348,-2.8484,-2.8109,-2.8132,-2.8944,-3.0596,-3.0798,-3.1997,-3.3952,0.0,0.0,0.0,0.0,0.0,0.0,-3.1719,-3.1405,-3.1405,-3.142,-3.1405,-3.1405,-3.1477,-3.2313,-3.3333,0.0,0.0,0.0,0.0,0.0,0.0,0.0,0.0,0.0,0.0,-0.3894,-0.3126,0.2238,1.3363,2.0595,0.0,0.0,0.0,0.0,0.0,0.0,0.0,0.0,0.0,0.9351,0.9291,0.8503,0.6876,0.611,0.4896,0.3231,0.2662,0.2665,0.3163,0.3188,0.4026,0.0,0.0,0.0,0.0,0.0,0.0,0.0,0.0,0.0,0.0,1.9069,1.8798,0.0,0.0,0.0,0.0,0.0,0.0,0.0,0.0,2.1481,2.0221,1.8154,0.0,-0.374,-0.8082,-1.2788,-1.6902,0.0,-1.718,-1.3496,-0.786,-0.4912,-0.2541,-0.0128,-0.085,-0.2083,-0.3096,-0.4958,-0.6859,-0.847,0.0,0.0,0.0,0.0,0.0,0.0,0.0,0.0,0.0,0.0,0.0,0.0,0.0,0.0,-2.489,-2.5865,-2.6917,-2.8097,-2.8331,-2.8529,-2.8782,-3.0798,-3.1781,-3.1693,0.0,0.0,0.0,0.0,0.0,-3.0795,-3.0573,-3.0318,-3.0058,-3.0403,-3.0318,-3.0183,-3.106,-3.1638,-3.1981,0.0,0.0,0.0,0.0,0.0,0.0,0.0,0.0,0.0,0.0,0.0,0.0,0.0,0.0,0.0,0.0,0.0,0.0,0.0,0.0,0.0,0.0,0.0,1.124,0.9716,0.9835,0.9055,0.7279,0.3553,0.098,-0.0531,-0.3801,-0.3617,-0.0464,0.0612,0.2746,0.0,0.0,0.0,0.0,1.1194,0.0,0.0,0.0,0.0,0.0,2.0346,2.0031,0.0,2.1938,2.2309,2.2286,0.0,0.0,0.0,0.0,2.3144,2.1905,2.0374,1.1978,0.2558,-0.1936,-0.8584,-1.4007,-1.3978,-1.2464,-0.9489,-0.3949,-0.1731,-0.0315,0.1062,-0.0341,-0.205,-0.3064,-0.5613,0.0,0.0,0.0,0.0,0.0,0.0,0.0,0.0,0.0,0.0,0.0,0.0,0.0,0.0,0.0,-2.4008,0.0,-2.4611,-2.5407,-2.659,-2.7102,-2.7407,-2.7681,-2.9533,-3.0366,-3.0291,0.0,0.0,0.0,0.0,0.0,-2.9625,-2.9843,-2.9678,-2.9307,-2.9778,-2.9663,-2.9415,-3.0587,-3.1193,-3.1561,0.0,0.0,0.0,0.0,0.0,0.0,0.0,0.0,0.0,0.0,0.0,0.0,0.0,0.0,0.0,0.0,0.0,0.0,0.0,0.0,0.0,0.0,1.1689,1.1231,1.0031,1.0449,1.0014,0.8644,0.1143,-0.3009,-0.4076,-1.0745,-1.083,-0.516,-0.2268,0.1381,0.0,0.0,0.0,0.0,1.0795,0.0,0.0,0.0,0.0,0.0,0.0,0.0,0.0,2.326,2.4005,2.4354,2.4757,0.0,0.0,0.0,0.0,0.0,2.0461,1.3291,0.5934,0.3772,-0.4037,-1.0423,-0.7451,-0.6371,-0.4629,0.0,0.1219,0.1374,0.1283,-0.0351,-0.2118,-0.3104,0.0,0.0,0.0,0.0,0.0,0.0,0.0,0.0,0.0,0.0,0.0,0.0,0.0,0.0,0.0,0.0,0.0,-2.3161,-2.3511,-2.4017,-2.457,-2.5484,-2.6338,-2.7015,-2.8025,-2.8805,-2.9401,-2.9421,0.0,0.0,0.0,0.0,-2.8886,-2.9167,-2.9077,-2.8738,-2.9137,-2.9131,-2.8936,-2.995,-3.0747,-3.1402,0.0,0.0,0.0,0.0,0.0,0.0,0.0,0.0,0.0,0.0,0.0,0.0,0.0,0.0,0.0,0.0,0.0,0.0,0.0,0.0,0.0,0.8623,0.9462,1.0323,1.1289,1.2706,1.3891,1.4688,0.3571,-0.2422,-0.3821,-1.4435,-1.6272,-1.0383,-0.5464,-0.0419,0.4442,0.0,0.0,0.0,0.0,0.0,0.0,0.0,0.0,0.0,0.0,0.0,0.0,2.4374,2.5016,2.5929,2.5395,0.0,0.0,0.0,0.0,0.0,2.0947,1.6606,1.1635,0.792,0.4602,0.1752,-0.0292,0.0,0.1119,0.2804,0.2355,0.1624,0.1352,-0.0289,-0.2004,0.0,0.0,0.0,0.0,0.0,0.0,0.0,0.0,0.0,0.0,0.0,0.0,0.0,0.0,0.0,0.0,0.0,0.0,-2.2468,-2.2491,-2.2871,-2.354,-2.5406,-2.6239,-2.6153,-2.8311,-2.9098,-2.8495,-2.866,-2.9056,0.0,0.0,-2.8188,-2.8599,-2.8098,-2.7859,-2.7829,-2.7859,-2.8182,-2.8629,-2.9312,-2.9951,-3.058,0.0,0.0,0.0,0.0,0.0,0.0,0.0,0.0,0.0,0.0,0.0,0.0,0.0,0.0,0.0,0.0,0.0,0.0,0.0,0.0,0.5297,0.5995,0.7942,0.948,1.0415,1.3199,1.5411,1.6926,0.5748,-0.4371,-1.3479,-2.0816,-2.1771,-1.714,-1.0777,-0.4284,0.2081,0.4789,0.7081,0.9223,0.0,0.0,0.0,0.0,0.0,0.0,0.0,0.0,0.0,0.0,2.4754,2.587,2.6218,0.0,0.0,0.0,0.0,0.0,2.0476,1.814,1.5392,1.1584,0.918,0.715,0.5238,0.4665,0.4502,0.4196,0.2812,0.1597,0.1372,0.0,-0.2556,-0.5202,0.0,0.0,0.0,0.0,0.0,0.0,0.0,0.0,0.0,0.0,0.0,0.0,0.0,0.0,0.0,0.0,0.0,0.0,-2.1888,-2.2046,-2.2317,-2.4055,-2.4995,-2.5149,-2.6703,-2.7223,-2.6821,-2.6961,-2.7156,-2.7395,0.0,-2.6901,-2.747,-2.6797,-2.6931,-2.758,-2.7583,-2.7718,-2.7953,-2.8501,-2.9346,-3.0212,0.0,0.0,0.0,0.0,0.0,0.0,0.0,0.0,0.0,0.0,0.0,0.0,0.0,0.0,0.0,0.0,0.0,0.0,0.0,0.0,0.3967,0.5798,0.8169,0.994,1.1018,1.4817,1.7194,1.801,0.6436,-0.7829,-2.4412,-2.695,-2.6096,-2.2138,-1.5173,-0.7798,-0.0438,0.3973,0.7586,1.059,0.0,0.0,0.0,0.0,0.0,0.0,0.0,0.0,0.0,0.0,0.0,0.0,0.0,0.0,0.0,2.5013,2.3633,2.1892,2.0173,1.8976,1.7427,1.4129,1.1754,1.0018,0.9117,0.801,0.6753,0.5417,0.3425,0.1875,0.1463,-0.0542,0.0,-0.6285,0.0,0.0,0.0,0.0,0.0,0.0,0.0,0.0,0.0,0.0,0.0,0.0,0.0,0.0,0.0,0.0,0.0,0.0,-2.1107,-2.1174,-2.1302,-2.2292,-2.3273,-2.4284,-2.5206,-2.5615,-2.5615,-2.5615,-2.5615,-2.5615,-2.5615,-2.5899,-2.6318,-2.595,-2.6374,-2.7331,-2.738,-2.7496,-2.7627,-2.8272,-2.9113,-3.001,0.0,0.0,0.0,0.0,0.0,0.0,0.0,0.0,0.0,0.0,0.0,0.0,0.0,0.0,0.0,0.0,0.0,0.0,0.0,0.0,0.5208,1.0065,1.1333,1.3185,1.5922,1.97,2.0712,1.891,0.4314,-1.2913,-3.2166,-3.1137,-2.7945,-2.2862,-1.6557,-0.9729,-0.2672,0.3403,0.9924,1.5984,1.4479,0.0,0.0,0.0,0.0,0.0,0.0,0.0,0.0,0.0,0.0,0.0,0.0,0.0,2.6791,2.5389,2.3412,2.1507,2.0712,1.9346,1.7431,1.4553,1.2929,1.184,1.0973,0.9523,0.8006,0.7072,0.4784,0.2774,0.189,-0.1096,-0.36,-0.4048,0.0,0.0,0.0,0.0,0.0,0.0,0.0,0.0,0.0,0.0,0.0,0.0,0.0,0.0,0.0,0.0,0.0,0.0,0.0,-2.0205,-2.0838,-2.0385,-2.1358,-2.3691,-2.4951,-2.5615,-2.5615,-2.5615,-2.5615,-2.5615,-2.5615,-2.563,-2.5721,-2.6153,-2.6394,-2.6531,-2.7024,-2.7557,-2.8171,-2.9218,-2.9646,-2.9824,0.0,0.0,0.0,0.0,0.0,0.0,0.0,0.0,0.0,0.0,0.0,0.0,0.0,0.0,0.0,0.0,0.0,0.0,0.0,0.5457,0.6515,1.0118,1.283,1.6331,2.0744,1.2926,0.8259,0.7191,-1.2309,-2.5468,-3.2351,-3.0945,-2.7891,-2.3362,-1.8735,-1.4428,-1.0089,-0.2715,0.1178,0.2865,0.9333,1.3268,0.0,0.0,0.0,0.0,0.0,0.0,0.0,0.0,2.4251,2.5527,2.5281,2.5496,2.5641,2.4721,2.3032,2.1281,2.04,1.8861,1.6953,1.4543,1.3083,1.1984,1.1204,1.0083,0.8932,0.8015,0.5425,0.2675,0.0317,0.0,-0.4206,0.0,0.0,0.0,0.0,0.0,0.0,0.0,0.0,0.0,0.0,0.0,0.0,0.0,0.0,0.0,0.0,0.0,0.0,0.0,0.0,-1.9073,-1.9683,-1.9823,-2.0525,-2.1815,-2.2745,-2.3176,-2.3176,-2.3176,-2.3176,-2.3206,-2.361,-2.4202,-2.4854,-2.5053,-2.5846,-2.6898,-2.6977,-2.7367,-2.7928,-2.8118,-2.8508,-2.8955,0.0,0.0,0.0,0.0,0.0,0.0,0.0,0.0,0.0,0.0,0.0,0.0,0.0,0.0,0.0,0.0,0.0,0.0,0.6245,0.6923,0.8995,1.2528,1.4657,1.7639,2.1686,0.8257,0.1589,0.236,-1.8979,-2.9938,-3.0919,-3.039,-2.822,-2.4761,-2.1725,-1.815,-1.4105,-1.0301,-0.676,-0.3031,0.3723,0.8413,0.0,0.0,0.0,0.0,0.0,0.0,0.0,0.0,2.3674,2.4726,2.4852,2.4857,2.4668,2.3938,2.2693,2.1213,1.9713,1.8289,1.6642,1.4234,1.307,1.2364,1.1715,1.0466,0.9402,0.9182,0.6204,0.2699,-0.0325,0.0,0.0,0.0,0.0,0.0,0.0,0.0,0.0,0.0,0.0,0.0,0.0,0.0,0.0,0.0,0.0,0.0,0.0,0.0,0.0,0.0,0.0,0.0,-1.8723,-1.9112,-1.9669,-2.0389,-2.0842,-2.1276,-2.1695,-2.1695,-2.1695,-2.1724,-2.232,-2.3025,-2.377,-2.4328,-2.5511,-2.703,-2.7035,-2.7262,-2.7606,-2.7438,-2.7783,-2.8404,0.0,0.0,0.0,0.0,0.0,0.0,0.0,0.0,0.0,0.0,0.0,0.0,0.0,0.0,0.0,0.0,0.0,0.0,0.9265,0.997,1.2731,1.8177,1.7085,1.6837,1.7959,0.7661,0.3881,0.7169,-1.1915,-2.3786,-2.8633,-2.9937,-2.9374,-2.7133,-2.5327,-2.0264,-1.3449,-1.8746,-1.2044,0.1866,-0.1617,0.1202,0.7532,0.0,0.0,0.0,0.0,0.0,0.0,0.0,2.3111,2.4137,2.4317,2.439,2.419,2.3175,2.2365,2.1222,1.868,1.7606,1.6484,1.3531,1.3079,1.3302,1.2919,1.0755,0.9296,1.0707,0.7058,0.2836,0.0405,-0.1873,0.0,0.0,0.0,0.0,0.0,0.0,0.0,0.0,0.0,0.0,0.0,0.0,0.0,0.0,0.0,0.0,0.0,0.0,0.0,0.0,0.0,0.0,-1.8106,-1.8106,-1.865,-1.969,-1.969,-2.0393,-2.168,-2.168,-2.168,-2.1719,-2.2087,-2.23,-2.2421,-2.411,-2.5546,-2.6724,-2.7129,-2.7286,-2.7313,-2.7432,-2.7809,-2.8258,0.0,0.0,0.0,0.0,0.0,0.0,0.0,0.0,0.0,0.0,0.0,0.0,0.0,0.0,0.0,0.0,0.0,0.0,0.9548,1.1069,1.3731,1.7865,1.8647,1.832,1.6957,0.5908,-0.5342,-1.6487,-2.2531,-2.645,-2.8332,-2.8441,-2.791,-2.6703,-2.1998,-1.9716,-1.9181,-1.573,-1.4545,-1.4779,-1.2581,-0.9857,-0.5858,0.0,0.0,0.0,0.0,0.0,0.0,0.0,0.0,0.0,2.2978,2.3363,2.3617,2.1426,2.0734,2.0193,1.7963,1.6825,1.5857,1.4359,1.3733,1.3384,1.3411,1.1274,0.8616,0.6195,0.4385,0.2395,-0.0396,0.0,0.0,0.0,0.0,0.0,0.0,0.0,0.0,0.0,0.0,0.0,0.0,0.0,0.0,0.0,0.0,0.0,0.0,0.0,0.0,0.0,0.0,0.0,-1.8106,-1.8106,-1.865,-1.969,-1.969,-1.9899,-2.0273,-2.0273,-2.0442,-2.0768,-2.1337,-2.1972,-2.2686,-2.4031,-2.4929,-2.5519,-2.5737,-2.6255,-2.6979,-2.7718,-2.7777,-2.7561,0.0,0.0,0.0,0.0,0.0,0.0,0.0,0.0,0.0,0.0,-0.4538,-0.1737,0.0,0.0,0.0,0.0,0.0,0.0,0.0,1.3155,1.526,1.7486,1.6082,1.3588,1.004,0.2399,-0.8304,-2.2158,-2.3785,-2.5205,-2.6395,-2.7504,-2.7112,-2.5299,-1.9997,-1.77,-1.7441,-1.153,-1.2078,-1.6852,-1.5827,-1.4134,-1.0829,0.0,0.0,0.0,0.0,0.0,0.0,0.0,0.0,0.0,2.2218,2.2489,2.2586,2.0655,2.019,1.9946,1.8443,1.7456,1.6602,1.5781,1.4775,1.3652,1.2304,1.0743,0.8396,0.4242,0.3219,0.2333,-0.0313,-0.2113,0.0,0.0,0.0,0.0,0.0,0.0,0.0,0.0,0.0,0.0,0.0,0.0,0.0,0.0,0.0,0.0,0.0,0.0,0.0,0.0,0.0,0.0,-1.8106,-1.8302,-1.8726,-1.9301,-1.9732,-1.9818,-1.9582,-1.9818,-2.0054,-2.033,-2.1075,-2.2021,-2.3059,-2.3922,-2.4562,-2.5131,-2.5577,-2.595,-2.6364,-2.7483,-2.7619,-2.731,0.0,0.0,0.0,0.0,0.0,0.0,0.0,0.0,0.0,0.0,-1.1279,-0.5686,0.0,0.0,0.0,0.0,0.0,0.0,0.0,1.4743,1.6007,1.6435,0.9691,0.3736,-0.085,-0.2646,-0.7298,-1.4984,-1.8456,-2.1416,-2.3807,-2.697,-2.6786,-2.3622,-1.9163,-1.5051,-1.1207,-0.6764,-0.6383,-0.9088,-1.3405,-1.3158,-0.9453,-0.2929,0.0,0.0,0.0,0.0,0.0,0.0,0.0,0.0,2.1609,2.1582,2.1256,2.0446,2.0245,2.0199,1.9469,1.873,1.8071,1.7314,1.606,1.4076,1.0571,0.9734,0.8557,0.4274,0.0,0.2432,0.0386,0.0,0.0,0.0,0.0,0.0,0.0,0.0,0.0,0.0,0.0,0.0,0.0,0.0,0.0,0.0,0.0,0.0,0.0,0.0,0.0,0.0,0.0,0.0,-1.8185,-1.8608,-1.879,0.0,-1.9672,-1.9858,-1.9354,-2.003,-2.0398,-2.0467,-2.1289,-2.2291,-2.3379,-2.3695,-2.4309,-2.5132,-2.5971,-2.5906,-2.5528,-2.668,-2.7195,-2.7255,0.0,0.0,0.0,0.0,0.0,0.0,0.0,0.0,0.0,0.0,0.0,0.0,0.0,0.0,0.0,0.0,0.0,0.0,0.0,0.8013,0.873,1.1188,-0.1851,-0.8899,-0.8312,-0.9932,-1.102,-1.1639,-1.5782,-2.015,-2.4652,-2.6433,-2.6627,-2.5246,-1.9568,-1.5241,-1.1764,-0.4314,-0.3791,-0.8332,-1.2003,-1.1412,-0.7683,-0.1736,0.3341,0.0,0.0,0.0,0.0,0.0,0.0,0.0,1.8894,1.963,2.0441,1.9026,1.9293,1.9611,1.7879,1.7526,1.7538,1.6941,1.5963,1.4569,1.2525,1.0905,0.8809,0.4858,0.3465,0.233,0.0,0.0,0.0,0.0,0.0,0.0,0.0,0.0,0.0,0.0,0.0,0.0,0.0,0.0,0.0,0.0,0.0,0.0,0.0,0.0,0.0,0.0,0.0,-1.7747,-1.8727,-1.8329,-1.8429,0.0,-1.8778,-1.874,-1.898,-2.0282,-2.0957,-2.1207,-2.1855,-2.2485,-2.3006,-2.308,-2.3401,-2.3866,-2.3911,-2.4172,-2.4522,-2.48,-2.5542,-2.6451,0.0,0.0,0.0,0.0,0.0,0.0,0.0,0.0,0.0,0.0,0.0,0.0,0.0,0.0,0.0,0.0,0.0,0.0,0.0,0.0,0.0738,-0.1508,-1.1019,-1.5084,-1.2499,-1.2438,-1.2605,-1.2877,-1.4671,-1.8124,-2.3156,-2.5693,-2.6356,-2.5164,-1.9855,-1.5509,-1.1651,-0.4074,-0.2726,-0.6018,-0.9202,-1.0418,-0.9874,-0.6015,-0.0402,0.622,1.2193,0.0,0.0,0.0,0.0,0.0,0.0,0.0,1.9293,1.8928,1.9433,1.9978,1.9149,1.8566,1.7887,1.6621,1.5645,1.4401,1.2398,1.0598,0.8619,0.6046,0.4297,0.0,0.0,0.0,0.0,0.0,0.0,0.0,0.0,0.0,0.0,0.0,0.0,0.0,0.0,0.0,0.0,0.0,0.0,0.0,0.0,0.0,0.0,0.0,-1.7431,-1.7678,-1.7949,-1.7844,-1.7985,-1.8278,-1.847,-1.8847,-1.9418,-2.0334,-2.1222,-2.2046,-2.2357,-2.2702,-2.3067,-2.3229,-2.3378,-2.3512,-2.376,-2.4007,-2.4229,-2.4439,-2.5057,-2.5756,0.0,0.0,0.0,0.0,0.0,0.0,0.0,0.0,0.0,0.0,0.0,0.0,0.0,0.0,0.0,0.0,0.0,0.0,0.0,0.0,0.0,-1.5983,-1.8244,-1.7996,-1.5281,-1.3451,-1.2763,-1.3194,-1.3777,-1.6031,-1.9874,-2.3748,-2.4819,-2.3325,-1.9272,-1.5263,-1.1048,-0.4549,-0.2581,-0.4023,-0.6555,-0.9316,-1.1747,-0.9619,-0.3303,0.485,0.8591,1.1456,1.3057,1.0637,0.0,0.0,0.0,0.0,1.7476,1.871,1.9569,2.0277,2.0872,1.9926,1.8289,1.6622,1.5388,1.409,1.2098,1.0105,0.8453,0.7377,0.0,0.0,0.0,0.0,0.0,0.0,0.0,0.0,0.0,0.0,0.0,0.0,0.0,0.0,0.0,0.0,0.0,0.0,0.0,0.0,0.0,0.0,-1.7397,-1.7259,-1.7689,-1.7605,-1.7055,-1.7368,-1.7479,-1.7394,-1.8294,-1.911,-1.9891,-2.0163,-2.11,-2.2478,-2.281,-2.2999,-2.3145,-2.3599,-2.3723,-2.3689,-2.4375,-2.453,-2.4435,-2.4832,-2.5106,-2.5281,0.0,0.0,0.0,0.0,0.0,0.0,0.0,0.0,0.0,0.0,-2.2231,-1.932,0.0,0.0,0.0,0.0,0.0,0.0,-1.0124,0.0,0.0,-2.5828,-2.2702,-2.0039,-1.8607,-1.6169,-1.1474,-0.439,-1.1629,-1.4935,-1.4509,-1.8405,-1.9685,-1.8609,-1.6079,-1.3195,-0.9812,-0.4184,-0.297,-0.5031,-0.6429,-0.733,-0.7521,-0.3844,-0.113,0.1371,0.6375,0.8081,0.7903,0.7607,0.8008,0.0,0.0,0.0,1.4257,1.6331,1.7948,1.9239,1.9922,1.9046,1.7886,1.7605,1.5827,1.4073,1.3751,0.0,0.9051,0.0,0.0,0.0,0.0,0.0,0.0,0.0,0.0,0.0,0.0,0.0,0.0,0.0,0.0,0.0,0.0,0.0,0.0,0.0,0.0,0.0,0.0,-1.7747,-1.7946,-1.779,-1.787,-1.7795,-1.7599,-1.7098,-1.7121,-1.7739,-1.7888,-1.8461,-1.9389,-1.9436,-2.0194,-2.1574,-2.3271,-2.351,-2.2749,-2.3728,-2.4117,-2.4152,-2.4595,-2.4937,-2.5171,-2.5213,-2.5272,-2.5297,0.0,0.0,0.0,0.0,0.0,0.0,0.0,0.0,0.0,0.0,0.0,-1.9673,0.0,0.0,0.0,-1.4678,-1.6768,-1.8599,-1.9724,-2.0646,-2.369,-2.9406,-2.7289,-2.4873,-2.248,-1.8965,-1.2362,-0.2634,-0.6101,-0.7002,-0.5613,-1.1491,-1.5452,-1.7601,-1.5426,-1.3026,-1.0358,-0.5973,-0.3758,-0.3335,-0.455,-0.4893,-0.4426,-0.2724,-0.0387,0.2202,0.3856,0.4819,0.5155,0.4176,0.4342,0.5133,0.6085,0.0,0.0,0.0,1.5942,1.7855,1.9177,1.9083,1.8437,1.7637,1.5952,1.4251,1.3647,1.1053,0.8622,0.0,0.0,0.0,0.0,0.0,0.0,0.0,0.0,0.0,0.0,0.0,0.0,0.0,0.0,0.0,0.0,0.0,0.0,0.0,0.0,0.0,-1.7609,-1.7941,-1.7834,-1.725,-1.7361,0.0,-1.6637,-1.6531,-1.684,-1.7514,-1.7855,-1.8266,-1.8687,-1.8931,-1.9846,-2.1366,-2.2453,-2.2792,-2.2666,-2.3762,-2.4293,-2.4425,-2.4614,-2.4809,-2.5045,-2.5229,-2.5308,-2.5288,0.0,0.0,0.0,0.0,0.0,0.0,0.0,0.0,0.0,0.0,0.0,0.0,0.0,0.0,0.0,0.0,-1.8477,-2.2046,-2.6994,-2.8703,-3.0013,-3.1088,-3.0616,-2.894,-2.5985,-2.1864,-1.5229,-0.6092,-0.0701,0.0982,-0.0966,-0.6913,-1.2043,-1.6155,-1.4551,-1.3016,-1.1324,-0.7855,-0.5362,-0.3675,-0.3953,-0.3788,-0.3405,-0.2656,-0.0334,0.244,0.1884,0.2216,0.2753,0.1202,0.093,0.1437,0.2421,0.4415,0.0,0.0,0.0,1.641,1.8241,1.8742,1.8524,1.7757,1.6075,1.4418,0.0,0.0,0.8348,0.0,0.0,0.0,0.0,0.0,0.0,0.0,0.0,0.0,0.0,0.0,0.0,0.0,0.0,0.0,0.0,0.0,0.0,0.0,0.0,0.0,-1.7849,-1.7963,-1.7655,-1.6894,-1.7031,-1.6802,-1.6067,-1.6398,-1.6741,-1.7115,-1.765,-1.785,-1.7784,-1.8075,-1.9002,-2.0426,-2.1079,-2.1513,-2.1828,-2.2731,-2.3367,-2.3866,-2.4056,-2.44,-2.4832,-2.5177,-2.5293,-2.5303,0.0,0.0,0.0,0.0,0.0,0.0,0.0,0.0,0.0,0.0,0.0,0.0,-1.7684,-1.6156,-1.5598,-1.6291,-1.8747,-2.2569,-2.7854,-3.0489,-3.1898,-3.2034,-3.1708,0.0,-2.8548,-2.4921,-2.0613,-1.559,0.303,0.6249,-0.5049,-0.7157,-0.9675,-1.2453,-1.2367,-1.2406,-1.234,-0.911,-0.8122,-0.8443,-0.6145,-0.5322,-0.5235,-0.2417,-0.0844,0.0,0.0982,0.0834,0.0069,-0.0878,-0.174,-0.2249,-0.1306,0.0357,0.2554,0.0,0.0,0.0,1.6691,1.718,1.7455,1.8388,1.6574,1.443,0.0,0.0,0.0,0.0,0.0,0.0,0.0,0.0,0.0,0.0,0.0,0.0,0.0,0.0,0.0,0.0,0.0,0.0,0.0,0.0,0.0,0.0,0.0,0.0,-1.7906,-1.7787,-1.7573,-1.7281,-1.7295,-1.7139,-1.6738,-1.7083,-1.7016,-1.6545,-1.6892,-1.691,-1.6581,-1.6612,-1.7077,-1.7968,-1.9327,-1.975,-1.9493,-1.9868,-2.0695,-2.1843,-2.26,-2.3675,-2.4847,-2.5187,-2.5293,-2.5303,0.0,0.0,0.0,0.0,0.0,0.0,0.0,0.0,0.0,0.0,0.0,0.0,0.0,-1.76,-1.7465,-1.8778,-2.2573,-2.6176,-2.9179,-3.0374,-3.1271,-3.1871,-3.104,-2.9627,-2.7587,-2.6617,-2.1816,-1.3015,-0.6257,-0.0664,0.3526,-0.3616,-0.822,-1.0527,-1.0995,-1.1804,-1.2685,-0.985,-0.9267,-0.9957,-0.7338,-0.6143,-0.5674,-0.3987,-0.244,-0.1159,-0.1436,0.0,-0.1286,-0.2827,-0.3485,-0.3619,-0.3283,-0.2251,-0.041,0.3335,0.737,1.0989,1.2691,1.4244,1.5416,1.572,1.4974,1.4103,1.3814,1.1623,0.0,0.0,0.0,0.0,0.0,0.0,0.0,0.0,0.0,0.0,0.0,0.0,0.0,0.0,0.0,0.0,0.0,0.0,0.0,0.0,0.0,0.0,-1.7526,-1.7273,-1.7076,-1.6986,-1.7092,-1.7107,-1.6985,-1.6381,-1.6273,-1.6632,-1.6747,-1.6733,-1.662,-1.6454,-1.6534,-1.6885,-1.8372,-1.9134,-1.9345,-1.9885,-2.0391,-2.0925,-2.1942,-2.2825,-2.3669,-2.487,-2.5421,-2.5564,0.0,0.0,0.0,0.0,0.0,0.0,0.0,0.0,0.0,-2.2871,0.0,0.0,0.0,0.0,-1.9674,-2.1694,-2.5448,-2.831,-2.9729,-3.023,-3.0618,-3.0872,-2.982,-2.8267,-2.6162,-2.5977,-2.2738,-1.6263,-1.4326,-0.6298,0.7062,-0.3555,-0.9189,-1.0458,-1.0997,-1.1978,-1.3058,-1.1463,-1.1143,-1.1495,-0.9036,-0.766,-0.686,-0.5191,-0.3589,-0.2261,0.0,0.0,-0.2352,-0.4352,-0.5047,-0.5124,-0.5446,-0.4763,-0.3114,0.0371,0.3528,0.6288,0.8369,1.0598,1.2525,1.3301,1.3474,1.3465,1.3654,0.0,0.0,0.0,0.0,0.0,0.0,0.0,0.0,0.0,0.0,0.0,0.0,0.0,0.0,0.0,0.0,0.0,0.0,0.0,0.0,0.0,0.0,0.0,-1.7341,-1.698,-1.6749,-1.6604,-1.6897,-1.6957,-1.6703,-1.6016,-1.5867,-1.6238,-1.6279,-1.6202,-1.6017,-1.5836,-1.579,-1.595,-1.7538,-1.8783,-1.9698,-2.0136,-2.0356,-2.0499,-2.1247,-2.1738,-2.2233,-2.3953,-2.5062,-2.5706,0.0,0.0,0.0,0.0,0.0,0.0,0.0,0.0,-2.0643,-2.2763,0.0,0.0,0.0,0.0,0.0,-2.4792,-2.707,-2.8654,-2.9377,-3.0179,-3.0162,-2.9143,-2.812,-2.6597,-2.4443,-2.2972,-2.3442,-2.5954,-1.9406,-0.9081,0.4251,-0.7245,-1.2525,-1.2253,-1.2506,-1.3001,-1.3627,-1.3952,-1.3813,-1.3203,-1.1247,-0.9915,-0.8761,-0.5844,-0.4126,0.0,-0.3469,-0.3235,0.0,-0.5315,0.0,0.0,0.0,-0.7181,-0.5693,-0.3941,-0.1481,0.124,0.0,0.0,0.0,1.13,0.0,0.0,1.359,0.0,0.0,0.0,0.0,0.0,0.0,0.0,0.0,0.0,0.0,0.0,0.0,0.0,0.0,0.0,0.0,0.0,0.0,0.0,0.0,0.0,0.0,-1.7974,-1.7337,-1.7024,-1.6653,-1.6258,-1.671,-1.6645,-1.5902,-1.6063,-1.5857,-1.5278,-1.542,-1.5209,-1.4708,-1.4711,-1.4821,-1.5106,-1.6761,-1.8542,-2.0289,-2.0299,-2.035,-2.045,-2.0415,-2.0449,-2.0713,-2.2488,-2.4221,-2.5693,0.0,0.0,0.0,0.0,0.0,-1.8344,-1.8626,-2.0355,-2.1675,0.0,0.0,0.0,-2.1781,-2.3373,-2.5299,-2.7269,-2.8502,-2.9226,-2.9452,-2.8967,-2.8782,-2.9015,-2.6325,-2.3142,-1.9612,-1.9824,-1.9439,-1.8277,-1.1704,-0.4034,0.4291,-0.6343,-1.2718,-1.5204,-1.3945,-1.3494,-1.3654,-1.3707,-1.3099,-1.2012,-1.0321,-0.9098,-0.8043,-0.5759,0.0,0.0,0.0,-0.505,-0.4404,0.0,-0.6738,-0.7449,0.0,-0.7783,-0.7116,-0.6518,-0.4426,-0.2066,-0.0884,0.0,0.0,0.0,0.0,0.0,0.0,0.0,0.0,0.0,0.0,0.0,0.0,0.0,0.0,0.0,0.0,0.0,0.0,0.0,0.0,0.0,0.0,0.0,0.0,0.0,0.0,0.0,-1.8695,-1.8638,-1.7641,-1.7922,-1.7789,-1.7103,-1.6693,-1.622,-1.5689,-1.5156,-1.489,-1.4873,-1.5046,-1.5062,-1.4912,-1.5068,-1.5165,-1.5287,-1.6369,-1.7189,-1.7876,-1.968,-2.0018,-1.9423,-2.0171,-2.0506,-2.0637,-2.1134,-2.3176,-2.5689,0.0,0.0,0.0,0.0,0.0,-1.9029,-1.9324,-2.0924,-2.2154,0.0,0.0,0.0,-2.3361,-2.5666,-2.7563,-2.8713,-2.9222,-2.9354,-2.9062,-2.7924,-2.7052,-2.67,-2.391,-2.0923,-1.79,-1.8043,-1.6806,-1.3974,-0.668,-0.1232,0.2263,-0.6597,-1.1903,-1.3947,-1.3982,-1.3771,-1.3345,-1.3314,-1.2786,-1.1868,-1.0459,-0.9181,0.0,-0.6312,-0.5451,0.0,0.0,0.0,-0.5064,-0.6957,-0.8248,0.0,0.0,0.0,-0.8661,-0.8276,-0.69,-0.5281,-0.4524,-0.2589,-0.0169,0.2279,0.0,0.0,0.9418,1.1122,0.0,0.0,0.0,0.0,0.0,0.0,0.0,0.0,0.0,0.0,0.0,0.0,0.0,0.0,0.0,0.0,0.0,0.0,0.0,0.0,-1.9345,-1.9304,-1.822,-1.8498,-1.8199,-1.7138,-1.672,-1.6078,-1.5184,-1.4749,-1.4606,-1.478,-1.4936,-1.5011,-1.5057,-1.521,-1.5306,-1.5366,-1.6375,-1.6749,-1.682,-1.9052,-1.9602,-1.9163,-2.0162,-2.0557,-2.061,-2.0961,-2.2152,-2.3759,0.0,0.0,-2.1083,-1.9083,-1.9137,-1.9723,-2.039,-2.1371,-2.2263,0.0,-2.3408,-2.4396,-2.6307,-2.8038,-2.9254,-2.9664,-2.9484,-2.9063,-2.8323,-2.6771,-2.5055,-2.323,-2.1266,-1.9512,-1.7909,-1.7275,-1.5458,-1.2394,-0.4854,-0.1085,-0.1108,-0.7665,-1.0743,-1.0802,-1.308,-1.3611,-1.2771,-1.2743,-1.2457,-1.1942,-1.094,-0.9479,0.0,0.0,-0.608,-0.5653,-0.6386,-0.6087,-0.5621,-0.8502,-1.026,0.0,0.0,0.0,0.0,0.0,-0.8796,-0.8031,-0.703,-0.5949,-0.4528,-0.2404,0.0,0.0,0.5092,0.8461,1.1066,0.0,0.0,0.0,0.0,0.0,0.0,0.0,0.0,0.0,0.0,0.0,0.0,0.0,0.0,0.0,0.0,0.0,-2.1076,-1.9698,-2.0041,-1.9941,-1.9052,-1.8957,-1.8307,-1.6956,-1.6883,-1.6177,-1.4782,-1.4764,-1.4804,-1.4923,-1.4984,-1.5057,-1.5124,-1.5259,-1.5306,-1.537,-1.6542,-1.6812,-1.6605,-1.8426,-1.9219,-1.9355,-2.0234,-2.0533,-2.0589,-2.1355,-2.1281,-2.121,0.0,-2.1842,-2.1366,-1.9886,-2.0019,-2.0309,-2.0098,-2.1426,-2.2358,-2.1858,-2.4246,-2.6515,-2.793,-2.9661,-3.1104,-3.2038,-2.9972,-2.8327,-2.7648,-2.4833,-2.2722,-2.1546,-1.9658,-1.8025,-1.6708,-1.6888,-1.5876,-1.3512,-1.0145,-0.7078,-0.4461,-0.9051,-1.1655,-1.2466,-1.2165,-1.1991,-1.1865,-1.1886,-1.1119,-0.9722,-0.898,-0.7941,-0.6753,-0.5621,-0.5719,-0.6309,-0.6445,-0.6835,-0.7565,-0.9777,-1.0545,-1.0659,0.0,0.0,0.0,-1.0074,0.0,0.0,0.0,0.0,0.0,0.0,0.0,0.0,0.0849,0.4517,0.7638,0.0,0.0,0.0,0.0,0.0,0.0,0.0,0.0,0.0,0.0,0.0,0.0,0.0,0.0,0.0,0.0,0.0,-2.2275,-2.1394,-2.088,-2.0548,-2.034,-1.9873,-1.9182,-1.8253,-1.7606,-1.6825,-1.5909,-1.5301,-1.5046,-1.5064,-1.5131,-1.519,-1.5257,-1.5286,-1.5306,-1.535,-1.628,-1.6254,-1.5729,-1.8133,-1.9137,-1.9238,-2.0098,-2.0435,-2.0446,-2.0608,-2.1193,-2.2103,-2.2535,-2.2189,-2.1757,-2.1216,-2.0608,-2.0346,-2.0528,-2.1578,-2.2462,-2.2826,-2.6153,-2.8937,-3.0232,-3.1174,-3.2017,-3.272,-2.9995,-2.7712,-2.631,-2.4079,-2.1973,-2.022,-1.8802,-1.7659,-1.6842,-1.6697,-1.5949,-1.4676,-1.2289,-0.9978,-0.7954,-0.9905,-1.1034,-1.1406,-1.1324,-1.1208,-1.0963,-1.0342,-0.9457,-0.8394,-0.8038,0.0,-0.6471,-0.5907,-0.6112,-0.6654,-0.7053,-0.8099,-0.9478,-1.0479,-1.0858,0.0,0.0,-1.1246,-1.0728,0.0,-0.9656,-0.9054,0.0,0.0,0.0,-0.8359,0.0,0.0,0.0,0.1444,0.4385,0.0983,0.0,0.0,0.0,0.0,0.0,0.0,0.0,0.0,0.0,0.0,0.0,0.0,0.0,0.0,0.0,0.0,-2.3333,-2.2697,-2.1555,-2.0928,-2.1033,-2.0378,-1.965,-1.8916,-1.8431,-1.7621,-1.6407,-1.5969,-1.5555,-1.5201,-1.523,-1.5273,-1.5358,-1.535,-1.5325,-1.5329,-1.5762,-1.6353,-1.7035,-1.7611,-1.8523,-1.9609,-2.018,-2.0369,-2.035,-2.0389,-2.1111,-2.2256,-2.3402,-2.2961,-2.2604,-2.2528,-2.1481,-2.0805,-2.1415,-2.2017,-2.3096,-2.4931,-2.8401,-3.1155,-3.2421,-3.276,-3.2955,-3.3127,-3.0015,-2.7207,-2.5289,-2.3435,-2.1537,-1.9491,-1.8369,-1.7748,-1.75,-1.6983,-1.6311,-1.5514,-1.3501,-1.1966,-1.0982,-1.0767,-1.0527,-1.0262,-1.0534,-1.0321,-0.9733,-0.8786,0.0,-0.7587,0.0,-0.7315,-0.651,-0.6665,-0.6827,-0.7082,-0.8057,-0.9412,-1.0707,-1.0843,-1.115,-1.15,-1.1716,-1.1259,0.0,0.0,0.0,0.0,0.0,0.0,0.0,0.0,0.0,-0.7507,0.0,0.0,0.0,-0.6724,0.0,0.0,0.0,0.0,0.0,0.0,0.0,0.0,0.0,0.0,0.0,0.0,0.0,0.0,0.0,0.0,-2.4046,-2.3586,-2.2216,-2.1429,-2.1515,-2.0692,-1.9986,-1.9426,-1.9156,-1.8392,-1.7097,-1.6645,-1.6143,-1.5547,-1.539,-1.5347,-1.5397,-1.5329,-1.5279,-1.5268,-1.5553,-1.6632,-1.8148,-1.75,-1.8212,-1.9762,-2.0124,-2.0255,-2.0201,-2.0267,-2.0976,-2.2068,-2.451,-2.4668,-2.4673,-2.3616,-2.328,-2.3018,-2.2618,-2.3316,-2.499,-2.7851,-3.0254,-3.2288,-3.3812,-3.4661,-3.4986,-3.4526,-3.0349,-2.7113,-2.5649,-2.2237,-2.0147,-1.9829,-1.8636,-1.7967,-1.7949,-1.8562,-1.7789,-1.5514,-1.5657,-1.4745,-1.2696,-1.1997,-1.175,-1.1866,-0.9942,-0.8539,-0.7716,-0.7752,-0.7507,0.0,-0.8236,-0.7742,0.0,-0.7277,-0.7671,-0.7923,-0.9545,-1.0273,-1.0557,0.0,-1.1587,-1.175,0.0,-1.1042,-1.0819,-1.0007,0.0,0.0,0.0,0.0,0.0,0.0,-1.0767,0.0,0.0,0.0,-1.1165,-1.2541,0.0,0.0,0.0,0.0,0.0,0.0,0.0,0.0,0.0,0.0,0.0,0.0,0.0,0.0,0.0,0.0,0.0,-2.3764,-2.2945,-2.2281,-2.1949,-2.0932,-2.0328,-2.0172,-1.9468,-1.9001,-1.8827,-1.7336,-1.6538,-1.6434,-1.5723,-1.5392,-1.5401,-1.5094,-1.4992,-1.512,-1.6488,-1.6829,-1.6555,-1.8594,-1.913,-1.8753,-1.9542,-1.9869,-1.9857,-1.9876,-2.0609,-2.1727,-2.6408,-2.5783,-2.5508,-2.5816,-2.511,-2.4442,-2.4261,-2.5338,-2.7063,-2.9727,-3.1639,-3.3466,-3.5355,-3.5311,-3.4898,-3.4158,0.0,-2.7114,0.0,0.0,-2.1534,-2.0722,-1.9674,-1.8996,-1.876,-1.8587,-1.789,-1.6626,-1.6071,-1.5204,-1.4118,-1.3458,-1.2757,-1.1911,-1.0436,-0.9388,-0.8641,0.0,-0.7242,0.0,0.0,0.0,0.0,-0.8313,-0.8915,-0.9369,-0.9918,-1.0455,-1.1007,0.0,-1.1708,0.0,0.0,0.0,0.0,0.0,0.0,0.0,0.0,0.0,0.0,0.0,0.0,0.0,-1.2229,0.0,-1.3138,0.0,0.0,0.0,0.0,0.0,0.0,0.0,0.0,0.0,0.0,0.0,0.0,0.0,0.0,0.0,0.0,0.0,0.0,0.0,0.0,-2.114,-2.1789,-2.1261,-2.1109,-2.1521,-2.073,-2.0076,-1.9568,-1.839,-1.7332,-1.6349,-1.5661,-1.535,-1.538,-1.6806,-1.7461,-1.7481,-1.7185,-1.7466,-1.8187,-1.9138,-1.937,-1.9151,-1.9425,-1.9645,-1.9788,-1.97,-2.0665,-2.2066,-2.9235,-2.7689,-2.6845,-2.7875,-2.6891,-2.6082,-2.6388,-2.7392,-2.9027,-3.1316,-3.2905,-3.4598,-3.6574,-3.6401,0.0,0.0,-3.1216,-2.82,0.0,0.0,-2.2822,0.0,0.0,0.0,-1.9473,-1.875,-1.8115,-1.7549,-1.6607,-1.5861,-1.5346,-1.4687,-1.3831,-1.2725,-1.1156,-1.0387,-1.0019,0.0,-0.758,-0.8018,-0.8305,-0.8584,-0.8975,-0.9425,-1.0019,-1.0615,-1.0349,-1.0818,-1.1599,-1.1504,-1.1942,0.0,-1.1984,0.0,0.0,0.0,0.0,0.0,-1.1361,0.0,0.0,0.0,0.0,0.0,0.0,0.0,0.0,0.0,0.0,0.0,0.0,0.0,0.0,0.0,0.0,0.0,0.0,0.0,0.0,0.0,0.0,0.0,0.0,0.0,0.0,0.0,-1.9346,0.0,-2.082,-2.0675,-2.1001,-2.2026,-2.1321,-2.069,-2.0205,-1.9106,-1.799,-1.682,-1.5982,-1.5444,-1.5263,-1.7746,-1.8732,-1.8447,-1.7515,-1.7721,-1.8715,-1.8988,-1.9191,-1.9301,-1.918,-1.9268,-1.9471,-1.9507,-2.065,-2.2206,-3.3126,-3.1092,-2.9357,-2.9418,-2.8796,-2.8425,-2.8914,0.0,0.0,0.0,0.0,0.0,0.0,0.0,0.0,0.0,0.0,-3.1018,-2.8322,0.0,-2.3071,0.0,0.0,-2.1221,0.0,-1.9448,-1.8815,-1.7988,-1.7926,-1.7483,-1.6636,-1.5427,-1.5013,-1.5111,-1.1947,-1.075,-1.1165,-0.9302,-0.8804,-0.9362,-1.0329,-1.115,-1.1663,0.0,-1.0762,-1.1341,-1.1068,0.0,0.0,-1.1847,-1.2461,0.0,0.0,0.0,0.0,0.0,0.0,0.0,0.0,0.0,0.0,-1.4318,0.0,0.0,0.0,0.0,-1.6426,0.0,0.0,0.0,0.0,0.0,-2.3079,-2.4548,-2.2636,0.0,0.0,0.0,0.0,0.0,0.0,0.0,0.0,0.0,0.0,-1.757,-1.7461,0.0,-1.8824,-1.8698,-1.9369,-2.1079,-2.0546,-2.0474,-2.0954,-1.9139,-1.8286,-1.8418,-1.697,-1.5793,-1.4988,-1.6873,-1.7286,-1.654,-1.7333,-1.7191,-1.653,-1.8021,-1.8623,-1.8623,-1.8623,-1.8623,-1.868,-1.9146,-2.0368,-2.182,-3.5335,-3.4018,-3.2479,-3.1139,-3.0701,0.0,0.0,-3.117,0.0,0.0,0.0,0.0,0.0,-3.7843,-3.6528,0.0,0.0,-3.0494,-2.8294,-2.6976,0.0,0.0,0.0,-2.3122,0.0,0.0,0.0,-1.8857,-1.8291,-1.8121,-1.8373,-1.7062,-1.6197,-1.5805,-1.3744,-1.2516,0.0,0.0,0.0,0.0,0.0,-1.2706,-1.2677,0.0,0.0,-1.1868,-1.1653,-1.2029,0.0,-1.2334,-1.2771,-1.3364,-1.2448,-1.2595,-1.2985,-1.236,-1.2522,0.0,0.0,0.0,-1.52,-1.5266,0.0,0.0,0.0,0.0,0.0,0.0,0.0,0.0,0.0,0.0,-2.3316,-2.4135,-2.2427,-1.9888,0.0,0.0,0.0,0.0,0.0,0.0,0.0,0.0,0.0,-1.5499,-1.5567,-1.6214,0.0,-1.822,-1.9201,-2.105,-2.069,-2.049,-2.0541,-1.9647,-1.8713,-1.7781,-1.7902,-1.707,-1.5501,-1.7276,-1.7568,-1.6727,-1.7824,-1.811,-1.7861,-1.8373,-1.8585,-1.8585,-1.8442,-1.8478,-1.8623,-1.8789,-1.9847,-2.1355,-3.7428,-3.6365,-3.4888,0.0,0.0,0.0,0.0,0.0,0.0,0.0,-3.7228,0.0,-3.9905,0.0,-3.6354,0.0,-3.3171,-3.0889,-2.8831,-2.81,0.0,-2.6246,-2.5315,0.0,0.0,0.0,0.0,0.0,-1.9112,-1.8781,-1.8971,-1.7915,-1.7069,-1.6427,-1.5126,-1.3986,-1.3036,-1.1854,-1.195,0.0,0.0,-1.3809,0.0,0.0,-1.2116,-1.2191,0.0,-1.251,-1.3177,-1.2745,-1.3138,-1.3654,-1.2811,-1.2965,-1.3455,-1.316,-1.3391,-1.3907,-1.4323,-1.5268,0.0,0.0,-1.6921,0.0,-1.7404,0.0,0.0,0.0,0.0,0.0,0.0,0.0,-2.3444,-2.3824,-2.2431,-1.9857,0.0,-1.0624,0.0,0.0,0.0,0.0,0.0,0.0,-1.1899,-1.3903,-1.3652,-1.4322,0.0,0.0,-1.8092,-2.0054,-1.9904,-1.991,-2.0162,-1.9309,-1.851,-1.7815,-1.8295,-1.7861,-1.6675,-1.7861,-1.7755,-1.6694,-1.7944,-1.827,-1.7929,-1.8226,-1.831,-1.8293,-1.8168,-1.836,-1.8732,-1.8951,-1.9982,-2.145,-3.9363,-3.8096,0.0,0.0,-3.458,0.0,0.0,0.0,-3.6813,0.0,-3.9242,-4.0231,-3.9529,-3.9104,-3.7882,-3.5558,-3.3985,-3.2119,-2.9956,-2.8782,0.0,0.0,-2.5802,-2.5407,-2.4692,0.0,0.0,0.0,0.0,-1.9363,-1.8574,-1.7999,-1.7601,-1.7162,-1.5868,-1.5084,-1.4684,-1.425,-1.4305,-1.4643,-1.4643,-1.4488,-1.4114,-1.3702,0.0,-1.2315,-1.2421,-1.2995,-1.3564,-1.3094,-1.3439,-1.4092,-1.4072,-1.3841,-1.366,-1.4221,-1.4153,-1.4137,-1.5302,-1.5629,-1.5828,-1.6392,0.0,0.0,0.0,0.0,-1.9278,0.0,0.0,0.0,0.0,0.0,0.0,-2.3684,-2.2607,-1.9601,-1.351,0.0,0.0,0.0,0.0,0.0,0.0,-1.0292,-1.0979,-1.2685,-1.1878,-1.2253,0.0,0.0,0.0,-1.8058,-1.8171,-1.8675,-1.9719,-1.8219,-1.777,-1.8408,-1.8176,-1.8087,-1.8176,-1.8417,-1.7692,-1.6353,-1.7665,-1.7658,-1.6779,-1.7484,-1.7789,-1.7789,-1.7789,-1.8221,-1.8968,-1.9625,-2.0749,-2.2025,-3.9713,-3.9003,-3.8016,0.0,-3.5712,-3.5066,0.0,0.0,0.0,0.0,-4.0439,-4.1133,-4.0231,-3.8308,-3.6473,-3.4948,-3.2658,0.0,0.0,0.0,0.0,-2.8704,-2.8743,-2.81,-2.6776,-2.5428,0.0,-2.3043,0.0,-2.0027,-1.9995,-1.819,-1.7347,-1.7317,-1.5926,-1.4923,-1.4342,-1.414,-1.4849,-1.6129,-1.6843,-1.6285,0.0,0.0,-1.4762,-1.3244,-1.3296,-1.3807,-1.438,-1.3599,-1.3797,-1.4276,-1.3996,-1.41,-1.4421,-1.4562,-1.4877,-1.5223,-1.5517,-1.6225,-1.6889,-1.7042,-1.7813,-1.8496,0.0,0.0,0.0,0.0,0.0,0.0,0.0,0.0,0.0,-2.3965,-2.2304,-1.98,0.0,0.0,0.0,-1.3265,0.0,0.0,-0.9666,-0.993,-1.0701,-1.1661,-1.1664,0.0,0.0,0.0,0.0,-1.5428,-1.6182,-1.69,-1.7533,-1.7895,-1.7831,-1.7377,-1.7314,-1.6979,-1.6406,-1.6985,-1.6755,-1.5909,-1.6815,-1.7173,-1.715,-1.7349,-1.7415,-1.7415,-1.7415,-1.7938,-1.8849,-2.0314,-2.1079,-2.1455,-4.0301,0.0,0.0,-3.7936,0.0,0.0,-3.7181,0.0,0.0,-4.006,-4.0799,0.0,-3.9651,-3.7153,-3.5225,-3.4238,-3.1772,0.0,-2.9817,0.0,0.0,-2.9792,-2.9285,-2.8744,-2.8029,-2.6429,0.0,-2.3599,0.0,-2.0183,-1.9672,-1.798,-1.7126,-1.6964,-1.6155,-1.5409,-1.4743,-1.5061,-1.6075,-1.7503,-1.781,0.0,0.0,-1.6576,-1.5742,-1.4494,-1.4321,-1.44,-1.4536,-1.3831,-1.4045,-1.4478,-1.4258,-1.4424,-1.4744,-1.5017,-1.5345,-1.5706,-1.6225,-1.6806,-1.7357,-1.7597,-1.8282,-1.8954,-1.9163,-1.9778,-2.0494,0.0,0.0,0.0,0.0,0.0,0.0,-2.3862,-2.2727,0.0,0.0,0.0,0.0,0.0,-1.6764,0.0,-1.224,-1.1659,-1.1526,-1.1733,0.0,0.0,0.0,0.0,0.0,-1.3689,-1.4552,-1.5365,-1.6173,-1.6767,-1.6784,-1.6307,-1.6424,-1.6182,-1.5675,-1.6271,-1.6406,-1.6214,-1.6483,-1.6786,-1.7076,-1.6954,-1.714,-1.7571,-1.8205,-1.8921,-1.9766,-2.0874,-2.1284,-2.1288,-4.1041,0.0,0.0,0.0,0.0,0.0,0.0,-4.0135,0.0,-4.1065,0.0,-4.0132,-3.8471,-3.5982,-3.4162,-3.3506,0.0,-2.9792,-2.9792,-2.9716,-2.9666,-2.9679,-2.8674,-2.8237,-2.8587,-2.6712,-2.5119,0.0,0.0,-2.0027,-1.8564,-1.753,-1.6825,-1.6379,-1.6379,-1.6066,0.0,-1.6501,-1.7579,-1.868,-1.8227,-1.8089,-1.8002,-1.7011,-1.6279,-1.571,-1.5258,-1.4879,-1.445,-1.4049,-1.4316,-1.4812,-1.4801,-1.488,-1.5017,-1.5543,-1.578,-1.6013,-1.7029,-1.7411,-1.7638,-1.8089,-1.8659,-1.9214,-1.9585,-2.0112,-2.0873,-2.2277,-2.2087,0.0,0.0,0.0,0.0,-2.3926,0.0,0.0,0.0,0.0,0.0,0.0,0.0,0.0,0.0,-1.45,-1.2842,0.0,0.0,0.0,0.0,0.0,0.0,0.0,-1.2984,0.0,-1.5138,0.0,-1.5246,-1.5415,-1.5565,-1.5597,-1.5551,-1.5907,-1.6251,-1.6565,-1.6397,-1.6528,-1.6839,-1.6602,-1.7045,-1.7987,-1.9229,-2.0067,-2.0622,-2.1023,-2.1166,-2.115,-4.194,0.0,0.0,0.0,0.0,-4.382,-4.3512,-4.3561,-4.3492,-4.2862,-4.2264,-4.0815,-3.8052,-3.5331,-3.3487,-3.2799,-3.0955,0.0,0.0,0.0,0.0,-2.9076,-2.8448,-2.8147,-2.8235,-2.7014,-2.5958,0.0,0.0,0.0,-1.9126,-1.7193,-1.6059,-1.5584,-1.5584,-1.6075,-1.6922,-1.7521,0.0,-1.9508,-1.943,-1.9155,-1.8762,-1.7743,-1.6817,-1.6041,-1.5494,-1.5186,-1.5088,-1.4697,-1.4936,-1.5417,-1.5445,-1.5764,-1.6207,-1.6293,-1.6667,-1.705,-1.7234,-1.793,-1.8641,-1.876,-1.9405,-2.0058,-2.0162,-2.0797,-2.1462,-2.1746,-2.1982,-2.2432,-2.3239,0.0,0.0,0.0,0.0,0.0,0.0,0.0,0.0,0.0,0.0,0.0,0.0,0.0,0.0,0.0,0.0,0.0,0.0,0.0,0.0,0.0,0.0,0.0,0.0,0.0,0.0,-1.5398,-1.4991,-1.5,-1.536,-1.5298,-1.5315,-1.5419,-1.5767,-1.6399,-1.7223,-1.7148,-1.7537,-1.8176,-1.8533,-1.8515,-1.8433,-1.9572,-1.999,-2.0061,0.0,0.0,0.0,0.0,0.0,0.0,0.0,-4.5442,0.0,-4.2831,-4.1324,-3.9453,-3.6825,-3.4923,-3.3663,-3.3331,-3.1628,-3.0441,-3.017,-2.9277,-2.8575,-2.8097,-2.7544,0.0,-2.7256,-2.6176,-2.5398,-2.4847,0.0,0.0,-1.9935,-1.8462,-1.7277,-1.642,-1.6138,-1.6686,0.0,0.0,0.0,-2.0061,-2.0001,-1.9701,-1.9263,-1.8124,-1.7272,-1.6596,-1.6003,-1.5869,-1.5835,-1.5326,-1.5572,-1.6066,-1.6088,-1.6281,-1.6552,-1.6837,-1.7118,-1.7422,-1.7958,-1.8493,-1.9014,-1.9521,-1.9967,-2.0416,-2.0862,-2.129,-2.1658,-2.1899,-2.2135,-2.248,-2.3087,-2.3983,0.0,0.0,0.0,0.0,0.0,0.0,0.0,0.0,0.0,0.0,0.0,0.0,0.0,0.0,0.0,0.0,0.0,0.0,0.0,0.0,0.0,0.0,0.0,0.0,0.0,-1.4176,-1.454,-1.4646,-1.4529,-1.4796,-1.4856,-1.4828,-1.5618,-1.6063,-1.6339,-1.7255,-1.796,-1.8518,-1.8916,-1.8706,-1.8281,-1.9322,-1.9353,-1.9002,0.0,-4.2061,0.0,0.0,-4.4082,0.0,-4.6773,-4.6118,-4.4785,-4.2802,-4.0319,-3.7859,-3.5746,-3.4376,-3.3579,-3.3591,-3.2072,-3.0791,-3.0019,-2.9168,-2.8164,-2.6967,-2.6364,-2.6076,-2.6113,-2.5031,-2.4329,0.0,0.0,0.0,0.0,-1.9833,0.0,0.0,0.0,0.0,0.0,0.0,-1.989,-2.0595,-2.0406,-2.0117,-1.9679,-1.8434,-1.7699,-1.7242,-1.6713,-1.6584,-1.6612,-1.6275,-1.6318,-1.6509,-1.6612,-1.6685,-1.6769,-1.7299,-1.7544,-1.7827,-1.865,-1.9029,-1.9383,-2.0128,-2.0449,-2.0765,-2.146,-2.1688,-2.1853,-2.2209,-2.2388,-2.2677,-2.3206,-2.3964,0.0,0.0,0.0,0.0,0.0,0.0,0.0,0.0,0.0,0.0,0.0,0.0,0.0,0.0,0.0,0.0,0.0,0.0,0.0,0.0,0.0,0.0,-1.1167,0.0,-1.2286,0.0,-1.3792,-1.4104,-1.4021,-1.4356,-1.4531,-1.4593,-1.5534,-1.5853,-1.5799,-1.7325,-1.8195,-1.8626,-1.9286,-1.914,-1.8655,-1.9075,-1.8898,-1.8522,0.0,0.0,0.0,0.0,0.0,0.0,0.0,-4.5302,-4.5001,-4.4187,-4.0522,-3.7361,-3.5748,-3.3645,-3.2277,-3.2256,-3.126,-3.0092,-2.8752,-2.8116,-2.7178,-2.5841,-2.4912,-2.4561,-2.4971,-2.3852,-2.3504,0.0,0.0,0.0,0.0,0.0,0.0,0.0,0.0,0.0,0.0,-2.0082,-2.0722,-2.1331,-2.0832,-2.0648,-2.0435,-1.8783,-1.8163,-1.8005,-1.7393,-1.7216,-1.7275,-1.772,-1.7271,-1.6582,-1.7083,-1.7221,-1.7316,-1.788,-1.838,-1.8765,-1.8855,-1.9528,-2.0196,-2.028,-2.0894,-2.1491,-2.1582,-2.1928,-2.2254,-2.2282,-2.2738,-2.323,-2.3588,-2.4117,-2.4735,0.0,0.0,0.0,0.0,0.0,0.0,0.0,0.0,0.0,0.0,0.0,0.0,0.0,0.0,0.0,0.0,0.0,0.0,0.0,0.0,-0.7762,-0.909,-0.9056,0.0,-1.2831,-1.2397,-1.3068,-1.4684,-1.4147,-1.4177,-1.4716,-1.5169,-1.5985,-1.7009,-1.7785,-1.8087,-1.8218,-1.875,-1.8827,-1.852,-1.8026,-1.8517,-1.9423,0.0,0.0,0.0,0.0,0.0,0.0,0.0,-4.4025,-4.2725,-4.1228,-3.9227,-3.6991,-3.457,-3.3469,-3.28,-3.2375,-3.1493,-3.0361,-2.9053,-2.8184,-2.7202,-2.6033,-2.5192,-2.4955,-2.5309,-2.39,-2.3442,0.0,0.0,0.0,0.0,0.0,0.0,0.0,0.0,-2.1776,-2.2481,-2.1933,-2.1907,-2.2053,-2.1094,-2.0716,-2.0591,-1.9228,-1.8917,-1.9092,-1.8153,-1.7785,-1.7814,-1.8016,-1.7812,-1.7517,-1.7693,-1.776,-1.7906,-1.8436,-1.8745,-1.8968,-1.9281,-1.9844,-2.0382,-2.0649,-2.1165,-2.1658,-2.1974,-2.218,-2.231,-2.231,-2.2773,-2.33,-2.3649,-2.4039,-2.4432,0.0,0.0,0.0,0.0,0.0,0.0,0.0,0.0,-2.588,0.0,0.0,0.0,0.0,0.0,0.0,0.0,0.0,0.0,-0.688,0.0,-0.7249,-0.7053,-0.8218,-0.9496,-1.0939,-1.1966,-1.2681,-1.3102,-1.3606,-1.4361,-1.5235,-1.5452,-1.6371,-1.7683,-1.7652,-1.7827,-1.8145,-1.8341,-1.8173,-1.7801,-1.766,-1.7663,-1.772,-4.4878,0.0,-4.3451,0.0,-4.4282,-4.4263,-4.4605,-4.2898,-4.0655,-3.8173,-3.7145,-3.5679,-3.3199,-3.2571,-3.2137,-3.1664,-3.0852,-2.9827,-2.8569,-2.7637,-2.6602,-2.5424,-2.4875,0.0,-2.4744,-2.3535,-2.3039,-2.3387,-2.2862,0.0,0.0,0.0,0.0,0.0,-2.3296,-2.3514,-2.4141,-2.3071,-2.2605,-2.2498,-2.142,-2.1,-2.0935,-1.9703,-1.9542,-1.9744,-1.8723,-1.8356,-1.8377,-1.8506,-1.857,-1.8535,-1.8383,-1.833,-1.8433,-1.8979,-1.9153,-1.9244,-1.9732,-2.0193,-2.0616,-2.1055,-2.1343,-2.1566,-2.19,-2.1972,-2.2095,-2.2483,-2.2908,-2.3346,-2.3774,-2.4036,-2.419,0.0,0.0,0.0,0.0,0.0,0.0,0.0,-2.5338,-2.5173,-2.4892,0.0,0.0,0.0,0.0,0.0,0.0,0.0,0.0,0.0,0.0,0.0,0.0,0.0,-0.8573,-0.9452,-1.1308,-1.2214,-1.2212,-1.3564,-1.4603,-1.5385,-1.5586,-1.6434,-1.7585,-1.7229,-1.7312,-1.7666,-1.7787,-1.7544,-1.7092,-1.7411,-1.7101,-1.6497,-4.6346,-4.6355,-4.6242,-4.5937,-4.5241,-4.4433,-4.3644,-4.1913,-3.9434,-3.5839,-3.4411,-3.3198,-3.1712,-3.0402,-2.9624,-2.9609,-2.9026,-2.8024,-2.6635,-2.592,-2.4901,0.0,0.0,-2.3121,-2.2456,-2.2443,-2.213,-2.1518,0.0,0.0,-2.2456,0.0,0.0,-2.4504,-2.4402,-2.4109,-2.3543,-2.2883,-2.2596,-2.2569,-2.1903,-2.171,-2.1566,-2.0354,-1.9864,-1.982,-1.9145,-1.8881,-1.8986,-1.9513,-1.969,-1.9594,-1.9066,-1.8899,-1.9006,-1.953,-1.969,-1.9782,-2.0177,-2.0616,-2.1086,-2.1491,-2.1406,-2.1194,-2.1221,-2.1221,-2.1575,-2.2928,-2.3189,-2.3392,-2.4074,-2.4208,-2.419,-2.419,0.0,0.0,0.0,0.0,0.0,0.0,-2.3628,-2.378,-2.4892,0.0,0.0,0.0,0.0,0.0,0.0,0.0,0.0,-0.5019,-0.389,0.0,-0.5881,-0.637,-0.7323,-0.8738,-1.0159,-1.1499,-1.284,-1.4171,-1.4808,-1.485,-1.5447,-1.6007,-1.6522,-1.6522,-1.6522,-1.6552,-1.7118,-1.6993,-1.6552,-1.7118,-1.6951,-1.6509,-4.5501,-4.5115,-4.4736,-4.4628,-4.4199,-4.3466,-4.225,-4.0428,-3.7965,-3.4532,-3.2569,-3.0811,-2.9019,-2.928,-2.9205,0.0,-2.8023,-2.7324,0.0,-2.5682,-2.536,-2.4916,-2.444,-2.4141,-2.4163,-2.346,-2.2989,-2.2857,0.0,0.0,0.0,-2.4483,-2.4902,-2.4539,-2.499,-2.512,-2.4911,-2.3792,-2.3346,-2.3207,-2.171,-2.1597,-2.2168,-2.0415,-2.0318,-2.1035,-2.018,-1.9861,-1.9939,-2.0429,-2.0351,-2.0119,-2.0291,-1.9943,-1.9536,-1.9978,-2.0112,-2.0227,-2.0665,-2.1086,-2.143,-2.1552,-2.1496,-2.1387,-2.123,-2.1353,-2.1722,-2.2549,-2.3145,-2.3671,-2.4113,-2.419,-2.419,-2.419,0.0,0.0,0.0,0.0,0.0,0.0,-2.3059,-2.2979,0.0,-2.4245,0.0,0.0,0.0,0.0,0.0,0.0,0.0,0.0,-0.4843,0.0,-0.5888,-0.7981,-0.8957,-0.8731,-1.0606,-1.1948,-1.289,-1.3761,-1.41,-1.4146,-1.4776,-1.5357,-1.5908,-1.5908,-1.6151,-1.6522,-1.668,-1.6637,-1.6522,-1.668,-1.6637,-1.6522,-4.4164,-4.3748,-4.338,-4.3133,-4.2946,-4.2173,-4.0384,-3.8938,-3.6663,-3.2777,-3.1043,-2.9311,-2.7112,-2.759,0.0,-2.726,-2.6752,-2.6123,-2.53,-2.5001,-2.4761,-2.4536,-2.4288,-2.4019,-2.3777,0.0,0.0,-2.2834,-2.302,-2.3294,-2.3518,-2.4624,-2.5058,-2.4916,-2.5141,-2.5227,-2.5153,-2.4088,-2.3523,-2.3245,-2.2018,-2.1859,-2.2193,-2.0803,-2.0812,-2.1454,-2.0799,-2.0554,-2.0606,-2.091,-2.0814,-2.0606,-2.0927,-2.0628,-2.0235,-2.049,-2.0557,-2.0653,-2.1086,-2.1203,-2.1246,-2.1408,-2.0998,-2.0514,-2.0499,-2.0932,-2.1567,-2.2324,-2.3151,-2.3795,-2.4151,-2.419,-2.419,-2.419,0.0,-2.4174,-2.3805,0.0,0.0,0.0,0.0,0.0,0.0,-2.3007,0.0,0.0,0.0,0.0,0.0,0.0,0.0,-0.8402,-0.8426,0.0,-0.6982,-0.8976,-0.9688,-0.9091,-1.0929,-1.2171,-1.2929,-1.3505,-1.3815,-1.3815,-1.4422,-1.505,-1.5588,-1.5365,-1.5644,-1.6139,-1.592,-1.5964,-1.6151,-1.592,-1.6107,-1.6466,-4.2621,-4.2522,0.0,0.0,-4.1576,0.0,-3.835,-3.7488,-3.5492,-3.0871,-2.9799,-2.8471,-2.5939,-2.5633,-2.5826,-2.6474,0.0,0.0,0.0,-2.3849,-2.3221,-2.2652,-2.3176,0.0,-2.173,-2.2307,-2.2309,-2.1727,-2.2395,-2.3074,-2.3656,-2.4295,-2.4897,-2.5379,-2.4747,-2.4447,-2.4346,-2.3754,-2.3155,-2.2687,-2.2626,-2.2269,-2.1749,-2.1407,-2.1322,-2.1311,-2.1128,-2.1039,-2.1039,-2.1086,-2.1068,-2.1048,-2.107,-2.107,-2.1051,-2.1036,-2.1047,-2.111,-2.1483,-2.1065,-2.0666,-2.1012,-2.0018,-1.8994,-1.9247,-2.0104,-2.1156,-2.2244,-2.31,-2.3783,-2.4152,-2.4209,-2.4209,-2.4247,-2.4389,-2.416,-2.3161,0.0,0.0,0.0,0.0,0.0,0.0,-2.1576,-2.2171,0.0,0.0,0.0,0.0,0.0,-2.1816,-1.6194,-1.3645,-1.1176,-0.8802,-0.9503,-0.9857,-0.9938,-1.1271,-1.2236,-1.2929,-1.3457,-1.3732,-1.3779,-1.4329,-1.4915,-1.5443,-1.488,-1.5005,-1.5499,-1.4926,-1.505,-1.5454,-1.4926,-1.5433,-1.6349,0.0,0.0,-4.2395,-4.204,-4.122,-4.0015,-3.8259,-3.6575,-3.4198,-3.0622,-2.9256,-2.8003,-2.6257,-2.5691,-2.5636,-2.6114,-2.4734,-2.364,-2.3176,-2.2517,-2.2103,-2.1951,-2.2047,-2.1994,-2.1719,-2.1858,-2.1842,-2.1703,-2.2845,-2.3214,-2.2975,-2.4075,-2.4162,-2.3402,-2.3212,-2.2855,-2.2359,-2.2229,-2.2245,-2.2362,-2.184,-2.2059,-2.2567,-2.1484,-2.1399,-2.1811,-2.1544,-2.1446,-2.1524,-2.1861,-2.1748,-2.1502,-2.1899,-2.1765,-2.1472,-2.1462,-2.1444,-2.1439,-2.1317,-2.1271,-2.1122,-2.0458,-1.974,-1.9226,-1.9291,-1.9849,-2.0661,-2.1753,-2.2612,-2.3419,-2.4263,-2.4303,-2.4303,-2.4607,-2.457,-2.419,-2.3347,0.0,0.0,0.0,-2.0004,-1.9939,-2.0172,-2.0606,-2.1783,0.0,0.0,0.0,0.0,0.0,-2.2374,-1.8135,-1.4022,-1.1078,-0.9475,-1.0671,-1.1616,-1.2132,-1.2482,-1.2715,-1.2881,-1.3065,-1.3104,-1.3104,-1.3238,-1.3647,-1.4226,-1.405,-1.4376,-1.488,-1.4755,-1.4789,-1.488,-1.4744,-1.5085,-1.5553,-4.1835,-4.1447,-4.0883,-4.0484,-3.9551,-3.8282,-3.6622,-3.493,-3.2668,-2.9451,-2.8312,-2.7066,-2.5044,-2.4997,-2.528,-2.5838,-2.4923,-2.3779,-2.2404,-2.2413,-2.2293,-2.1872,-2.1756,-2.1642,-2.1528,-2.1627,-2.1695,-2.1695,-2.2383,-2.2562,-2.2248,-2.2951,-2.2987,-2.2513,-2.2513,-2.2408,-2.227,-2.227,-2.2242,-2.2137,-2.1791,-2.1808,-2.2022,-2.149,-2.1492,-2.1823,-2.19,-2.1911,-2.1973,-2.2215,-2.2215,-2.2147,-2.2402,-2.24,-2.2264,-2.1885,-2.1657,-2.1479,-2.111,-2.0848,-2.0465,-1.9584,-1.9276,-1.9158,-1.9158,-1.9769,-2.0513,-2.109,-2.2239,-2.3301,-2.3845,-2.4253,-2.4414,-2.4237,-2.4502,-2.4285,-2.3007,-2.2954,0.0,-2.06,-1.9924,-1.9621,-1.9651,-2.011,-2.1167,-2.3088,0.0,0.0,-2.7171,-2.4671,-2.2183,-1.9943,-1.5716,-1.2674,-1.1197,-1.1913,-1.2501,-1.2881,-1.2881,-1.2881,-1.2881,-1.2881,-1.2881,-1.2881,-1.2881,-1.3238,-1.3779,-1.3505,-1.3732,-1.4236,-1.3967,-1.4061,-1.4236,-1.3978,-1.4463,-1.5257,-4.0162,-3.9662,-3.8901,-3.8315,-3.7395,-3.6157,-3.4389,-3.313,-3.1243,-2.7981,-2.7114,-2.5959,-2.3626,-2.4201,-2.5024,-2.5756,-2.5486,-2.4383,-2.2216,-2.2798,-2.2797,-2.1883,-2.1603,-2.1424,-2.1268,-2.1469,-2.1575,-2.1497,-2.1665,-2.1765,-2.1765,-2.187,-2.2034,-2.2273,-2.2273,-2.2431,-2.271,-2.271,-2.2397,-2.196,-2.196,-2.1674,-2.1279,-2.1637,-2.179,-2.1869,-2.2279,-2.2426,-2.2436,-2.2443,-2.2581,-2.2772,-2.2772,-2.2873,-2.2863,-2.2122,-2.1629,-2.1188,-2.0739,-2.01,-1.9399,-1.8839,-1.8861,-1.9019,-1.9035,-1.9711,-2.0354,-2.0533,-2.1927,-2.3185,-2.3487,-2.4227,-2.4592,-2.3901,-2.4468,-2.4409,-2.2767,0.0,-2.2694,-2.116,-2.0191,-1.9677,-1.9696,-1.9901,-2.0622,-2.2082,-2.3584,0.0,0.0,-2.2962,-2.1321,-2.078,-1.7239,-1.4548,-1.2939,-1.2881,-1.2881,-1.2881,-1.2881,-1.2881,-1.2881,-1.2881,-1.2881,-1.2881,-1.2881,-1.319,-1.3637,-1.3104,-1.32,-1.36,-1.3104,-1.319,-1.361,-1.3183,-1.3882,-1.494,-3.9315,-3.8796,-3.8019,-3.7404,-3.6054,-3.4577,-3.3096,-3.2094,-3.0392,-2.7266,-2.6059,-2.5203,-2.4377,-2.4595,-2.524,-2.6454,-2.5949,-2.4778,-2.3032,-2.2537,-2.1949,-2.1199,-2.0764,-2.0696,-2.1021,-2.1082,-2.0913,-2.0501,-2.1475,-2.1932,-2.1948,-2.2528,-2.2532,-2.2036,-2.2036,-2.1786,-2.1294,-2.1294,-2.1456,-2.1647,-2.1647,-2.1972,-2.2433,-2.2509,-2.2716,-2.2962,-2.3049,-2.3047,-2.3053,-2.3058,-2.3087,-2.3117,-2.3117,-2.2686,-2.2093,-2.157,-2.0898,-2.024,-1.9943,-1.9326,-1.884,-1.9117,-1.9101,-1.9035,-1.9196,-1.9366,-1.9755,-2.0645,-2.157,-2.2707,-2.4341,-2.4731,-2.4864,-2.5075,-2.505,-2.469,0.0,0.0,-2.2888,-2.112,-2.0337,-1.984,-1.9656,-1.9947,-2.0734,-2.21,-2.3112,-2.3788,-2.4071,-2.1519,-1.9517,-1.8401,-1.5978,-1.4167,-1.2929,-1.2881,-1.2881,-1.2881,-1.2881,-1.2881,-1.2881,-1.2881,-1.2881,-1.2881,-1.2881,-1.2978,-1.3017,-1.2929,-1.2978,-1.3017,-1.2929,-1.2978,-1.3066,-1.3322,-1.363,-1.3861,-3.843,-3.7433,-3.6525,-3.6784,-3.4785,-3.2579,-3.0912,-3.0027,-2.8711,-2.6429,-2.5351,-2.4445,-2.3429,-2.3877,-2.4494,-2.5067,-2.4833,-2.424,-2.3324,-2.2752,-2.2213,-2.1708,-2.1055,-2.0797,-2.1007,-2.0991,-2.0894,-2.0698,-2.1213,-2.1454,-2.1454,-2.1789,-2.1857,-2.1794,-2.1794,-2.1756,-2.1705,-2.1845,-2.2032,-2.2191,-2.2383,-2.2691,-2.2959,-2.2959,-2.3071,-2.3199,-2.3199,-2.3207,-2.32,-2.3206,-2.3323,-2.3388,-2.2954,-2.2695,-2.2314,-2.1207,-2.0307,-1.9638,-1.9522,-1.9235,-1.9031,-1.9243,-1.9227,-1.9214,-1.9427,-1.9471,-1.962,-2.0188,-2.1017,-2.2047,-2.3408,-2.4068,-2.4495,-2.4716,-2.4974,0.0,0.0,-2.3715,-2.3246,-2.2305,-2.1488,-2.0967,-2.0845,-2.1117,-2.1715,-2.2762,-2.3316,-2.3417,-2.2966,-2.0914,-1.887,-1.6952,-1.4787,-1.3262,-1.2299,-1.2686,-1.2881,-1.2881,-1.2881,-1.2881,-1.2881,-1.2881,-1.2881,-1.2881,-1.2881,-1.2881,-1.2881,-1.2881,-1.2881,-1.2881,-1.2881,-1.2881,-1.29,-1.3096,-1.359,-1.4133,-3.7636,-3.6189,-3.4918,-3.5285,-3.3081,-3.0702,-2.9095,-2.8072,-2.6952,-2.5411,-2.4596,-2.3646,-2.2413,-2.3143,-2.3712,-2.3712,-2.3712,-2.3607,-2.341,-2.2906,-2.2512,-2.2299,-2.1661,-2.1197,-2.0991,-2.1197,-2.126,-2.115,-2.126,-2.1291,-2.1291,-2.1291,-2.1477,-2.1764,-2.1849,-2.2068,-2.2398,-2.2704,-2.2825,-2.2848,-2.3113,-2.3234,-2.3324,-2.3335,-2.3397,-2.3492,-2.3493,-2.3505,-2.3497,-2.3498,-2.3635,-2.3689,-2.2872,-2.2664,-2.2428,-2.0943,-1.9932,-1.9305,-1.9305,-1.9305,-1.9305,-1.9305,-1.9335,-1.9409,-1.9555,-1.9623,-1.9682,-1.9813,-2.0617,-2.1549,-2.2315,-2.3381,-2.4149,-2.4216,0.0,0.0,0.0,-2.408,-2.384,-2.3635,-2.2817,-2.2272,-2.2241,-2.2335,-2.2744,-2.3472,-2.3411,-2.2902,-2.1957,-2.0082,-1.7832,-1.5183,-1.3511,-1.2363,-1.1786,-1.2365,-1.2735,-1.2881,-1.2881,-1.2881,-1.2881,-1.2881,-1.2881,-1.2881,-1.2881,-1.2881,-1.2881,-1.2881,-1.2881,-1.2881,-1.2881,-1.2881,-1.2891,-1.2988,-1.3631,-1.449,-3.7048,-3.5436,-3.3403,-3.1871,-3.048,-2.9326,-2.8565,-2.7036,-2.5515,-2.4189,-2.3443,-2.2829,-2.2361,-2.2987,-2.3444,-2.3444,-2.3444,-2.3427,-2.3393,-2.2738,-2.2333,-2.231,-2.2254,-2.1827,-2.1039,-2.1781,-2.2003,-2.1568,-2.2003,-2.2209,-2.2209,-2.2209,-2.2209,-2.2265,-2.252,-2.2643,-2.2695,-2.3021,-2.3165,-2.3163,-2.3172,-2.3387,-2.3652,-2.367,-2.3983,-2.4396,-2.4388,-2.4402,-2.4407,-2.4389,-2.4303,-2.4024,-2.3217,-2.2465,-2.1694,-2.0759,-1.9932,-1.9305,-1.9305,-1.9305,-1.9305,-1.9305,-1.9442,-1.9569,-1.9601,-1.9695,-1.9824,-1.9963,-2.0689,-2.1445,-2.1949,-2.3225,-2.4216,-2.4284,0.0,0.0,-2.538,-2.5107,-2.479,-2.4538,-2.3894,-2.3392,-2.3197,-2.3151,-2.3366,-2.3903,-2.2886,-2.1874,-2.1036,-1.834,-1.538,-1.2218,-1.198,-1.1861,-1.1805,-1.1859,-1.2243,-1.2881,-1.2881,-1.2881,-1.2881,-1.2881,-1.2881,-1.2881,-1.2881,-1.2881,-1.2881,-1.2881,-1.2881,-1.2881,-1.2881,-1.2881,-1.293,-1.332,-1.374,-1.4233,-3.4948,-3.3661,-3.1974,-3.0579,-2.9124,-2.7635,-2.6049,-2.5493,-2.4877,-2.3892,-2.3177,-2.2729,-2.2563,-2.2654,-2.2768,-2.2966,-2.2966,-2.3057,-2.3267,-2.3014,-2.2686,-2.231,-2.231,-2.2152,-2.1811,-2.2135,-2.2287,-2.2296,-2.2466,-2.2669,-2.2857,-2.2857,-2.2857,-2.2857,-2.2947,-2.3021,-2.3021,-2.3369,-2.3522,-2.3544,-2.3864,-2.4078,-2.4207,-2.4342,-2.4506,-2.4682,-2.4676,-2.4699,-2.467,-2.4545,-2.4128,-2.3469,-2.2554,-2.176,-2.1019,-2.0294,-1.978,-1.9481,-1.9481,-1.9476,-1.9513,-1.9599,-1.9676,-1.975,-1.9824,-1.989,-1.9973,-2.0152,-2.0457,-2.0896,-2.1581,-2.2177,-2.2789,-2.3398,0.0,-2.4646,-2.4582,-2.4849,-2.4989,-2.4757,-2.4516,-2.4309,-2.4245,-2.4207,-2.4282,-2.4481,-2.3474,-2.2228,-2.085,-1.6989,-1.3869,-1.1796,-1.0989,-1.0764,-1.1199,-1.1601,-1.1944,-1.2243,-1.2686,-1.2881,-1.2881,-1.2881,-1.2881,-1.2881,-1.2881,-1.2881,-1.2881,-1.2881,-1.2881,-1.2881,-1.2881,-1.2881,-1.29,-1.3057,-1.3545,-1.417,-3.252,-3.1509,-3.0187,-2.8798,-2.7551,-2.6277,-2.4789,-2.4629,-2.4451,-2.3786,-2.33,-2.2947,-2.2721,-2.2537,-2.25,-2.2669,-2.2695,-2.2848,-2.3165,-2.3189,-2.3014,-2.2598,-2.2571,-2.2571,-2.2571,-2.2571,-2.2669,-2.2873,-2.2873,-2.2972,-2.3189,-2.3189,-2.3189,-2.3189,-2.3323,-2.3397,-2.3472,-2.381,-2.3992,-2.4077,-2.4456,-2.4578,-2.461,-2.4761,-2.4834,-2.4861,-2.4858,-2.4693,-2.4467,-2.4327,-2.369,-2.2787,-2.1848,-2.1057,-2.0399,-1.9924,-1.9734,-1.9658,-1.9714,-1.9722,-1.9757,-1.9835,-1.9911,-1.9947,-1.9993,-2.006,-2.0124,-2.0277,-2.0312,-2.0465,-2.1023,-2.1408,-2.1841,-2.2526,-2.3314,-2.3813,-2.3728,-2.4356,-2.476,-2.4639,-2.4816,-2.5001,-2.5013,-2.4916,-2.4845,-2.4774,-2.3476,-2.1633,-1.9213,-1.5477,-1.2859,-1.1769,-1.0254,-0.9792,-1.0459,-1.1133,-1.1612,-1.1819,-1.2529,-1.2881,-1.2881,-1.2881,-1.2881,-1.2881,-1.2881,-1.2881,-1.2881,-1.2881,-1.2881,-1.2881,-1.2881,-1.2959,-1.3076,-1.3076,-1.3613,-1.4346,-2.9874,-2.9082,-2.7916,-2.6101,-2.5562,-2.5403,-2.5403,-2.4704,-2.4074,-2.3753,-2.3692,-2.3455,-2.2772,-2.2721,-2.2695,-2.2721,-2.2721,-2.2848,-2.3189,-2.3212,-2.3212,-2.3212,-2.3189,-2.3189,-2.3189,-2.3189,-2.3189,-2.3189,-2.3189,-2.3212,-2.3212,-2.3212,-2.3212,-2.3212,-2.3566,-2.3824,-2.4025,-2.4357,-2.463,-2.4804,-2.4804,-2.4799,-2.4803,-2.479,-2.4905,-2.4994,-2.4999,-2.4479,-2.3793,-2.3793,-2.3084,-2.2058,-2.1255,-2.0438,-1.979,-1.979,-1.979,-1.9824,-1.9954,-1.9993,-1.9983,-1.9998,-2.015,-2.0251,-2.005,-2.0161,-2.0312,-2.0312,-2.0312,-2.0312,-2.0312,-2.1059,-2.1718,-2.1775,-2.2523,-2.3086,-2.3105,-2.3745,-2.4197,-2.4216,-2.491,-2.5425,-2.5488,-2.5191,-2.4899,-2.4707,-2.2627,-1.9671,-1.5707,-1.3693,-1.2406,-1.1814,-0.9865,-0.9106,-0.9762,-1.0466,-1.1116,-1.1814,-1.2559,-1.2881,-1.2881,-1.2881,-1.2881,-1.2881,-1.2881,-1.2881,-1.2881,-1.2881,-1.2881,-1.2881,-1.2881,-1.3135,-1.3506,-1.3506,-1.4043,-1.4775,-2.7588,-2.7186,-2.6414,-2.4939,-2.4604,-2.4571,-2.4557,-2.4355,-2.417,-2.4074,-2.3855,-2.361,-2.3414,-2.3189,-2.3141,-2.3392,-2.3392,-2.3544,-2.3876,-2.3896,-2.3896,-2.3896,-2.3437,-2.3189,-2.3189,-2.3189,-2.3323,-2.3544,-2.3544,-2.3671,-2.3896,-2.4041,-2.4118,-2.4118,-2.4369,-2.4503,-2.457,-2.4659,-2.4748,-2.4801,-2.4898,-2.494,-2.4964,-2.5099,-2.5184,-2.5139,-2.4575,-2.4215,-2.3898,-2.3148,-2.2307,-2.1415,-2.057,-2.0133,-1.9963,-2.0107,-1.9713,-1.9262,-1.9347,-1.9372,-1.9515,-2.0124,-2.0295,-2.0301,-2.0282,-2.0288,-2.0312,-2.0369,-2.0331,-2.0312,-2.0369,-2.0646,-2.0866,-2.0885,-2.1662,-2.2461,-2.3027,-2.3776,-2.4471,-2.5046,-2.5311,-2.5469,-2.5432,-2.509,-2.4728,-2.4431,-2.1876,-1.8941,-1.5676,-1.3693,-1.2203,-1.1116,-0.9614,-0.891,-0.9106,-1.0213,-1.0667,-1.0415,-1.2107,-1.2618,-1.2129,-1.2666,-1.2881,-1.2881,-1.2881,-1.2881,-1.2881,-1.2881,-1.2881,-1.2881,-1.2881,-1.2959,-1.3066,-1.3066,-1.3603,-1.4326,-2.5697,-2.557,-2.5245,-2.4354,-2.4203,-2.4205,-2.4208,-2.419,-2.419,-2.419,-2.4016,-2.3855,-2.3714,-2.3522,-2.3352,-2.3238,-2.3073,-2.3028,-2.3235,-2.3235,-2.3364,-2.3564,-2.3028,-2.303,-2.3705,-2.3705,-2.3848,-2.4137,-2.4137,-2.4229,-2.4426,-2.4559,-2.4607,-2.4623,-2.4746,-2.4828,-2.4883,-2.4896,-2.4964,-2.5048,-2.5151,-2.5201,-2.5203,-2.5329,-2.5159,-2.4803,-2.4303,-2.3678,-2.2964,-2.231,-2.1566,-2.0804,-2.0287,-2.0115,-2.0152,-2.0288,-1.9965,-1.9369,-1.8501,-1.868,-1.9104,-1.9104,-1.9714,-2.0341,-2.0386,-2.036,-2.034,-2.0385,-2.0371,-2.036,-2.0423,-2.0465,-2.0518,-2.0531,-2.1013,-2.154,-2.2012,-2.2786,-2.3612,-2.4412,-2.472,-2.4977,-2.5253,-2.4796,-2.4044,-2.2963,-2.077,-1.8285,-1.5656,-1.3693,-1.2106,-1.0864,-0.951,-0.8804,-0.8804,-0.9851,-1.02,-0.9814,-1.1592,-1.2236,-1.1814,-1.2559,-1.2881,-1.2881,-1.2881,-1.2881,-1.2881,-1.2881,-1.2881,-1.2881,-1.2881,-1.2831,-1.2786,-1.321,-1.3432,-1.3626,-2.4318,-2.4366,-2.4428,-2.4228,-2.419,-2.419,-2.419,-2.4135,-2.408,-2.408,-2.4025,-2.3874,-2.3557,-2.3536,-2.3247,-2.2504,-2.2063,-2.1803,-2.1803,-2.1838,-2.2068,-2.2539,-2.217,-2.2707,-2.4284,-2.4304,-2.4382,-2.4563,-2.4563,-2.4601,-2.4691,-2.4705,-2.4743,-2.4832,-2.4847,-2.4923,-2.5041,-2.5099,-2.5253,-2.5409,-2.5398,-2.5378,-2.5388,-2.5303,-2.4783,-2.407,-2.4005,-2.2899,-2.1498,-2.1421,-2.0905,-2.0312,-2.0312,-2.0242,-2.02,-2.0277,-2.0181,-1.9607,-1.7521,-1.791,-1.8586,-1.7366,-1.8641,-2.0184,-2.0184,-2.0246,-2.0297,-2.0302,-2.0363,-2.0425,-2.0508,-2.0499,-2.0535,-2.0586,-2.0583,-2.0616,-2.0713,-2.1386,-2.2204,-2.3087,-2.3669,-2.4258,-2.4966,-2.4332,-2.2957,-2.0796,-1.9491,-1.7796,-1.5548,-1.3704,-1.2164,-1.0922,-0.9517,-0.8804,-0.8804,-0.9408,-0.9716,-0.9718,-1.1124,-1.1774,-1.1765,-1.2559,-1.2881,-1.2881,-1.2832,-1.2774,-1.2774,-1.2725,-1.2725,-1.2725,-1.2774,-1.2598,-1.2498,-1.3546,-1.3341,-1.2772,-2.447,-2.4338,-2.4266,-2.4209,-2.419,-2.419,-2.419,-2.3676,-2.3272,-2.3272,-2.2703,-2.2282,-2.2209,-2.2209,-2.2136,-2.1971,-2.186,-2.1803,-2.1803,-2.2175,-2.2343,-2.2154,-2.1849,-2.2082,-2.2924,-2.2782,-2.2713,-2.2754,-2.2754,-2.3107,-2.3795,-2.3942,-2.4359,-2.4981,-2.5176,-2.5299,-2.532,-2.5376,-2.5435,-2.5418,-2.4748,-2.4473,-2.4403,-2.3771,-2.3429,-2.3151,-2.2427,-2.1914,-2.1479,-2.0781,-2.0446,-2.0312,-2.0312,-1.9877,-1.9367,-1.9386,-1.8445,-1.7316,-1.6814,-1.6939,-1.7155,-1.6862,-1.7665,-1.8511,-1.8517,-1.902,-1.9487,-1.9537,-2.005,-2.0507,-2.0577,-2.0572,-2.0566,-2.0521,-2.0508,-2.0971,-2.2278,-2.2479,-2.3075,-2.4564,-2.4652,-2.4588,-2.4558,-2.3448,-2.2002,-2.0223,-1.9284,-1.7638,-1.5028,-1.3502,-1.2289,-1.1369,-0.9695,-0.8804,-0.8804,-0.893,-0.9029,-0.9061,-1.0905,-1.1501,-1.1065,-1.2304,-1.2881,-1.2881,-1.2295,-1.203,-1.1972,-1.1475,-1.1275,-1.1325,-1.1832,-1.1678,-1.1294,-1.2314,-1.2438,-1.2166,-2.4409,-2.4266,-2.419,-2.419,-2.419,-2.419,-2.419,-2.3529,-2.2997,-2.2997,-2.2299,-2.1803,-2.1803,-2.1803,-2.162,-2.1216,-2.0928,-2.0754,-2.0754,-2.1078,-2.1202,-2.1042,-2.0909,-2.1024,-2.1445,-2.1346,-2.1695,-2.2486,-2.2486,-2.2715,-2.3164,-2.3318,-2.3599,-2.4,-2.4177,-2.4263,-2.4266,-2.4331,-2.4351,-2.4322,-2.3857,-2.3672,-2.3632,-2.3233,-2.2829,-2.2366,-2.1859,-2.1421,-2.0885,-2.0007,-1.9731,-1.9731,-1.9769,-1.9193,-1.8609,-1.9058,-1.8276,-1.7173,-1.6767,-1.6663,-1.6601,-1.6183,-1.6417,-1.6979,-1.781,-1.832,-1.8769,-1.9219,-1.9524,-1.9909,-2.045,-2.0554,-2.0666,-2.1023,-2.107,-2.1509,-2.2765,-2.2774,-2.3056,-2.4147,-2.3995,-2.3676,-2.331,-2.2262,-2.0963,-1.9486,-1.8313,-1.678,-1.4835,-1.3449,-1.2269,-1.1184,-0.994,-0.9106,-0.8804,-0.8804,-0.8804,-0.8804,-1.049,-1.099,-1.0364,-1.2107,-1.2715,-1.2344,-1.1972,-1.1814,-1.1765,-1.1065,-1.0813,-1.0813,-1.1166,-1.0914,-1.0478,-1.1646,-1.2248,-1.2422,-2.4081,-2.4007,-2.4043,-2.4171,-2.408,-2.3988,-2.3988,-2.3199,-2.2557,-2.2557,-2.1877,-2.138,-2.138,-2.1252,-2.0868,-2.0136,-1.967,-1.9335,-1.9173,-1.9599,-1.9758,-1.9583,-1.9878,-2.0067,-2.0081,-2.0215,-2.0985,-2.237,-2.237,-2.2455,-2.2609,-2.2669,-2.2774,-2.2915,-2.2997,-2.3009,-2.3015,-2.3091,-2.3122,-2.3095,-2.2947,-2.2891,-2.2871,-2.2793,-2.2266,-2.158,-2.158,-2.1075,-2.0283,-1.9559,-1.9331,-1.9319,-1.9235,-1.8612,-1.804,-1.8663,-1.834,-1.7617,-1.6887,-1.669,-1.6519,-1.5781,-1.5603,-1.5973,-1.7393,-1.786,-1.8153,-1.8779,-1.9037,-1.9431,-2.0321,-2.0469,-2.075,-2.1543,-2.1678,-2.2008,-2.2911,-2.2879,-2.2924,-2.337,-2.2941,-2.2469,-2.2122,-2.1126,-2.003,-1.889,-1.7288,-1.5915,-1.4744,-1.349,-1.219,-1.0939,-1.0108,-0.934,-0.8811,-0.8804,-0.8804,-0.8804,-1.0125,-1.0407,-0.9948,-1.1728,-1.2234,-1.1713,-1.1613,-1.1528,-1.1425,-1.0851,-1.0569,-1.0474,-1.0632,-1.0265,-0.9792,-1.1036,-1.1966,-1.252,-2.3252,-2.3233,-2.3382,-2.408,-2.3621,-2.3162,-2.3162,-2.1841,-2.0833,-2.0833,-2.0134,-1.9654,-1.9654,-1.9014,-1.8555,-1.8427,-1.8498,-1.8249,-1.7485,-1.9023,-1.9335,-1.7907,-1.9394,-1.9911,-1.9184,-1.9908,-2.0408,-2.0639,-2.0639,-2.1051,-2.1845,-2.1864,-2.2267,-2.2987,-2.305,-2.3084,-2.309,-2.3108,-2.3137,-2.3118,-2.2363,-2.2051,-2.1973,-2.123,-2.0879,-2.0742,-2.07,-2.056,-2.038,-2.0262,-2.0262,-2.0188,-1.9435,-1.8644,-1.7866,-1.7246,-1.6973,-1.685,-1.6659,-1.6659,-1.6658,-1.6475,-1.645,-1.6464,-1.658,-1.7285,-1.7799,-1.74,-1.8848,-2.0246,-2.0394,-2.0399,-2.0685,-2.149,-2.16,-2.2105,-2.3468,-2.3512,-2.351,-2.386,-2.287,-2.2163,-2.2107,-2.0686,-1.9489,-1.8867,-1.7288,-1.5915,-1.4744,-1.3433,-1.2307,-1.1429,-0.9805,-0.8919,-0.8804,-0.8804,-0.8804,-0.8811,-0.9846,-1.0294,-1.0232,-1.0816,-1.12,-1.1345,-1.0769,-1.034,-1.0058,-0.9889,-0.9529,-0.9134,-1.0028,-0.9756,-0.903,-0.9742,-1.0407,-1.0933,-2.2502,-2.2419,-2.2428,-2.2795,-2.2556,-2.2336,-2.2336,-2.129,-2.0503,-2.0503,-1.9803,-1.9305,-1.9305,-1.8588,-1.8111,-1.8096,-1.8155,-1.7896,-1.7262,-1.7861,-1.8075,-1.7623,-1.8405,-1.8677,-1.828,-1.8638,-1.8872,-1.8966,-1.9912,-2.0576,-2.097,-2.1015,-2.1239,-2.1617,-2.1677,-2.1705,-2.1675,-2.1184,-2.0996,-2.0957,-2.0078,-1.9727,-1.9727,-1.9824,-1.957,-1.9219,-1.9668,-1.9805,-1.9785,-1.9795,-1.9478,-1.903,-1.8609,-1.7907,-1.7148,-1.6768,-1.6951,-1.7201,-1.6735,-1.663,-1.6625,-1.6516,-1.6495,-1.6666,-1.7312,-1.7887,-1.8249,-1.8089,-1.8685,-1.9438,-2.0115,-2.0604,-2.1134,-2.1874,-2.2369,-2.3049,-2.4195,-2.4199,-2.3927,-2.359,-2.2548,-2.1606,-2.1098,-1.9917,-1.8806,-1.8011,-1.6396,-1.5219,-1.4744,-1.31,-1.1864,-1.1124,-0.9982,-0.9162,-0.8804,-0.8804,-0.8804,-0.8811,-0.9418,-0.9666,-0.9721,-1.0817,-1.119,-1.0957,-1.0632,-1.0342,-1.0082,-0.9783,-0.9432,-0.9078,-0.9701,-0.9783,-0.9573,-0.9767,-1.0187,-1.0624]}]]